<?xml version="1.0" encoding="UTF-8"?>
<gpx xmlns="http://www.topografix.com/GPX/1/1"
     creator="GpsDumpMac 0.36"
     version="1.1"
     xmlns:xsi="http://www.w3.org/2001/XMLSchema-instance"
     xsi:schemaLocation="http://www.topografix.com/GPX/1/1 http://www.topografix.com/GPX/1/1/gpx.xsd">
  <metadata>
    <link href="http://www.gethome.no/stein.sorensen/">
      <text>GPS dump for www.flightlog.org</text>
    </link>
    <time>2015-05-26T16:54:47Z</time>
    <bounds minlat="40.176300" minlon="-5.079617" maxlat="40.251150" maxlon="-4.881483"/>
  </metadata>
  <trk>
    <name>Track 001</name>
    <trkseg>
      <trkpt lat="40.252417" lon="-4.887117">
        <ele>1016.0</ele>
        <time>2015-05-10T11:49:22Z</time>
      </trkpt>
      <trkpt lat="40.252233" lon="-4.887100">
        <ele>1017.0</ele>
        <time>2015-05-10T11:49:24Z</time>
      </trkpt>
      <trkpt lat="40.252083" lon="-4.887067">
        <ele>1015.0</ele>
        <time>2015-05-10T11:49:26Z</time>
      </trkpt>
      <trkpt lat="40.251900" lon="-4.887050">
        <ele>1011.0</ele>
        <time>2015-05-10T11:49:28Z</time>
      </trkpt>
      <trkpt lat="40.251717" lon="-4.887017">
        <ele>1010.0</ele>
        <time>2015-05-10T11:49:30Z</time>
      </trkpt>
      <trkpt lat="40.251567" lon="-4.886967">
        <ele>1009.0</ele>
        <time>2015-05-10T11:49:32Z</time>
      </trkpt>
      <trkpt lat="40.251400" lon="-4.886933">
        <ele>1005.0</ele>
        <time>2015-05-10T11:49:34Z</time>
      </trkpt>
      <trkpt lat="40.251217" lon="-4.886883">
        <ele>1002.0</ele>
        <time>2015-05-10T11:49:36Z</time>
      </trkpt>
      <trkpt lat="40.251033" lon="-4.886867">
        <ele>1000.0</ele>
        <time>2015-05-10T11:49:38Z</time>
      </trkpt>
      <trkpt lat="40.250833" lon="-4.886867">
        <ele>998.0</ele>
        <time>2015-05-10T11:49:40Z</time>
      </trkpt>
      <trkpt lat="40.250633" lon="-4.886883">
        <ele>996.0</ele>
        <time>2015-05-10T11:49:42Z</time>
      </trkpt>
      <trkpt lat="40.250450" lon="-4.886950">
        <ele>998.0</ele>
        <time>2015-05-10T11:49:44Z</time>
      </trkpt>
      <trkpt lat="40.250267" lon="-4.887017">
        <ele>1001.0</ele>
        <time>2015-05-10T11:49:46Z</time>
      </trkpt>
      <trkpt lat="40.250117" lon="-4.887200">
        <ele>1002.0</ele>
        <time>2015-05-10T11:49:48Z</time>
      </trkpt>
      <trkpt lat="40.250000" lon="-4.887450">
        <ele>1002.0</ele>
        <time>2015-05-10T11:49:50Z</time>
      </trkpt>
      <trkpt lat="40.249850" lon="-4.887633">
        <ele>1004.0</ele>
        <time>2015-05-10T11:49:52Z</time>
      </trkpt>
      <trkpt lat="40.249700" lon="-4.887733">
        <ele>1008.0</ele>
        <time>2015-05-10T11:49:54Z</time>
      </trkpt>
      <trkpt lat="40.249617" lon="-4.887733">
        <ele>1007.0</ele>
        <time>2015-05-10T11:49:56Z</time>
      </trkpt>
      <trkpt lat="40.249550" lon="-4.887567">
        <ele>1001.0</ele>
        <time>2015-05-10T11:49:58Z</time>
      </trkpt>
      <trkpt lat="40.249633" lon="-4.887367">
        <ele>1006.0</ele>
        <time>2015-05-10T11:50:00Z</time>
      </trkpt>
      <trkpt lat="40.249717" lon="-4.887333">
        <ele>1012.0</ele>
        <time>2015-05-10T11:50:02Z</time>
      </trkpt>
      <trkpt lat="40.249817" lon="-4.887317">
        <ele>1008.0</ele>
        <time>2015-05-10T11:50:04Z</time>
      </trkpt>
      <trkpt lat="40.249933" lon="-4.887200">
        <ele>1003.0</ele>
        <time>2015-05-10T11:50:06Z</time>
      </trkpt>
      <trkpt lat="40.249933" lon="-4.887067">
        <ele>1001.0</ele>
        <time>2015-05-10T11:50:08Z</time>
      </trkpt>
      <trkpt lat="40.249883" lon="-4.886967">
        <ele>1001.0</ele>
        <time>2015-05-10T11:50:10Z</time>
      </trkpt>
      <trkpt lat="40.249783" lon="-4.886900">
        <ele>1000.0</ele>
        <time>2015-05-10T11:50:12Z</time>
      </trkpt>
      <trkpt lat="40.249617" lon="-4.886917">
        <ele>998.0</ele>
        <time>2015-05-10T11:50:14Z</time>
      </trkpt>
      <trkpt lat="40.249450" lon="-4.887150">
        <ele>1000.0</ele>
        <time>2015-05-10T11:50:16Z</time>
      </trkpt>
      <trkpt lat="40.249367" lon="-4.887333">
        <ele>1004.0</ele>
        <time>2015-05-10T11:50:18Z</time>
      </trkpt>
      <trkpt lat="40.249300" lon="-4.887517">
        <ele>1002.0</ele>
        <time>2015-05-10T11:50:20Z</time>
      </trkpt>
      <trkpt lat="40.249183" lon="-4.887750">
        <ele>996.0</ele>
        <time>2015-05-10T11:50:22Z</time>
      </trkpt>
      <trkpt lat="40.249033" lon="-4.887933">
        <ele>997.0</ele>
        <time>2015-05-10T11:50:24Z</time>
      </trkpt>
      <trkpt lat="40.248883" lon="-4.888033">
        <ele>1000.0</ele>
        <time>2015-05-10T11:50:26Z</time>
      </trkpt>
      <trkpt lat="40.248750" lon="-4.888067">
        <ele>1001.0</ele>
        <time>2015-05-10T11:50:28Z</time>
      </trkpt>
      <trkpt lat="40.248633" lon="-4.888017">
        <ele>1002.0</ele>
        <time>2015-05-10T11:50:30Z</time>
      </trkpt>
      <trkpt lat="40.248617" lon="-4.887867">
        <ele>1005.0</ele>
        <time>2015-05-10T11:50:32Z</time>
      </trkpt>
      <trkpt lat="40.248650" lon="-4.887733">
        <ele>1007.0</ele>
        <time>2015-05-10T11:50:34Z</time>
      </trkpt>
      <trkpt lat="40.248717" lon="-4.887617">
        <ele>1006.0</ele>
        <time>2015-05-10T11:50:36Z</time>
      </trkpt>
      <trkpt lat="40.248883" lon="-4.887483">
        <ele>1003.0</ele>
        <time>2015-05-10T11:50:38Z</time>
      </trkpt>
      <trkpt lat="40.249100" lon="-4.887450">
        <ele>1005.0</ele>
        <time>2015-05-10T11:50:40Z</time>
      </trkpt>
      <trkpt lat="40.249283" lon="-4.887450">
        <ele>1010.0</ele>
        <time>2015-05-10T11:50:42Z</time>
      </trkpt>
      <trkpt lat="40.249467" lon="-4.887433">
        <ele>1013.0</ele>
        <time>2015-05-10T11:50:44Z</time>
      </trkpt>
      <trkpt lat="40.249650" lon="-4.887400">
        <ele>1017.0</ele>
        <time>2015-05-10T11:50:46Z</time>
      </trkpt>
      <trkpt lat="40.249817" lon="-4.887383">
        <ele>1019.0</ele>
        <time>2015-05-10T11:50:48Z</time>
      </trkpt>
      <trkpt lat="40.249967" lon="-4.887333">
        <ele>1018.0</ele>
        <time>2015-05-10T11:50:50Z</time>
      </trkpt>
      <trkpt lat="40.250117" lon="-4.887200">
        <ele>1017.0</ele>
        <time>2015-05-10T11:50:52Z</time>
      </trkpt>
      <trkpt lat="40.250250" lon="-4.887150">
        <ele>1022.0</ele>
        <time>2015-05-10T11:50:54Z</time>
      </trkpt>
      <trkpt lat="40.250350" lon="-4.887133">
        <ele>1026.0</ele>
        <time>2015-05-10T11:50:56Z</time>
      </trkpt>
      <trkpt lat="40.250400" lon="-4.887050">
        <ele>1027.0</ele>
        <time>2015-05-10T11:50:58Z</time>
      </trkpt>
      <trkpt lat="40.250417" lon="-4.886867">
        <ele>1025.0</ele>
        <time>2015-05-10T11:51:00Z</time>
      </trkpt>
      <trkpt lat="40.250417" lon="-4.886667">
        <ele>1027.0</ele>
        <time>2015-05-10T11:51:02Z</time>
      </trkpt>
      <trkpt lat="40.250433" lon="-4.886517">
        <ele>1028.0</ele>
        <time>2015-05-10T11:51:04Z</time>
      </trkpt>
      <trkpt lat="40.250467" lon="-4.886317">
        <ele>1026.0</ele>
        <time>2015-05-10T11:51:06Z</time>
      </trkpt>
      <trkpt lat="40.250400" lon="-4.886050">
        <ele>1023.0</ele>
        <time>2015-05-10T11:51:08Z</time>
      </trkpt>
      <trkpt lat="40.250233" lon="-4.885850">
        <ele>1024.0</ele>
        <time>2015-05-10T11:51:10Z</time>
      </trkpt>
      <trkpt lat="40.250050" lon="-4.885733">
        <ele>1025.0</ele>
        <time>2015-05-10T11:51:12Z</time>
      </trkpt>
      <trkpt lat="40.249800" lon="-4.885700">
        <ele>1022.0</ele>
        <time>2015-05-10T11:51:14Z</time>
      </trkpt>
      <trkpt lat="40.249533" lon="-4.885767">
        <ele>1020.0</ele>
        <time>2015-05-10T11:51:16Z</time>
      </trkpt>
      <trkpt lat="40.249317" lon="-4.885900">
        <ele>1022.0</ele>
        <time>2015-05-10T11:51:18Z</time>
      </trkpt>
      <trkpt lat="40.249167" lon="-4.886133">
        <ele>1022.0</ele>
        <time>2015-05-10T11:51:20Z</time>
      </trkpt>
      <trkpt lat="40.249083" lon="-4.886433">
        <ele>1026.0</ele>
        <time>2015-05-10T11:51:22Z</time>
      </trkpt>
      <trkpt lat="40.249083" lon="-4.886717">
        <ele>1029.0</ele>
        <time>2015-05-10T11:51:24Z</time>
      </trkpt>
      <trkpt lat="40.249167" lon="-4.887017">
        <ele>1030.0</ele>
        <time>2015-05-10T11:51:26Z</time>
      </trkpt>
      <trkpt lat="40.249283" lon="-4.887267">
        <ele>1033.0</ele>
        <time>2015-05-10T11:51:28Z</time>
      </trkpt>
      <trkpt lat="40.249450" lon="-4.887467">
        <ele>1038.0</ele>
        <time>2015-05-10T11:51:30Z</time>
      </trkpt>
      <trkpt lat="40.249600" lon="-4.887600">
        <ele>1043.0</ele>
        <time>2015-05-10T11:51:32Z</time>
      </trkpt>
      <trkpt lat="40.249750" lon="-4.887650">
        <ele>1046.0</ele>
        <time>2015-05-10T11:51:34Z</time>
      </trkpt>
      <trkpt lat="40.249917" lon="-4.887633">
        <ele>1049.0</ele>
        <time>2015-05-10T11:51:36Z</time>
      </trkpt>
      <trkpt lat="40.250050" lon="-4.887567">
        <ele>1052.0</ele>
        <time>2015-05-10T11:51:38Z</time>
      </trkpt>
      <trkpt lat="40.250117" lon="-4.887567">
        <ele>1049.0</ele>
        <time>2015-05-10T11:51:40Z</time>
      </trkpt>
      <trkpt lat="40.250217" lon="-4.887450">
        <ele>1040.0</ele>
        <time>2015-05-10T11:51:42Z</time>
      </trkpt>
      <trkpt lat="40.250317" lon="-4.887250">
        <ele>1033.0</ele>
        <time>2015-05-10T11:51:44Z</time>
      </trkpt>
      <trkpt lat="40.250367" lon="-4.887033">
        <ele>1030.0</ele>
        <time>2015-05-10T11:51:46Z</time>
      </trkpt>
      <trkpt lat="40.250367" lon="-4.886850">
        <ele>1026.0</ele>
        <time>2015-05-10T11:51:48Z</time>
      </trkpt>
      <trkpt lat="40.250300" lon="-4.886633">
        <ele>1019.0</ele>
        <time>2015-05-10T11:51:50Z</time>
      </trkpt>
      <trkpt lat="40.250183" lon="-4.886433">
        <ele>1017.0</ele>
        <time>2015-05-10T11:51:52Z</time>
      </trkpt>
      <trkpt lat="40.250067" lon="-4.886283">
        <ele>1014.0</ele>
        <time>2015-05-10T11:51:54Z</time>
      </trkpt>
      <trkpt lat="40.249883" lon="-4.886150">
        <ele>1009.0</ele>
        <time>2015-05-10T11:51:56Z</time>
      </trkpt>
      <trkpt lat="40.249650" lon="-4.886067">
        <ele>1006.0</ele>
        <time>2015-05-10T11:51:58Z</time>
      </trkpt>
      <trkpt lat="40.249400" lon="-4.886067">
        <ele>1006.0</ele>
        <time>2015-05-10T11:52:00Z</time>
      </trkpt>
      <trkpt lat="40.249183" lon="-4.886117">
        <ele>1005.0</ele>
        <time>2015-05-10T11:52:02Z</time>
      </trkpt>
      <trkpt lat="40.248950" lon="-4.886233">
        <ele>1001.0</ele>
        <time>2015-05-10T11:52:04Z</time>
      </trkpt>
      <trkpt lat="40.248733" lon="-4.886433">
        <ele>998.0</ele>
        <time>2015-05-10T11:52:06Z</time>
      </trkpt>
      <trkpt lat="40.248550" lon="-4.886683">
        <ele>995.0</ele>
        <time>2015-05-10T11:52:08Z</time>
      </trkpt>
      <trkpt lat="40.248350" lon="-4.886933">
        <ele>996.0</ele>
        <time>2015-05-10T11:52:10Z</time>
      </trkpt>
      <trkpt lat="40.248183" lon="-4.887183">
        <ele>1000.0</ele>
        <time>2015-05-10T11:52:12Z</time>
      </trkpt>
      <trkpt lat="40.248050" lon="-4.887417">
        <ele>1001.0</ele>
        <time>2015-05-10T11:52:14Z</time>
      </trkpt>
      <trkpt lat="40.248000" lon="-4.887700">
        <ele>999.0</ele>
        <time>2015-05-10T11:52:16Z</time>
      </trkpt>
      <trkpt lat="40.247933" lon="-4.888017">
        <ele>997.0</ele>
        <time>2015-05-10T11:52:18Z</time>
      </trkpt>
      <trkpt lat="40.247817" lon="-4.888267">
        <ele>997.0</ele>
        <time>2015-05-10T11:52:20Z</time>
      </trkpt>
      <trkpt lat="40.247700" lon="-4.888467">
        <ele>998.0</ele>
        <time>2015-05-10T11:52:22Z</time>
      </trkpt>
      <trkpt lat="40.247567" lon="-4.888667">
        <ele>997.0</ele>
        <time>2015-05-10T11:52:24Z</time>
      </trkpt>
      <trkpt lat="40.247400" lon="-4.888867">
        <ele>998.0</ele>
        <time>2015-05-10T11:52:26Z</time>
      </trkpt>
      <trkpt lat="40.247283" lon="-4.889083">
        <ele>999.0</ele>
        <time>2015-05-10T11:52:28Z</time>
      </trkpt>
      <trkpt lat="40.247250" lon="-4.889433">
        <ele>997.0</ele>
        <time>2015-05-10T11:52:30Z</time>
      </trkpt>
      <trkpt lat="40.247400" lon="-4.889750">
        <ele>995.0</ele>
        <time>2015-05-10T11:52:32Z</time>
      </trkpt>
      <trkpt lat="40.247583" lon="-4.889850">
        <ele>998.0</ele>
        <time>2015-05-10T11:52:34Z</time>
      </trkpt>
      <trkpt lat="40.247733" lon="-4.889833">
        <ele>1000.0</ele>
        <time>2015-05-10T11:52:36Z</time>
      </trkpt>
      <trkpt lat="40.247867" lon="-4.889783">
        <ele>999.0</ele>
        <time>2015-05-10T11:52:38Z</time>
      </trkpt>
      <trkpt lat="40.247983" lon="-4.889667">
        <ele>999.0</ele>
        <time>2015-05-10T11:52:40Z</time>
      </trkpt>
      <trkpt lat="40.248083" lon="-4.889550">
        <ele>1003.0</ele>
        <time>2015-05-10T11:52:42Z</time>
      </trkpt>
      <trkpt lat="40.248183" lon="-4.889467">
        <ele>1004.0</ele>
        <time>2015-05-10T11:52:44Z</time>
      </trkpt>
      <trkpt lat="40.248267" lon="-4.889367">
        <ele>1003.0</ele>
        <time>2015-05-10T11:52:46Z</time>
      </trkpt>
      <trkpt lat="40.248383" lon="-4.889233">
        <ele>1003.0</ele>
        <time>2015-05-10T11:52:48Z</time>
      </trkpt>
      <trkpt lat="40.248467" lon="-4.889100">
        <ele>1005.0</ele>
        <time>2015-05-10T11:52:50Z</time>
      </trkpt>
      <trkpt lat="40.248550" lon="-4.889000">
        <ele>1009.0</ele>
        <time>2015-05-10T11:52:52Z</time>
      </trkpt>
      <trkpt lat="40.248667" lon="-4.888900">
        <ele>1010.0</ele>
        <time>2015-05-10T11:52:54Z</time>
      </trkpt>
      <trkpt lat="40.248767" lon="-4.888817">
        <ele>1011.0</ele>
        <time>2015-05-10T11:52:56Z</time>
      </trkpt>
      <trkpt lat="40.248817" lon="-4.888683">
        <ele>1012.0</ele>
        <time>2015-05-10T11:52:58Z</time>
      </trkpt>
      <trkpt lat="40.248817" lon="-4.888567">
        <ele>1013.0</ele>
        <time>2015-05-10T11:53:00Z</time>
      </trkpt>
      <trkpt lat="40.248883" lon="-4.888467">
        <ele>1013.0</ele>
        <time>2015-05-10T11:53:02Z</time>
      </trkpt>
      <trkpt lat="40.249017" lon="-4.888400">
        <ele>1012.0</ele>
        <time>2015-05-10T11:53:04Z</time>
      </trkpt>
      <trkpt lat="40.249100" lon="-4.888333">
        <ele>1013.0</ele>
        <time>2015-05-10T11:53:06Z</time>
      </trkpt>
      <trkpt lat="40.249167" lon="-4.888267">
        <ele>1009.0</ele>
        <time>2015-05-10T11:53:08Z</time>
      </trkpt>
      <trkpt lat="40.249267" lon="-4.888117">
        <ele>1004.0</ele>
        <time>2015-05-10T11:53:10Z</time>
      </trkpt>
      <trkpt lat="40.249367" lon="-4.887967">
        <ele>1002.0</ele>
        <time>2015-05-10T11:53:12Z</time>
      </trkpt>
      <trkpt lat="40.249450" lon="-4.887833">
        <ele>1000.0</ele>
        <time>2015-05-10T11:53:14Z</time>
      </trkpt>
      <trkpt lat="40.249533" lon="-4.887667">
        <ele>997.0</ele>
        <time>2015-05-10T11:53:16Z</time>
      </trkpt>
      <trkpt lat="40.249600" lon="-4.887467">
        <ele>993.0</ele>
        <time>2015-05-10T11:53:18Z</time>
      </trkpt>
      <trkpt lat="40.249700" lon="-4.887283">
        <ele>997.0</ele>
        <time>2015-05-10T11:53:20Z</time>
      </trkpt>
      <trkpt lat="40.249750" lon="-4.887200">
        <ele>1003.0</ele>
        <time>2015-05-10T11:53:22Z</time>
      </trkpt>
      <trkpt lat="40.249800" lon="-4.887133">
        <ele>1003.0</ele>
        <time>2015-05-10T11:53:24Z</time>
      </trkpt>
      <trkpt lat="40.249883" lon="-4.887067">
        <ele>1003.0</ele>
        <time>2015-05-10T11:53:26Z</time>
      </trkpt>
      <trkpt lat="40.249967" lon="-4.887033">
        <ele>1003.0</ele>
        <time>2015-05-10T11:53:28Z</time>
      </trkpt>
      <trkpt lat="40.250050" lon="-4.886983">
        <ele>998.0</ele>
        <time>2015-05-10T11:53:30Z</time>
      </trkpt>
      <trkpt lat="40.250150" lon="-4.886817">
        <ele>993.0</ele>
        <time>2015-05-10T11:53:32Z</time>
      </trkpt>
      <trkpt lat="40.250250" lon="-4.886667">
        <ele>993.0</ele>
        <time>2015-05-10T11:53:34Z</time>
      </trkpt>
      <trkpt lat="40.250333" lon="-4.886583">
        <ele>992.0</ele>
        <time>2015-05-10T11:53:36Z</time>
      </trkpt>
      <trkpt lat="40.250433" lon="-4.886450">
        <ele>988.0</ele>
        <time>2015-05-10T11:53:38Z</time>
      </trkpt>
      <trkpt lat="40.250517" lon="-4.886317">
        <ele>991.0</ele>
        <time>2015-05-10T11:53:40Z</time>
      </trkpt>
      <trkpt lat="40.250600" lon="-4.886283">
        <ele>992.0</ele>
        <time>2015-05-10T11:53:42Z</time>
      </trkpt>
      <trkpt lat="40.250683" lon="-4.886233">
        <ele>987.0</ele>
        <time>2015-05-10T11:53:44Z</time>
      </trkpt>
      <trkpt lat="40.250783" lon="-4.886117">
        <ele>983.0</ele>
        <time>2015-05-10T11:53:46Z</time>
      </trkpt>
      <trkpt lat="40.250783" lon="-4.885933">
        <ele>981.0</ele>
        <time>2015-05-10T11:53:48Z</time>
      </trkpt>
      <trkpt lat="40.250733" lon="-4.885750">
        <ele>981.0</ele>
        <time>2015-05-10T11:53:50Z</time>
      </trkpt>
      <trkpt lat="40.250650" lon="-4.885583">
        <ele>980.0</ele>
        <time>2015-05-10T11:53:52Z</time>
      </trkpt>
      <trkpt lat="40.250483" lon="-4.885450">
        <ele>978.0</ele>
        <time>2015-05-10T11:53:54Z</time>
      </trkpt>
      <trkpt lat="40.250283" lon="-4.885400">
        <ele>977.0</ele>
        <time>2015-05-10T11:53:56Z</time>
      </trkpt>
      <trkpt lat="40.250100" lon="-4.885433">
        <ele>976.0</ele>
        <time>2015-05-10T11:53:58Z</time>
      </trkpt>
      <trkpt lat="40.249900" lon="-4.885500">
        <ele>973.0</ele>
        <time>2015-05-10T11:54:00Z</time>
      </trkpt>
      <trkpt lat="40.249667" lon="-4.885633">
        <ele>972.0</ele>
        <time>2015-05-10T11:54:02Z</time>
      </trkpt>
      <trkpt lat="40.249433" lon="-4.885767">
        <ele>973.0</ele>
        <time>2015-05-10T11:54:04Z</time>
      </trkpt>
      <trkpt lat="40.249217" lon="-4.885883">
        <ele>973.0</ele>
        <time>2015-05-10T11:54:06Z</time>
      </trkpt>
      <trkpt lat="40.249000" lon="-4.886000">
        <ele>971.0</ele>
        <time>2015-05-10T11:54:08Z</time>
      </trkpt>
      <trkpt lat="40.248833" lon="-4.886150">
        <ele>969.0</ele>
        <time>2015-05-10T11:54:10Z</time>
      </trkpt>
      <trkpt lat="40.248667" lon="-4.886350">
        <ele>969.0</ele>
        <time>2015-05-10T11:54:12Z</time>
      </trkpt>
      <trkpt lat="40.248533" lon="-4.886567">
        <ele>973.0</ele>
        <time>2015-05-10T11:54:14Z</time>
      </trkpt>
      <trkpt lat="40.248450" lon="-4.886817">
        <ele>976.0</ele>
        <time>2015-05-10T11:54:16Z</time>
      </trkpt>
      <trkpt lat="40.248400" lon="-4.887067">
        <ele>977.0</ele>
        <time>2015-05-10T11:54:18Z</time>
      </trkpt>
      <trkpt lat="40.248483" lon="-4.887350">
        <ele>974.0</ele>
        <time>2015-05-10T11:54:20Z</time>
      </trkpt>
      <trkpt lat="40.248650" lon="-4.887483">
        <ele>973.0</ele>
        <time>2015-05-10T11:54:22Z</time>
      </trkpt>
      <trkpt lat="40.248800" lon="-4.887500">
        <ele>975.0</ele>
        <time>2015-05-10T11:54:24Z</time>
      </trkpt>
      <trkpt lat="40.248917" lon="-4.887467">
        <ele>974.0</ele>
        <time>2015-05-10T11:54:26Z</time>
      </trkpt>
      <trkpt lat="40.249017" lon="-4.887367">
        <ele>971.0</ele>
        <time>2015-05-10T11:54:28Z</time>
      </trkpt>
      <trkpt lat="40.249117" lon="-4.887233">
        <ele>970.0</ele>
        <time>2015-05-10T11:54:30Z</time>
      </trkpt>
      <trkpt lat="40.249217" lon="-4.887117">
        <ele>970.0</ele>
        <time>2015-05-10T11:54:32Z</time>
      </trkpt>
      <trkpt lat="40.249317" lon="-4.886967">
        <ele>971.0</ele>
        <time>2015-05-10T11:54:34Z</time>
      </trkpt>
      <trkpt lat="40.249417" lon="-4.886850">
        <ele>975.0</ele>
        <time>2015-05-10T11:54:36Z</time>
      </trkpt>
      <trkpt lat="40.249500" lon="-4.886783">
        <ele>978.0</ele>
        <time>2015-05-10T11:54:38Z</time>
      </trkpt>
      <trkpt lat="40.249583" lon="-4.886700">
        <ele>979.0</ele>
        <time>2015-05-10T11:54:40Z</time>
      </trkpt>
      <trkpt lat="40.249667" lon="-4.886550">
        <ele>979.0</ele>
        <time>2015-05-10T11:54:42Z</time>
      </trkpt>
      <trkpt lat="40.249767" lon="-4.886450">
        <ele>980.0</ele>
        <time>2015-05-10T11:54:44Z</time>
      </trkpt>
      <trkpt lat="40.249867" lon="-4.886400">
        <ele>979.0</ele>
        <time>2015-05-10T11:54:46Z</time>
      </trkpt>
      <trkpt lat="40.249967" lon="-4.886283">
        <ele>973.0</ele>
        <time>2015-05-10T11:54:48Z</time>
      </trkpt>
      <trkpt lat="40.250033" lon="-4.886100">
        <ele>971.0</ele>
        <time>2015-05-10T11:54:50Z</time>
      </trkpt>
      <trkpt lat="40.250100" lon="-4.885967">
        <ele>971.0</ele>
        <time>2015-05-10T11:54:52Z</time>
      </trkpt>
      <trkpt lat="40.250133" lon="-4.885817">
        <ele>967.0</ele>
        <time>2015-05-10T11:54:54Z</time>
      </trkpt>
      <trkpt lat="40.250183" lon="-4.885650">
        <ele>965.0</ele>
        <time>2015-05-10T11:54:56Z</time>
      </trkpt>
      <trkpt lat="40.250250" lon="-4.885500">
        <ele>966.0</ele>
        <time>2015-05-10T11:54:58Z</time>
      </trkpt>
      <trkpt lat="40.250350" lon="-4.885367">
        <ele>966.0</ele>
        <time>2015-05-10T11:55:00Z</time>
      </trkpt>
      <trkpt lat="40.250400" lon="-4.885200">
        <ele>965.0</ele>
        <time>2015-05-10T11:55:02Z</time>
      </trkpt>
      <trkpt lat="40.250400" lon="-4.885000">
        <ele>962.0</ele>
        <time>2015-05-10T11:55:04Z</time>
      </trkpt>
      <trkpt lat="40.250317" lon="-4.884783">
        <ele>959.0</ele>
        <time>2015-05-10T11:55:06Z</time>
      </trkpt>
      <trkpt lat="40.250167" lon="-4.884600">
        <ele>959.0</ele>
        <time>2015-05-10T11:55:08Z</time>
      </trkpt>
      <trkpt lat="40.250017" lon="-4.884450">
        <ele>959.0</ele>
        <time>2015-05-10T11:55:10Z</time>
      </trkpt>
      <trkpt lat="40.249817" lon="-4.884383">
        <ele>956.0</ele>
        <time>2015-05-10T11:55:12Z</time>
      </trkpt>
      <trkpt lat="40.249600" lon="-4.884433">
        <ele>956.0</ele>
        <time>2015-05-10T11:55:14Z</time>
      </trkpt>
      <trkpt lat="40.249400" lon="-4.884483">
        <ele>956.0</ele>
        <time>2015-05-10T11:55:16Z</time>
      </trkpt>
      <trkpt lat="40.249217" lon="-4.884600">
        <ele>957.0</ele>
        <time>2015-05-10T11:55:18Z</time>
      </trkpt>
      <trkpt lat="40.249050" lon="-4.884733">
        <ele>962.0</ele>
        <time>2015-05-10T11:55:20Z</time>
      </trkpt>
      <trkpt lat="40.248900" lon="-4.884867">
        <ele>964.0</ele>
        <time>2015-05-10T11:55:22Z</time>
      </trkpt>
      <trkpt lat="40.248800" lon="-4.885050">
        <ele>963.0</ele>
        <time>2015-05-10T11:55:24Z</time>
      </trkpt>
      <trkpt lat="40.248683" lon="-4.885333">
        <ele>961.0</ele>
        <time>2015-05-10T11:55:26Z</time>
      </trkpt>
      <trkpt lat="40.248550" lon="-4.885550">
        <ele>964.0</ele>
        <time>2015-05-10T11:55:28Z</time>
      </trkpt>
      <trkpt lat="40.248417" lon="-4.885717">
        <ele>965.0</ele>
        <time>2015-05-10T11:55:30Z</time>
      </trkpt>
      <trkpt lat="40.248217" lon="-4.885850">
        <ele>964.0</ele>
        <time>2015-05-10T11:55:32Z</time>
      </trkpt>
      <trkpt lat="40.248000" lon="-4.885883">
        <ele>966.0</ele>
        <time>2015-05-10T11:55:34Z</time>
      </trkpt>
      <trkpt lat="40.247817" lon="-4.886000">
        <ele>968.0</ele>
        <time>2015-05-10T11:55:36Z</time>
      </trkpt>
      <trkpt lat="40.247667" lon="-4.886217">
        <ele>969.0</ele>
        <time>2015-05-10T11:55:38Z</time>
      </trkpt>
      <trkpt lat="40.247567" lon="-4.886467">
        <ele>972.0</ele>
        <time>2015-05-10T11:55:40Z</time>
      </trkpt>
      <trkpt lat="40.247583" lon="-4.886750">
        <ele>972.0</ele>
        <time>2015-05-10T11:55:42Z</time>
      </trkpt>
      <trkpt lat="40.247683" lon="-4.886983">
        <ele>974.0</ele>
        <time>2015-05-10T11:55:44Z</time>
      </trkpt>
      <trkpt lat="40.247817" lon="-4.887100">
        <ele>973.0</ele>
        <time>2015-05-10T11:55:46Z</time>
      </trkpt>
      <trkpt lat="40.247967" lon="-4.887067">
        <ele>972.0</ele>
        <time>2015-05-10T11:55:48Z</time>
      </trkpt>
      <trkpt lat="40.248067" lon="-4.886933">
        <ele>973.0</ele>
        <time>2015-05-10T11:55:50Z</time>
      </trkpt>
      <trkpt lat="40.248150" lon="-4.886833">
        <ele>973.0</ele>
        <time>2015-05-10T11:55:52Z</time>
      </trkpt>
      <trkpt lat="40.248250" lon="-4.886683">
        <ele>971.0</ele>
        <time>2015-05-10T11:55:54Z</time>
      </trkpt>
      <trkpt lat="40.248283" lon="-4.886500">
        <ele>973.0</ele>
        <time>2015-05-10T11:55:56Z</time>
      </trkpt>
      <trkpt lat="40.248267" lon="-4.886350">
        <ele>975.0</ele>
        <time>2015-05-10T11:55:58Z</time>
      </trkpt>
      <trkpt lat="40.248233" lon="-4.886167">
        <ele>973.0</ele>
        <time>2015-05-10T11:56:00Z</time>
      </trkpt>
      <trkpt lat="40.248100" lon="-4.885983">
        <ele>973.0</ele>
        <time>2015-05-10T11:56:02Z</time>
      </trkpt>
      <trkpt lat="40.247917" lon="-4.885917">
        <ele>978.0</ele>
        <time>2015-05-10T11:56:04Z</time>
      </trkpt>
      <trkpt lat="40.247767" lon="-4.885917">
        <ele>981.0</ele>
        <time>2015-05-10T11:56:06Z</time>
      </trkpt>
      <trkpt lat="40.247567" lon="-4.886050">
        <ele>981.0</ele>
        <time>2015-05-10T11:56:08Z</time>
      </trkpt>
      <trkpt lat="40.247433" lon="-4.886283">
        <ele>985.0</ele>
        <time>2015-05-10T11:56:10Z</time>
      </trkpt>
      <trkpt lat="40.247383" lon="-4.886550">
        <ele>988.0</ele>
        <time>2015-05-10T11:56:12Z</time>
      </trkpt>
      <trkpt lat="40.247433" lon="-4.886817">
        <ele>989.0</ele>
        <time>2015-05-10T11:56:14Z</time>
      </trkpt>
      <trkpt lat="40.247583" lon="-4.886967">
        <ele>991.0</ele>
        <time>2015-05-10T11:56:16Z</time>
      </trkpt>
      <trkpt lat="40.247733" lon="-4.887000">
        <ele>992.0</ele>
        <time>2015-05-10T11:56:18Z</time>
      </trkpt>
      <trkpt lat="40.247850" lon="-4.886950">
        <ele>995.0</ele>
        <time>2015-05-10T11:56:20Z</time>
      </trkpt>
      <trkpt lat="40.247917" lon="-4.886850">
        <ele>997.0</ele>
        <time>2015-05-10T11:56:22Z</time>
      </trkpt>
      <trkpt lat="40.247933" lon="-4.886700">
        <ele>998.0</ele>
        <time>2015-05-10T11:56:24Z</time>
      </trkpt>
      <trkpt lat="40.247867" lon="-4.886567">
        <ele>998.0</ele>
        <time>2015-05-10T11:56:26Z</time>
      </trkpt>
      <trkpt lat="40.247767" lon="-4.886467">
        <ele>1001.0</ele>
        <time>2015-05-10T11:56:28Z</time>
      </trkpt>
      <trkpt lat="40.247617" lon="-4.886433">
        <ele>1003.0</ele>
        <time>2015-05-10T11:56:30Z</time>
      </trkpt>
      <trkpt lat="40.247450" lon="-4.886517">
        <ele>1005.0</ele>
        <time>2015-05-10T11:56:32Z</time>
      </trkpt>
      <trkpt lat="40.247300" lon="-4.886683">
        <ele>1005.0</ele>
        <time>2015-05-10T11:56:34Z</time>
      </trkpt>
      <trkpt lat="40.247200" lon="-4.886967">
        <ele>1005.0</ele>
        <time>2015-05-10T11:56:36Z</time>
      </trkpt>
      <trkpt lat="40.247217" lon="-4.887267">
        <ele>1007.0</ele>
        <time>2015-05-10T11:56:38Z</time>
      </trkpt>
      <trkpt lat="40.247283" lon="-4.887500">
        <ele>1010.0</ele>
        <time>2015-05-10T11:56:40Z</time>
      </trkpt>
      <trkpt lat="40.247383" lon="-4.887667">
        <ele>1010.0</ele>
        <time>2015-05-10T11:56:42Z</time>
      </trkpt>
      <trkpt lat="40.247550" lon="-4.887750">
        <ele>1008.0</ele>
        <time>2015-05-10T11:56:44Z</time>
      </trkpt>
      <trkpt lat="40.247717" lon="-4.887683">
        <ele>1008.0</ele>
        <time>2015-05-10T11:56:46Z</time>
      </trkpt>
      <trkpt lat="40.247833" lon="-4.887583">
        <ele>1012.0</ele>
        <time>2015-05-10T11:56:48Z</time>
      </trkpt>
      <trkpt lat="40.247917" lon="-4.887500">
        <ele>1013.0</ele>
        <time>2015-05-10T11:56:50Z</time>
      </trkpt>
      <trkpt lat="40.248000" lon="-4.887367">
        <ele>1012.0</ele>
        <time>2015-05-10T11:56:52Z</time>
      </trkpt>
      <trkpt lat="40.248033" lon="-4.887217">
        <ele>1015.0</ele>
        <time>2015-05-10T11:56:54Z</time>
      </trkpt>
      <trkpt lat="40.248017" lon="-4.887083">
        <ele>1017.0</ele>
        <time>2015-05-10T11:56:56Z</time>
      </trkpt>
      <trkpt lat="40.247967" lon="-4.886950">
        <ele>1016.0</ele>
        <time>2015-05-10T11:56:58Z</time>
      </trkpt>
      <trkpt lat="40.247867" lon="-4.886817">
        <ele>1015.0</ele>
        <time>2015-05-10T11:57:00Z</time>
      </trkpt>
      <trkpt lat="40.247733" lon="-4.886783">
        <ele>1017.0</ele>
        <time>2015-05-10T11:57:02Z</time>
      </trkpt>
      <trkpt lat="40.247567" lon="-4.886800">
        <ele>1015.0</ele>
        <time>2015-05-10T11:57:04Z</time>
      </trkpt>
      <trkpt lat="40.247383" lon="-4.886883">
        <ele>1013.0</ele>
        <time>2015-05-10T11:57:06Z</time>
      </trkpt>
      <trkpt lat="40.247233" lon="-4.887117">
        <ele>1012.0</ele>
        <time>2015-05-10T11:57:08Z</time>
      </trkpt>
      <trkpt lat="40.247133" lon="-4.887383">
        <ele>1013.0</ele>
        <time>2015-05-10T11:57:10Z</time>
      </trkpt>
      <trkpt lat="40.247083" lon="-4.887667">
        <ele>1013.0</ele>
        <time>2015-05-10T11:57:12Z</time>
      </trkpt>
      <trkpt lat="40.247100" lon="-4.888000">
        <ele>1014.0</ele>
        <time>2015-05-10T11:57:14Z</time>
      </trkpt>
      <trkpt lat="40.247167" lon="-4.888267">
        <ele>1017.0</ele>
        <time>2015-05-10T11:57:16Z</time>
      </trkpt>
      <trkpt lat="40.247283" lon="-4.888450">
        <ele>1018.0</ele>
        <time>2015-05-10T11:57:18Z</time>
      </trkpt>
      <trkpt lat="40.247450" lon="-4.888567">
        <ele>1016.0</ele>
        <time>2015-05-10T11:57:20Z</time>
      </trkpt>
      <trkpt lat="40.247633" lon="-4.888617">
        <ele>1014.0</ele>
        <time>2015-05-10T11:57:22Z</time>
      </trkpt>
      <trkpt lat="40.247800" lon="-4.888600">
        <ele>1015.0</ele>
        <time>2015-05-10T11:57:24Z</time>
      </trkpt>
      <trkpt lat="40.247933" lon="-4.888550">
        <ele>1015.0</ele>
        <time>2015-05-10T11:57:26Z</time>
      </trkpt>
      <trkpt lat="40.248067" lon="-4.888500">
        <ele>1015.0</ele>
        <time>2015-05-10T11:57:28Z</time>
      </trkpt>
      <trkpt lat="40.248167" lon="-4.888417">
        <ele>1015.0</ele>
        <time>2015-05-10T11:57:30Z</time>
      </trkpt>
      <trkpt lat="40.248250" lon="-4.888317">
        <ele>1015.0</ele>
        <time>2015-05-10T11:57:32Z</time>
      </trkpt>
      <trkpt lat="40.248333" lon="-4.888217">
        <ele>1014.0</ele>
        <time>2015-05-10T11:57:34Z</time>
      </trkpt>
      <trkpt lat="40.248417" lon="-4.888083">
        <ele>1014.0</ele>
        <time>2015-05-10T11:57:36Z</time>
      </trkpt>
      <trkpt lat="40.248483" lon="-4.887983">
        <ele>1018.0</ele>
        <time>2015-05-10T11:57:38Z</time>
      </trkpt>
      <trkpt lat="40.248550" lon="-4.887917">
        <ele>1020.0</ele>
        <time>2015-05-10T11:57:40Z</time>
      </trkpt>
      <trkpt lat="40.248600" lon="-4.887800">
        <ele>1020.0</ele>
        <time>2015-05-10T11:57:42Z</time>
      </trkpt>
      <trkpt lat="40.248617" lon="-4.887683">
        <ele>1021.0</ele>
        <time>2015-05-10T11:57:44Z</time>
      </trkpt>
      <trkpt lat="40.248667" lon="-4.887583">
        <ele>1021.0</ele>
        <time>2015-05-10T11:57:46Z</time>
      </trkpt>
      <trkpt lat="40.248767" lon="-4.887467">
        <ele>1020.0</ele>
        <time>2015-05-10T11:57:48Z</time>
      </trkpt>
      <trkpt lat="40.248883" lon="-4.887417">
        <ele>1025.0</ele>
        <time>2015-05-10T11:57:50Z</time>
      </trkpt>
      <trkpt lat="40.248983" lon="-4.887417">
        <ele>1027.0</ele>
        <time>2015-05-10T11:57:52Z</time>
      </trkpt>
      <trkpt lat="40.249083" lon="-4.887433">
        <ele>1026.0</ele>
        <time>2015-05-10T11:57:54Z</time>
      </trkpt>
      <trkpt lat="40.249183" lon="-4.887367">
        <ele>1028.0</ele>
        <time>2015-05-10T11:57:56Z</time>
      </trkpt>
      <trkpt lat="40.249217" lon="-4.887267">
        <ele>1031.0</ele>
        <time>2015-05-10T11:57:58Z</time>
      </trkpt>
      <trkpt lat="40.249183" lon="-4.887117">
        <ele>1029.0</ele>
        <time>2015-05-10T11:58:00Z</time>
      </trkpt>
      <trkpt lat="40.249100" lon="-4.886917">
        <ele>1027.0</ele>
        <time>2015-05-10T11:58:02Z</time>
      </trkpt>
      <trkpt lat="40.248983" lon="-4.886750">
        <ele>1027.0</ele>
        <time>2015-05-10T11:58:04Z</time>
      </trkpt>
      <trkpt lat="40.248917" lon="-4.886567">
        <ele>1023.0</ele>
        <time>2015-05-10T11:58:06Z</time>
      </trkpt>
      <trkpt lat="40.248883" lon="-4.886350">
        <ele>1019.0</ele>
        <time>2015-05-10T11:58:08Z</time>
      </trkpt>
      <trkpt lat="40.248917" lon="-4.886150">
        <ele>1019.0</ele>
        <time>2015-05-10T11:58:10Z</time>
      </trkpt>
      <trkpt lat="40.248983" lon="-4.885983">
        <ele>1020.0</ele>
        <time>2015-05-10T11:58:12Z</time>
      </trkpt>
      <trkpt lat="40.249067" lon="-4.885883">
        <ele>1021.0</ele>
        <time>2015-05-10T11:58:14Z</time>
      </trkpt>
      <trkpt lat="40.249183" lon="-4.885833">
        <ele>1021.0</ele>
        <time>2015-05-10T11:58:16Z</time>
      </trkpt>
      <trkpt lat="40.249317" lon="-4.885767">
        <ele>1019.0</ele>
        <time>2015-05-10T11:58:18Z</time>
      </trkpt>
      <trkpt lat="40.249500" lon="-4.885783">
        <ele>1017.0</ele>
        <time>2015-05-10T11:58:20Z</time>
      </trkpt>
      <trkpt lat="40.249650" lon="-4.885833">
        <ele>1020.0</ele>
        <time>2015-05-10T11:58:22Z</time>
      </trkpt>
      <trkpt lat="40.249767" lon="-4.885850">
        <ele>1020.0</ele>
        <time>2015-05-10T11:58:24Z</time>
      </trkpt>
      <trkpt lat="40.249917" lon="-4.885800">
        <ele>1018.0</ele>
        <time>2015-05-10T11:58:26Z</time>
      </trkpt>
      <trkpt lat="40.250083" lon="-4.885750">
        <ele>1018.0</ele>
        <time>2015-05-10T11:58:28Z</time>
      </trkpt>
      <trkpt lat="40.250250" lon="-4.885717">
        <ele>1018.0</ele>
        <time>2015-05-10T11:58:30Z</time>
      </trkpt>
      <trkpt lat="40.250417" lon="-4.885667">
        <ele>1018.0</ele>
        <time>2015-05-10T11:58:32Z</time>
      </trkpt>
      <trkpt lat="40.250550" lon="-4.885567">
        <ele>1022.0</ele>
        <time>2015-05-10T11:58:34Z</time>
      </trkpt>
      <trkpt lat="40.250617" lon="-4.885417">
        <ele>1026.0</ele>
        <time>2015-05-10T11:58:36Z</time>
      </trkpt>
      <trkpt lat="40.250583" lon="-4.885267">
        <ele>1026.0</ele>
        <time>2015-05-10T11:58:38Z</time>
      </trkpt>
      <trkpt lat="40.250450" lon="-4.885167">
        <ele>1025.0</ele>
        <time>2015-05-10T11:58:40Z</time>
      </trkpt>
      <trkpt lat="40.250250" lon="-4.885167">
        <ele>1023.0</ele>
        <time>2015-05-10T11:58:42Z</time>
      </trkpt>
      <trkpt lat="40.250067" lon="-4.885333">
        <ele>1022.0</ele>
        <time>2015-05-10T11:58:44Z</time>
      </trkpt>
      <trkpt lat="40.249967" lon="-4.885583">
        <ele>1023.0</ele>
        <time>2015-05-10T11:58:46Z</time>
      </trkpt>
      <trkpt lat="40.249967" lon="-4.885833">
        <ele>1025.0</ele>
        <time>2015-05-10T11:58:48Z</time>
      </trkpt>
      <trkpt lat="40.250000" lon="-4.886067">
        <ele>1026.0</ele>
        <time>2015-05-10T11:58:50Z</time>
      </trkpt>
      <trkpt lat="40.250117" lon="-4.886250">
        <ele>1029.0</ele>
        <time>2015-05-10T11:58:52Z</time>
      </trkpt>
      <trkpt lat="40.250233" lon="-4.886317">
        <ele>1033.0</ele>
        <time>2015-05-10T11:58:54Z</time>
      </trkpt>
      <trkpt lat="40.250367" lon="-4.886333">
        <ele>1033.0</ele>
        <time>2015-05-10T11:58:56Z</time>
      </trkpt>
      <trkpt lat="40.250533" lon="-4.886250">
        <ele>1033.0</ele>
        <time>2015-05-10T11:58:58Z</time>
      </trkpt>
      <trkpt lat="40.250617" lon="-4.886100">
        <ele>1037.0</ele>
        <time>2015-05-10T11:59:00Z</time>
      </trkpt>
      <trkpt lat="40.250650" lon="-4.885983">
        <ele>1040.0</ele>
        <time>2015-05-10T11:59:02Z</time>
      </trkpt>
      <trkpt lat="40.250633" lon="-4.885833">
        <ele>1037.0</ele>
        <time>2015-05-10T11:59:04Z</time>
      </trkpt>
      <trkpt lat="40.250533" lon="-4.885683">
        <ele>1036.0</ele>
        <time>2015-05-10T11:59:06Z</time>
      </trkpt>
      <trkpt lat="40.250417" lon="-4.885583">
        <ele>1036.0</ele>
        <time>2015-05-10T11:59:08Z</time>
      </trkpt>
      <trkpt lat="40.250267" lon="-4.885500">
        <ele>1033.0</ele>
        <time>2015-05-10T11:59:10Z</time>
      </trkpt>
      <trkpt lat="40.250083" lon="-4.885400">
        <ele>1033.0</ele>
        <time>2015-05-10T11:59:12Z</time>
      </trkpt>
      <trkpt lat="40.249950" lon="-4.885317">
        <ele>1037.0</ele>
        <time>2015-05-10T11:59:14Z</time>
      </trkpt>
      <trkpt lat="40.249883" lon="-4.885217">
        <ele>1038.0</ele>
        <time>2015-05-10T11:59:16Z</time>
      </trkpt>
      <trkpt lat="40.249867" lon="-4.885050">
        <ele>1035.0</ele>
        <time>2015-05-10T11:59:18Z</time>
      </trkpt>
      <trkpt lat="40.249933" lon="-4.884867">
        <ele>1036.0</ele>
        <time>2015-05-10T11:59:20Z</time>
      </trkpt>
      <trkpt lat="40.250017" lon="-4.884767">
        <ele>1037.0</ele>
        <time>2015-05-10T11:59:22Z</time>
      </trkpt>
      <trkpt lat="40.250133" lon="-4.884700">
        <ele>1036.0</ele>
        <time>2015-05-10T11:59:24Z</time>
      </trkpt>
      <trkpt lat="40.250300" lon="-4.884617">
        <ele>1034.0</ele>
        <time>2015-05-10T11:59:26Z</time>
      </trkpt>
      <trkpt lat="40.250467" lon="-4.884533">
        <ele>1038.0</ele>
        <time>2015-05-10T11:59:28Z</time>
      </trkpt>
      <trkpt lat="40.250583" lon="-4.884533">
        <ele>1041.0</ele>
        <time>2015-05-10T11:59:30Z</time>
      </trkpt>
      <trkpt lat="40.250733" lon="-4.884533">
        <ele>1039.0</ele>
        <time>2015-05-10T11:59:32Z</time>
      </trkpt>
      <trkpt lat="40.250883" lon="-4.884400">
        <ele>1038.0</ele>
        <time>2015-05-10T11:59:34Z</time>
      </trkpt>
      <trkpt lat="40.250967" lon="-4.884233">
        <ele>1041.0</ele>
        <time>2015-05-10T11:59:36Z</time>
      </trkpt>
      <trkpt lat="40.251033" lon="-4.884100">
        <ele>1041.0</ele>
        <time>2015-05-10T11:59:38Z</time>
      </trkpt>
      <trkpt lat="40.251067" lon="-4.883917">
        <ele>1037.0</ele>
        <time>2015-05-10T11:59:40Z</time>
      </trkpt>
      <trkpt lat="40.251083" lon="-4.883683">
        <ele>1038.0</ele>
        <time>2015-05-10T11:59:42Z</time>
      </trkpt>
      <trkpt lat="40.251133" lon="-4.883517">
        <ele>1043.0</ele>
        <time>2015-05-10T11:59:44Z</time>
      </trkpt>
      <trkpt lat="40.251150" lon="-4.883400">
        <ele>1045.0</ele>
        <time>2015-05-10T11:59:46Z</time>
      </trkpt>
      <trkpt lat="40.251133" lon="-4.883233">
        <ele>1041.0</ele>
        <time>2015-05-10T11:59:48Z</time>
      </trkpt>
      <trkpt lat="40.251100" lon="-4.883033">
        <ele>1041.0</ele>
        <time>2015-05-10T11:59:50Z</time>
      </trkpt>
      <trkpt lat="40.251033" lon="-4.882917">
        <ele>1044.0</ele>
        <time>2015-05-10T11:59:52Z</time>
      </trkpt>
      <trkpt lat="40.250933" lon="-4.882817">
        <ele>1045.0</ele>
        <time>2015-05-10T11:59:54Z</time>
      </trkpt>
      <trkpt lat="40.250850" lon="-4.882683">
        <ele>1045.0</ele>
        <time>2015-05-10T11:59:56Z</time>
      </trkpt>
      <trkpt lat="40.250783" lon="-4.882517">
        <ele>1048.0</ele>
        <time>2015-05-10T11:59:58Z</time>
      </trkpt>
      <trkpt lat="40.250733" lon="-4.882417">
        <ele>1050.0</ele>
        <time>2015-05-10T12:00:00Z</time>
      </trkpt>
      <trkpt lat="40.250667" lon="-4.882317">
        <ele>1047.0</ele>
        <time>2015-05-10T12:00:02Z</time>
      </trkpt>
      <trkpt lat="40.250583" lon="-4.882200">
        <ele>1045.0</ele>
        <time>2015-05-10T12:00:04Z</time>
      </trkpt>
      <trkpt lat="40.250467" lon="-4.882050">
        <ele>1044.0</ele>
        <time>2015-05-10T12:00:06Z</time>
      </trkpt>
      <trkpt lat="40.250367" lon="-4.881867">
        <ele>1046.0</ele>
        <time>2015-05-10T12:00:08Z</time>
      </trkpt>
      <trkpt lat="40.250283" lon="-4.881750">
        <ele>1054.0</ele>
        <time>2015-05-10T12:00:10Z</time>
      </trkpt>
      <trkpt lat="40.250217" lon="-4.881700">
        <ele>1058.0</ele>
        <time>2015-05-10T12:00:12Z</time>
      </trkpt>
      <trkpt lat="40.250117" lon="-4.881650">
        <ele>1056.0</ele>
        <time>2015-05-10T12:00:14Z</time>
      </trkpt>
      <trkpt lat="40.249950" lon="-4.881533">
        <ele>1056.0</ele>
        <time>2015-05-10T12:00:16Z</time>
      </trkpt>
      <trkpt lat="40.249783" lon="-4.881483">
        <ele>1059.0</ele>
        <time>2015-05-10T12:00:18Z</time>
      </trkpt>
      <trkpt lat="40.249600" lon="-4.881517">
        <ele>1057.0</ele>
        <time>2015-05-10T12:00:20Z</time>
      </trkpt>
      <trkpt lat="40.249367" lon="-4.881667">
        <ele>1057.0</ele>
        <time>2015-05-10T12:00:22Z</time>
      </trkpt>
      <trkpt lat="40.249200" lon="-4.881950">
        <ele>1062.0</ele>
        <time>2015-05-10T12:00:24Z</time>
      </trkpt>
      <trkpt lat="40.249117" lon="-4.882267">
        <ele>1069.0</ele>
        <time>2015-05-10T12:00:26Z</time>
      </trkpt>
      <trkpt lat="40.249117" lon="-4.882617">
        <ele>1072.0</ele>
        <time>2015-05-10T12:00:28Z</time>
      </trkpt>
      <trkpt lat="40.249233" lon="-4.882883">
        <ele>1074.0</ele>
        <time>2015-05-10T12:00:30Z</time>
      </trkpt>
      <trkpt lat="40.249400" lon="-4.883017">
        <ele>1079.0</ele>
        <time>2015-05-10T12:00:32Z</time>
      </trkpt>
      <trkpt lat="40.249517" lon="-4.883083">
        <ele>1083.0</ele>
        <time>2015-05-10T12:00:34Z</time>
      </trkpt>
      <trkpt lat="40.249633" lon="-4.883067">
        <ele>1085.0</ele>
        <time>2015-05-10T12:00:36Z</time>
      </trkpt>
      <trkpt lat="40.249700" lon="-4.883000">
        <ele>1089.0</ele>
        <time>2015-05-10T12:00:38Z</time>
      </trkpt>
      <trkpt lat="40.249717" lon="-4.882883">
        <ele>1092.0</ele>
        <time>2015-05-10T12:00:40Z</time>
      </trkpt>
      <trkpt lat="40.249650" lon="-4.882783">
        <ele>1093.0</ele>
        <time>2015-05-10T12:00:42Z</time>
      </trkpt>
      <trkpt lat="40.249533" lon="-4.882717">
        <ele>1091.0</ele>
        <time>2015-05-10T12:00:44Z</time>
      </trkpt>
      <trkpt lat="40.249367" lon="-4.882683">
        <ele>1088.0</ele>
        <time>2015-05-10T12:00:46Z</time>
      </trkpt>
      <trkpt lat="40.249117" lon="-4.882767">
        <ele>1085.0</ele>
        <time>2015-05-10T12:00:48Z</time>
      </trkpt>
      <trkpt lat="40.248917" lon="-4.883017">
        <ele>1088.0</ele>
        <time>2015-05-10T12:00:50Z</time>
      </trkpt>
      <trkpt lat="40.248833" lon="-4.883350">
        <ele>1095.0</ele>
        <time>2015-05-10T12:00:52Z</time>
      </trkpt>
      <trkpt lat="40.248850" lon="-4.883667">
        <ele>1101.0</ele>
        <time>2015-05-10T12:00:54Z</time>
      </trkpt>
      <trkpt lat="40.248883" lon="-4.883933">
        <ele>1104.0</ele>
        <time>2015-05-10T12:00:56Z</time>
      </trkpt>
      <trkpt lat="40.249000" lon="-4.884133">
        <ele>1106.0</ele>
        <time>2015-05-10T12:00:58Z</time>
      </trkpt>
      <trkpt lat="40.249133" lon="-4.884250">
        <ele>1110.0</ele>
        <time>2015-05-10T12:01:00Z</time>
      </trkpt>
      <trkpt lat="40.249233" lon="-4.884250">
        <ele>1114.0</ele>
        <time>2015-05-10T12:01:02Z</time>
      </trkpt>
      <trkpt lat="40.249317" lon="-4.884233">
        <ele>1116.0</ele>
        <time>2015-05-10T12:01:04Z</time>
      </trkpt>
      <trkpt lat="40.249350" lon="-4.884117">
        <ele>1117.0</ele>
        <time>2015-05-10T12:01:06Z</time>
      </trkpt>
      <trkpt lat="40.249300" lon="-4.884000">
        <ele>1119.0</ele>
        <time>2015-05-10T12:01:08Z</time>
      </trkpt>
      <trkpt lat="40.249167" lon="-4.883950">
        <ele>1122.0</ele>
        <time>2015-05-10T12:01:10Z</time>
      </trkpt>
      <trkpt lat="40.249017" lon="-4.883983">
        <ele>1120.0</ele>
        <time>2015-05-10T12:01:12Z</time>
      </trkpt>
      <trkpt lat="40.248800" lon="-4.884150">
        <ele>1119.0</ele>
        <time>2015-05-10T12:01:14Z</time>
      </trkpt>
      <trkpt lat="40.248650" lon="-4.884467">
        <ele>1123.0</ele>
        <time>2015-05-10T12:01:16Z</time>
      </trkpt>
      <trkpt lat="40.248617" lon="-4.884767">
        <ele>1130.0</ele>
        <time>2015-05-10T12:01:18Z</time>
      </trkpt>
      <trkpt lat="40.248633" lon="-4.885017">
        <ele>1132.0</ele>
        <time>2015-05-10T12:01:20Z</time>
      </trkpt>
      <trkpt lat="40.248783" lon="-4.885150">
        <ele>1132.0</ele>
        <time>2015-05-10T12:01:22Z</time>
      </trkpt>
      <trkpt lat="40.248933" lon="-4.885133">
        <ele>1135.0</ele>
        <time>2015-05-10T12:01:24Z</time>
      </trkpt>
      <trkpt lat="40.249033" lon="-4.885117">
        <ele>1143.0</ele>
        <time>2015-05-10T12:01:26Z</time>
      </trkpt>
      <trkpt lat="40.249083" lon="-4.885117">
        <ele>1146.0</ele>
        <time>2015-05-10T12:01:28Z</time>
      </trkpt>
      <trkpt lat="40.249133" lon="-4.885000">
        <ele>1145.0</ele>
        <time>2015-05-10T12:01:30Z</time>
      </trkpt>
      <trkpt lat="40.249067" lon="-4.884867">
        <ele>1148.0</ele>
        <time>2015-05-10T12:01:32Z</time>
      </trkpt>
      <trkpt lat="40.248900" lon="-4.884867">
        <ele>1149.0</ele>
        <time>2015-05-10T12:01:34Z</time>
      </trkpt>
      <trkpt lat="40.248717" lon="-4.884967">
        <ele>1147.0</ele>
        <time>2015-05-10T12:01:36Z</time>
      </trkpt>
      <trkpt lat="40.248517" lon="-4.885117">
        <ele>1145.0</ele>
        <time>2015-05-10T12:01:38Z</time>
      </trkpt>
      <trkpt lat="40.248350" lon="-4.885400">
        <ele>1142.0</ele>
        <time>2015-05-10T12:01:40Z</time>
      </trkpt>
      <trkpt lat="40.248217" lon="-4.885700">
        <ele>1145.0</ele>
        <time>2015-05-10T12:01:42Z</time>
      </trkpt>
      <trkpt lat="40.248100" lon="-4.886000">
        <ele>1148.0</ele>
        <time>2015-05-10T12:01:44Z</time>
      </trkpt>
      <trkpt lat="40.248050" lon="-4.886300">
        <ele>1150.0</ele>
        <time>2015-05-10T12:01:46Z</time>
      </trkpt>
      <trkpt lat="40.248083" lon="-4.886600">
        <ele>1150.0</ele>
        <time>2015-05-10T12:01:48Z</time>
      </trkpt>
      <trkpt lat="40.248167" lon="-4.886867">
        <ele>1151.0</ele>
        <time>2015-05-10T12:01:50Z</time>
      </trkpt>
      <trkpt lat="40.248300" lon="-4.887083">
        <ele>1154.0</ele>
        <time>2015-05-10T12:01:52Z</time>
      </trkpt>
      <trkpt lat="40.248417" lon="-4.887233">
        <ele>1156.0</ele>
        <time>2015-05-10T12:01:54Z</time>
      </trkpt>
      <trkpt lat="40.248550" lon="-4.887367">
        <ele>1157.0</ele>
        <time>2015-05-10T12:01:56Z</time>
      </trkpt>
      <trkpt lat="40.248717" lon="-4.887417">
        <ele>1156.0</ele>
        <time>2015-05-10T12:01:58Z</time>
      </trkpt>
      <trkpt lat="40.248867" lon="-4.887417">
        <ele>1157.0</ele>
        <time>2015-05-10T12:02:00Z</time>
      </trkpt>
      <trkpt lat="40.248983" lon="-4.887383">
        <ele>1158.0</ele>
        <time>2015-05-10T12:02:02Z</time>
      </trkpt>
      <trkpt lat="40.249083" lon="-4.887300">
        <ele>1161.0</ele>
        <time>2015-05-10T12:02:04Z</time>
      </trkpt>
      <trkpt lat="40.249167" lon="-4.887200">
        <ele>1164.0</ele>
        <time>2015-05-10T12:02:06Z</time>
      </trkpt>
      <trkpt lat="40.249250" lon="-4.887133">
        <ele>1165.0</ele>
        <time>2015-05-10T12:02:08Z</time>
      </trkpt>
      <trkpt lat="40.249350" lon="-4.887100">
        <ele>1167.0</ele>
        <time>2015-05-10T12:02:10Z</time>
      </trkpt>
      <trkpt lat="40.249433" lon="-4.887017">
        <ele>1170.0</ele>
        <time>2015-05-10T12:02:12Z</time>
      </trkpt>
      <trkpt lat="40.249533" lon="-4.886933">
        <ele>1173.0</ele>
        <time>2015-05-10T12:02:14Z</time>
      </trkpt>
      <trkpt lat="40.249617" lon="-4.886850">
        <ele>1175.0</ele>
        <time>2015-05-10T12:02:16Z</time>
      </trkpt>
      <trkpt lat="40.249650" lon="-4.886733">
        <ele>1177.0</ele>
        <time>2015-05-10T12:02:18Z</time>
      </trkpt>
      <trkpt lat="40.249650" lon="-4.886617">
        <ele>1180.0</ele>
        <time>2015-05-10T12:02:20Z</time>
      </trkpt>
      <trkpt lat="40.249600" lon="-4.886483">
        <ele>1181.0</ele>
        <time>2015-05-10T12:02:22Z</time>
      </trkpt>
      <trkpt lat="40.249550" lon="-4.886317">
        <ele>1185.0</ele>
        <time>2015-05-10T12:02:24Z</time>
      </trkpt>
      <trkpt lat="40.249517" lon="-4.886167">
        <ele>1193.0</ele>
        <time>2015-05-10T12:02:26Z</time>
      </trkpt>
      <trkpt lat="40.249467" lon="-4.886083">
        <ele>1198.0</ele>
        <time>2015-05-10T12:02:28Z</time>
      </trkpt>
      <trkpt lat="40.249317" lon="-4.885983">
        <ele>1200.0</ele>
        <time>2015-05-10T12:02:30Z</time>
      </trkpt>
      <trkpt lat="40.249133" lon="-4.885967">
        <ele>1204.0</ele>
        <time>2015-05-10T12:02:32Z</time>
      </trkpt>
      <trkpt lat="40.248950" lon="-4.886017">
        <ele>1209.0</ele>
        <time>2015-05-10T12:02:34Z</time>
      </trkpt>
      <trkpt lat="40.248750" lon="-4.886083">
        <ele>1211.0</ele>
        <time>2015-05-10T12:02:36Z</time>
      </trkpt>
      <trkpt lat="40.248550" lon="-4.886167">
        <ele>1216.0</ele>
        <time>2015-05-10T12:02:38Z</time>
      </trkpt>
      <trkpt lat="40.248367" lon="-4.886317">
        <ele>1220.0</ele>
        <time>2015-05-10T12:02:40Z</time>
      </trkpt>
      <trkpt lat="40.248217" lon="-4.886583">
        <ele>1221.0</ele>
        <time>2015-05-10T12:02:42Z</time>
      </trkpt>
      <trkpt lat="40.248150" lon="-4.886917">
        <ele>1222.0</ele>
        <time>2015-05-10T12:02:44Z</time>
      </trkpt>
      <trkpt lat="40.248133" lon="-4.887233">
        <ele>1225.0</ele>
        <time>2015-05-10T12:02:46Z</time>
      </trkpt>
      <trkpt lat="40.248183" lon="-4.887500">
        <ele>1226.0</ele>
        <time>2015-05-10T12:02:48Z</time>
      </trkpt>
      <trkpt lat="40.248317" lon="-4.887733">
        <ele>1225.0</ele>
        <time>2015-05-10T12:02:50Z</time>
      </trkpt>
      <trkpt lat="40.248450" lon="-4.887867">
        <ele>1228.0</ele>
        <time>2015-05-10T12:02:52Z</time>
      </trkpt>
      <trkpt lat="40.248567" lon="-4.887950">
        <ele>1231.0</ele>
        <time>2015-05-10T12:02:54Z</time>
      </trkpt>
      <trkpt lat="40.248700" lon="-4.887983">
        <ele>1232.0</ele>
        <time>2015-05-10T12:02:56Z</time>
      </trkpt>
      <trkpt lat="40.248850" lon="-4.888000">
        <ele>1236.0</ele>
        <time>2015-05-10T12:02:58Z</time>
      </trkpt>
      <trkpt lat="40.248983" lon="-4.888017">
        <ele>1243.0</ele>
        <time>2015-05-10T12:03:00Z</time>
      </trkpt>
      <trkpt lat="40.249083" lon="-4.888050">
        <ele>1248.0</ele>
        <time>2015-05-10T12:03:02Z</time>
      </trkpt>
      <trkpt lat="40.249183" lon="-4.888017">
        <ele>1251.0</ele>
        <time>2015-05-10T12:03:04Z</time>
      </trkpt>
      <trkpt lat="40.249233" lon="-4.887883">
        <ele>1254.0</ele>
        <time>2015-05-10T12:03:06Z</time>
      </trkpt>
      <trkpt lat="40.249267" lon="-4.887767">
        <ele>1261.0</ele>
        <time>2015-05-10T12:03:08Z</time>
      </trkpt>
      <trkpt lat="40.249233" lon="-4.887650">
        <ele>1266.0</ele>
        <time>2015-05-10T12:03:10Z</time>
      </trkpt>
      <trkpt lat="40.249150" lon="-4.887533">
        <ele>1269.0</ele>
        <time>2015-05-10T12:03:12Z</time>
      </trkpt>
      <trkpt lat="40.248983" lon="-4.887467">
        <ele>1273.0</ele>
        <time>2015-05-10T12:03:14Z</time>
      </trkpt>
      <trkpt lat="40.248800" lon="-4.887483">
        <ele>1279.0</ele>
        <time>2015-05-10T12:03:16Z</time>
      </trkpt>
      <trkpt lat="40.248600" lon="-4.887567">
        <ele>1283.0</ele>
        <time>2015-05-10T12:03:18Z</time>
      </trkpt>
      <trkpt lat="40.248400" lon="-4.887767">
        <ele>1285.0</ele>
        <time>2015-05-10T12:03:20Z</time>
      </trkpt>
      <trkpt lat="40.248233" lon="-4.888067">
        <ele>1290.0</ele>
        <time>2015-05-10T12:03:22Z</time>
      </trkpt>
      <trkpt lat="40.248133" lon="-4.888383">
        <ele>1295.0</ele>
        <time>2015-05-10T12:03:24Z</time>
      </trkpt>
      <trkpt lat="40.248083" lon="-4.888683">
        <ele>1298.0</ele>
        <time>2015-05-10T12:03:26Z</time>
      </trkpt>
      <trkpt lat="40.248133" lon="-4.889000">
        <ele>1299.0</ele>
        <time>2015-05-10T12:03:28Z</time>
      </trkpt>
      <trkpt lat="40.248233" lon="-4.889250">
        <ele>1303.0</ele>
        <time>2015-05-10T12:03:30Z</time>
      </trkpt>
      <trkpt lat="40.248333" lon="-4.889417">
        <ele>1307.0</ele>
        <time>2015-05-10T12:03:32Z</time>
      </trkpt>
      <trkpt lat="40.248450" lon="-4.889517">
        <ele>1309.0</ele>
        <time>2015-05-10T12:03:34Z</time>
      </trkpt>
      <trkpt lat="40.248567" lon="-4.889567">
        <ele>1313.0</ele>
        <time>2015-05-10T12:03:36Z</time>
      </trkpt>
      <trkpt lat="40.248667" lon="-4.889567">
        <ele>1318.0</ele>
        <time>2015-05-10T12:03:38Z</time>
      </trkpt>
      <trkpt lat="40.248750" lon="-4.889500">
        <ele>1321.0</ele>
        <time>2015-05-10T12:03:40Z</time>
      </trkpt>
      <trkpt lat="40.248800" lon="-4.889367">
        <ele>1325.0</ele>
        <time>2015-05-10T12:03:42Z</time>
      </trkpt>
      <trkpt lat="40.248800" lon="-4.889233">
        <ele>1329.0</ele>
        <time>2015-05-10T12:03:44Z</time>
      </trkpt>
      <trkpt lat="40.248817" lon="-4.889083">
        <ele>1330.0</ele>
        <time>2015-05-10T12:03:46Z</time>
      </trkpt>
      <trkpt lat="40.248833" lon="-4.888933">
        <ele>1335.0</ele>
        <time>2015-05-10T12:03:48Z</time>
      </trkpt>
      <trkpt lat="40.248750" lon="-4.888817">
        <ele>1342.0</ele>
        <time>2015-05-10T12:03:50Z</time>
      </trkpt>
      <trkpt lat="40.248633" lon="-4.888767">
        <ele>1347.0</ele>
        <time>2015-05-10T12:03:52Z</time>
      </trkpt>
      <trkpt lat="40.248483" lon="-4.888717">
        <ele>1349.0</ele>
        <time>2015-05-10T12:03:54Z</time>
      </trkpt>
      <trkpt lat="40.248283" lon="-4.888750">
        <ele>1353.0</ele>
        <time>2015-05-10T12:03:56Z</time>
      </trkpt>
      <trkpt lat="40.248100" lon="-4.888917">
        <ele>1356.0</ele>
        <time>2015-05-10T12:03:58Z</time>
      </trkpt>
      <trkpt lat="40.247933" lon="-4.889200">
        <ele>1357.0</ele>
        <time>2015-05-10T12:04:00Z</time>
      </trkpt>
      <trkpt lat="40.247850" lon="-4.889533">
        <ele>1360.0</ele>
        <time>2015-05-10T12:04:02Z</time>
      </trkpt>
      <trkpt lat="40.247833" lon="-4.889850">
        <ele>1366.0</ele>
        <time>2015-05-10T12:04:04Z</time>
      </trkpt>
      <trkpt lat="40.247883" lon="-4.890083">
        <ele>1370.0</ele>
        <time>2015-05-10T12:04:06Z</time>
      </trkpt>
      <trkpt lat="40.248000" lon="-4.890267">
        <ele>1373.0</ele>
        <time>2015-05-10T12:04:08Z</time>
      </trkpt>
      <trkpt lat="40.248133" lon="-4.890350">
        <ele>1377.0</ele>
        <time>2015-05-10T12:04:10Z</time>
      </trkpt>
      <trkpt lat="40.248217" lon="-4.890300">
        <ele>1379.0</ele>
        <time>2015-05-10T12:04:12Z</time>
      </trkpt>
      <trkpt lat="40.248267" lon="-4.890150">
        <ele>1381.0</ele>
        <time>2015-05-10T12:04:14Z</time>
      </trkpt>
      <trkpt lat="40.248267" lon="-4.889967">
        <ele>1384.0</ele>
        <time>2015-05-10T12:04:16Z</time>
      </trkpt>
      <trkpt lat="40.248267" lon="-4.889833">
        <ele>1390.0</ele>
        <time>2015-05-10T12:04:18Z</time>
      </trkpt>
      <trkpt lat="40.248233" lon="-4.889717">
        <ele>1394.0</ele>
        <time>2015-05-10T12:04:20Z</time>
      </trkpt>
      <trkpt lat="40.248083" lon="-4.889633">
        <ele>1394.0</ele>
        <time>2015-05-10T12:04:22Z</time>
      </trkpt>
      <trkpt lat="40.247900" lon="-4.889650">
        <ele>1396.0</ele>
        <time>2015-05-10T12:04:24Z</time>
      </trkpt>
      <trkpt lat="40.247733" lon="-4.889750">
        <ele>1395.0</ele>
        <time>2015-05-10T12:04:26Z</time>
      </trkpt>
      <trkpt lat="40.247533" lon="-4.889883">
        <ele>1390.0</ele>
        <time>2015-05-10T12:04:28Z</time>
      </trkpt>
      <trkpt lat="40.247300" lon="-4.890033">
        <ele>1386.0</ele>
        <time>2015-05-10T12:04:30Z</time>
      </trkpt>
      <trkpt lat="40.247083" lon="-4.890217">
        <ele>1385.0</ele>
        <time>2015-05-10T12:04:32Z</time>
      </trkpt>
      <trkpt lat="40.246867" lon="-4.890417">
        <ele>1385.0</ele>
        <time>2015-05-10T12:04:34Z</time>
      </trkpt>
      <trkpt lat="40.246650" lon="-4.890633">
        <ele>1387.0</ele>
        <time>2015-05-10T12:04:36Z</time>
      </trkpt>
      <trkpt lat="40.246500" lon="-4.890917">
        <ele>1388.0</ele>
        <time>2015-05-10T12:04:38Z</time>
      </trkpt>
      <trkpt lat="40.246483" lon="-4.891267">
        <ele>1387.0</ele>
        <time>2015-05-10T12:04:40Z</time>
      </trkpt>
      <trkpt lat="40.246600" lon="-4.891483">
        <ele>1388.0</ele>
        <time>2015-05-10T12:04:42Z</time>
      </trkpt>
      <trkpt lat="40.246733" lon="-4.891633">
        <ele>1391.0</ele>
        <time>2015-05-10T12:04:44Z</time>
      </trkpt>
      <trkpt lat="40.246867" lon="-4.891783">
        <ele>1392.0</ele>
        <time>2015-05-10T12:04:46Z</time>
      </trkpt>
      <trkpt lat="40.246983" lon="-4.891933">
        <ele>1393.0</ele>
        <time>2015-05-10T12:04:48Z</time>
      </trkpt>
      <trkpt lat="40.247117" lon="-4.892017">
        <ele>1397.0</ele>
        <time>2015-05-10T12:04:50Z</time>
      </trkpt>
      <trkpt lat="40.247233" lon="-4.892067">
        <ele>1399.0</ele>
        <time>2015-05-10T12:04:52Z</time>
      </trkpt>
      <trkpt lat="40.247350" lon="-4.892167">
        <ele>1398.0</ele>
        <time>2015-05-10T12:04:54Z</time>
      </trkpt>
      <trkpt lat="40.247467" lon="-4.892267">
        <ele>1399.0</ele>
        <time>2015-05-10T12:04:56Z</time>
      </trkpt>
      <trkpt lat="40.247567" lon="-4.892333">
        <ele>1398.0</ele>
        <time>2015-05-10T12:04:58Z</time>
      </trkpt>
      <trkpt lat="40.247700" lon="-4.892350">
        <ele>1396.0</ele>
        <time>2015-05-10T12:05:00Z</time>
      </trkpt>
      <trkpt lat="40.247817" lon="-4.892333">
        <ele>1393.0</ele>
        <time>2015-05-10T12:05:02Z</time>
      </trkpt>
      <trkpt lat="40.247950" lon="-4.892283">
        <ele>1392.0</ele>
        <time>2015-05-10T12:05:04Z</time>
      </trkpt>
      <trkpt lat="40.248033" lon="-4.892167">
        <ele>1392.0</ele>
        <time>2015-05-10T12:05:06Z</time>
      </trkpt>
      <trkpt lat="40.248100" lon="-4.892050">
        <ele>1394.0</ele>
        <time>2015-05-10T12:05:08Z</time>
      </trkpt>
      <trkpt lat="40.248117" lon="-4.891933">
        <ele>1398.0</ele>
        <time>2015-05-10T12:05:10Z</time>
      </trkpt>
      <trkpt lat="40.248050" lon="-4.891817">
        <ele>1397.0</ele>
        <time>2015-05-10T12:05:12Z</time>
      </trkpt>
      <trkpt lat="40.247967" lon="-4.891700">
        <ele>1398.0</ele>
        <time>2015-05-10T12:05:14Z</time>
      </trkpt>
      <trkpt lat="40.247817" lon="-4.891633">
        <ele>1402.0</ele>
        <time>2015-05-10T12:05:16Z</time>
      </trkpt>
      <trkpt lat="40.247633" lon="-4.891650">
        <ele>1402.0</ele>
        <time>2015-05-10T12:05:18Z</time>
      </trkpt>
      <trkpt lat="40.247433" lon="-4.891667">
        <ele>1401.0</ele>
        <time>2015-05-10T12:05:20Z</time>
      </trkpt>
      <trkpt lat="40.247233" lon="-4.891733">
        <ele>1399.0</ele>
        <time>2015-05-10T12:05:22Z</time>
      </trkpt>
      <trkpt lat="40.246983" lon="-4.891850">
        <ele>1398.0</ele>
        <time>2015-05-10T12:05:24Z</time>
      </trkpt>
      <trkpt lat="40.246767" lon="-4.891967">
        <ele>1399.0</ele>
        <time>2015-05-10T12:05:26Z</time>
      </trkpt>
      <trkpt lat="40.246550" lon="-4.892200">
        <ele>1399.0</ele>
        <time>2015-05-10T12:05:28Z</time>
      </trkpt>
      <trkpt lat="40.246400" lon="-4.892483">
        <ele>1401.0</ele>
        <time>2015-05-10T12:05:30Z</time>
      </trkpt>
      <trkpt lat="40.246317" lon="-4.892767">
        <ele>1404.0</ele>
        <time>2015-05-10T12:05:32Z</time>
      </trkpt>
      <trkpt lat="40.246317" lon="-4.893033">
        <ele>1404.0</ele>
        <time>2015-05-10T12:05:34Z</time>
      </trkpt>
      <trkpt lat="40.246383" lon="-4.893283">
        <ele>1401.0</ele>
        <time>2015-05-10T12:05:36Z</time>
      </trkpt>
      <trkpt lat="40.246467" lon="-4.893500">
        <ele>1401.0</ele>
        <time>2015-05-10T12:05:38Z</time>
      </trkpt>
      <trkpt lat="40.246550" lon="-4.893600">
        <ele>1400.0</ele>
        <time>2015-05-10T12:05:40Z</time>
      </trkpt>
      <trkpt lat="40.246700" lon="-4.893633">
        <ele>1395.0</ele>
        <time>2015-05-10T12:05:42Z</time>
      </trkpt>
      <trkpt lat="40.246850" lon="-4.893700">
        <ele>1392.0</ele>
        <time>2015-05-10T12:05:44Z</time>
      </trkpt>
      <trkpt lat="40.246983" lon="-4.893767">
        <ele>1392.0</ele>
        <time>2015-05-10T12:05:46Z</time>
      </trkpt>
      <trkpt lat="40.247100" lon="-4.893817">
        <ele>1390.0</ele>
        <time>2015-05-10T12:05:48Z</time>
      </trkpt>
      <trkpt lat="40.247217" lon="-4.893833">
        <ele>1387.0</ele>
        <time>2015-05-10T12:05:50Z</time>
      </trkpt>
      <trkpt lat="40.247350" lon="-4.893867">
        <ele>1384.0</ele>
        <time>2015-05-10T12:05:52Z</time>
      </trkpt>
      <trkpt lat="40.247517" lon="-4.893900">
        <ele>1379.0</ele>
        <time>2015-05-10T12:05:54Z</time>
      </trkpt>
      <trkpt lat="40.247683" lon="-4.894000">
        <ele>1378.0</ele>
        <time>2015-05-10T12:05:56Z</time>
      </trkpt>
      <trkpt lat="40.247833" lon="-4.894117">
        <ele>1380.0</ele>
        <time>2015-05-10T12:05:58Z</time>
      </trkpt>
      <trkpt lat="40.247967" lon="-4.894267">
        <ele>1382.0</ele>
        <time>2015-05-10T12:06:00Z</time>
      </trkpt>
      <trkpt lat="40.248067" lon="-4.894483">
        <ele>1382.0</ele>
        <time>2015-05-10T12:06:02Z</time>
      </trkpt>
      <trkpt lat="40.248150" lon="-4.894733">
        <ele>1382.0</ele>
        <time>2015-05-10T12:06:04Z</time>
      </trkpt>
      <trkpt lat="40.248233" lon="-4.895000">
        <ele>1382.0</ele>
        <time>2015-05-10T12:06:06Z</time>
      </trkpt>
      <trkpt lat="40.248317" lon="-4.895267">
        <ele>1384.0</ele>
        <time>2015-05-10T12:06:08Z</time>
      </trkpt>
      <trkpt lat="40.248400" lon="-4.895467">
        <ele>1389.0</ele>
        <time>2015-05-10T12:06:10Z</time>
      </trkpt>
      <trkpt lat="40.248500" lon="-4.895617">
        <ele>1392.0</ele>
        <time>2015-05-10T12:06:12Z</time>
      </trkpt>
      <trkpt lat="40.248617" lon="-4.895633">
        <ele>1394.0</ele>
        <time>2015-05-10T12:06:14Z</time>
      </trkpt>
      <trkpt lat="40.248700" lon="-4.895517">
        <ele>1394.0</ele>
        <time>2015-05-10T12:06:16Z</time>
      </trkpt>
      <trkpt lat="40.248717" lon="-4.895333">
        <ele>1399.0</ele>
        <time>2015-05-10T12:06:18Z</time>
      </trkpt>
      <trkpt lat="40.248667" lon="-4.895250">
        <ele>1403.0</ele>
        <time>2015-05-10T12:06:20Z</time>
      </trkpt>
      <trkpt lat="40.248550" lon="-4.895150">
        <ele>1403.0</ele>
        <time>2015-05-10T12:06:22Z</time>
      </trkpt>
      <trkpt lat="40.248367" lon="-4.895133">
        <ele>1402.0</ele>
        <time>2015-05-10T12:06:24Z</time>
      </trkpt>
      <trkpt lat="40.248150" lon="-4.895300">
        <ele>1402.0</ele>
        <time>2015-05-10T12:06:26Z</time>
      </trkpt>
      <trkpt lat="40.248017" lon="-4.895533">
        <ele>1402.0</ele>
        <time>2015-05-10T12:06:28Z</time>
      </trkpt>
      <trkpt lat="40.247950" lon="-4.895833">
        <ele>1401.0</ele>
        <time>2015-05-10T12:06:30Z</time>
      </trkpt>
      <trkpt lat="40.248000" lon="-4.896150">
        <ele>1401.0</ele>
        <time>2015-05-10T12:06:32Z</time>
      </trkpt>
      <trkpt lat="40.248067" lon="-4.896400">
        <ele>1405.0</ele>
        <time>2015-05-10T12:06:34Z</time>
      </trkpt>
      <trkpt lat="40.248133" lon="-4.896600">
        <ele>1407.0</ele>
        <time>2015-05-10T12:06:36Z</time>
      </trkpt>
      <trkpt lat="40.248233" lon="-4.896800">
        <ele>1408.0</ele>
        <time>2015-05-10T12:06:38Z</time>
      </trkpt>
      <trkpt lat="40.248367" lon="-4.896933">
        <ele>1408.0</ele>
        <time>2015-05-10T12:06:40Z</time>
      </trkpt>
      <trkpt lat="40.248500" lon="-4.897017">
        <ele>1410.0</ele>
        <time>2015-05-10T12:06:42Z</time>
      </trkpt>
      <trkpt lat="40.248617" lon="-4.897050">
        <ele>1412.0</ele>
        <time>2015-05-10T12:06:44Z</time>
      </trkpt>
      <trkpt lat="40.248733" lon="-4.897050">
        <ele>1414.0</ele>
        <time>2015-05-10T12:06:46Z</time>
      </trkpt>
      <trkpt lat="40.248850" lon="-4.897017">
        <ele>1415.0</ele>
        <time>2015-05-10T12:06:48Z</time>
      </trkpt>
      <trkpt lat="40.248950" lon="-4.896883">
        <ele>1416.0</ele>
        <time>2015-05-10T12:06:50Z</time>
      </trkpt>
      <trkpt lat="40.249017" lon="-4.896733">
        <ele>1421.0</ele>
        <time>2015-05-10T12:06:52Z</time>
      </trkpt>
      <trkpt lat="40.249050" lon="-4.896600">
        <ele>1427.0</ele>
        <time>2015-05-10T12:06:54Z</time>
      </trkpt>
      <trkpt lat="40.248983" lon="-4.896450">
        <ele>1430.0</ele>
        <time>2015-05-10T12:06:56Z</time>
      </trkpt>
      <trkpt lat="40.248850" lon="-4.896333">
        <ele>1436.0</ele>
        <time>2015-05-10T12:06:58Z</time>
      </trkpt>
      <trkpt lat="40.248683" lon="-4.896317">
        <ele>1442.0</ele>
        <time>2015-05-10T12:07:00Z</time>
      </trkpt>
      <trkpt lat="40.248500" lon="-4.896367">
        <ele>1444.0</ele>
        <time>2015-05-10T12:07:02Z</time>
      </trkpt>
      <trkpt lat="40.248317" lon="-4.896533">
        <ele>1445.0</ele>
        <time>2015-05-10T12:07:04Z</time>
      </trkpt>
      <trkpt lat="40.248183" lon="-4.896800">
        <ele>1448.0</ele>
        <time>2015-05-10T12:07:06Z</time>
      </trkpt>
      <trkpt lat="40.248167" lon="-4.897100">
        <ele>1450.0</ele>
        <time>2015-05-10T12:07:08Z</time>
      </trkpt>
      <trkpt lat="40.248233" lon="-4.897383">
        <ele>1450.0</ele>
        <time>2015-05-10T12:07:10Z</time>
      </trkpt>
      <trkpt lat="40.248350" lon="-4.897600">
        <ele>1450.0</ele>
        <time>2015-05-10T12:07:12Z</time>
      </trkpt>
      <trkpt lat="40.248517" lon="-4.897750">
        <ele>1451.0</ele>
        <time>2015-05-10T12:07:14Z</time>
      </trkpt>
      <trkpt lat="40.248667" lon="-4.897833">
        <ele>1454.0</ele>
        <time>2015-05-10T12:07:16Z</time>
      </trkpt>
      <trkpt lat="40.248800" lon="-4.897850">
        <ele>1455.0</ele>
        <time>2015-05-10T12:07:18Z</time>
      </trkpt>
      <trkpt lat="40.248950" lon="-4.897767">
        <ele>1458.0</ele>
        <time>2015-05-10T12:07:20Z</time>
      </trkpt>
      <trkpt lat="40.249050" lon="-4.897683">
        <ele>1463.0</ele>
        <time>2015-05-10T12:07:22Z</time>
      </trkpt>
      <trkpt lat="40.249083" lon="-4.897533">
        <ele>1465.0</ele>
        <time>2015-05-10T12:07:24Z</time>
      </trkpt>
      <trkpt lat="40.249050" lon="-4.897350">
        <ele>1468.0</ele>
        <time>2015-05-10T12:07:26Z</time>
      </trkpt>
      <trkpt lat="40.248983" lon="-4.897183">
        <ele>1474.0</ele>
        <time>2015-05-10T12:07:28Z</time>
      </trkpt>
      <trkpt lat="40.248850" lon="-4.897117">
        <ele>1478.0</ele>
        <time>2015-05-10T12:07:30Z</time>
      </trkpt>
      <trkpt lat="40.248667" lon="-4.897117">
        <ele>1482.0</ele>
        <time>2015-05-10T12:07:32Z</time>
      </trkpt>
      <trkpt lat="40.248483" lon="-4.897217">
        <ele>1487.0</ele>
        <time>2015-05-10T12:07:34Z</time>
      </trkpt>
      <trkpt lat="40.248333" lon="-4.897417">
        <ele>1489.0</ele>
        <time>2015-05-10T12:07:36Z</time>
      </trkpt>
      <trkpt lat="40.248233" lon="-4.897717">
        <ele>1490.0</ele>
        <time>2015-05-10T12:07:38Z</time>
      </trkpt>
      <trkpt lat="40.248233" lon="-4.898000">
        <ele>1491.0</ele>
        <time>2015-05-10T12:07:40Z</time>
      </trkpt>
      <trkpt lat="40.248350" lon="-4.898250">
        <ele>1494.0</ele>
        <time>2015-05-10T12:07:42Z</time>
      </trkpt>
      <trkpt lat="40.248483" lon="-4.898383">
        <ele>1497.0</ele>
        <time>2015-05-10T12:07:44Z</time>
      </trkpt>
      <trkpt lat="40.248617" lon="-4.898417">
        <ele>1499.0</ele>
        <time>2015-05-10T12:07:46Z</time>
      </trkpt>
      <trkpt lat="40.248733" lon="-4.898367">
        <ele>1501.0</ele>
        <time>2015-05-10T12:07:48Z</time>
      </trkpt>
      <trkpt lat="40.248800" lon="-4.898217">
        <ele>1502.0</ele>
        <time>2015-05-10T12:07:50Z</time>
      </trkpt>
      <trkpt lat="40.248833" lon="-4.898067">
        <ele>1505.0</ele>
        <time>2015-05-10T12:07:52Z</time>
      </trkpt>
      <trkpt lat="40.248850" lon="-4.897900">
        <ele>1508.0</ele>
        <time>2015-05-10T12:07:54Z</time>
      </trkpt>
      <trkpt lat="40.248800" lon="-4.897750">
        <ele>1510.0</ele>
        <time>2015-05-10T12:07:56Z</time>
      </trkpt>
      <trkpt lat="40.248717" lon="-4.897583">
        <ele>1514.0</ele>
        <time>2015-05-10T12:07:58Z</time>
      </trkpt>
      <trkpt lat="40.248617" lon="-4.897467">
        <ele>1520.0</ele>
        <time>2015-05-10T12:08:00Z</time>
      </trkpt>
      <trkpt lat="40.248483" lon="-4.897433">
        <ele>1521.0</ele>
        <time>2015-05-10T12:08:02Z</time>
      </trkpt>
      <trkpt lat="40.248250" lon="-4.897450">
        <ele>1520.0</ele>
        <time>2015-05-10T12:08:04Z</time>
      </trkpt>
      <trkpt lat="40.248050" lon="-4.897617">
        <ele>1526.0</ele>
        <time>2015-05-10T12:08:06Z</time>
      </trkpt>
      <trkpt lat="40.247950" lon="-4.897833">
        <ele>1530.0</ele>
        <time>2015-05-10T12:08:08Z</time>
      </trkpt>
      <trkpt lat="40.247900" lon="-4.898100">
        <ele>1529.0</ele>
        <time>2015-05-10T12:08:10Z</time>
      </trkpt>
      <trkpt lat="40.247950" lon="-4.898417">
        <ele>1530.0</ele>
        <time>2015-05-10T12:08:12Z</time>
      </trkpt>
      <trkpt lat="40.248100" lon="-4.898617">
        <ele>1532.0</ele>
        <time>2015-05-10T12:08:14Z</time>
      </trkpt>
      <trkpt lat="40.248250" lon="-4.898700">
        <ele>1536.0</ele>
        <time>2015-05-10T12:08:16Z</time>
      </trkpt>
      <trkpt lat="40.248383" lon="-4.898717">
        <ele>1539.0</ele>
        <time>2015-05-10T12:08:18Z</time>
      </trkpt>
      <trkpt lat="40.248500" lon="-4.898650">
        <ele>1538.0</ele>
        <time>2015-05-10T12:08:20Z</time>
      </trkpt>
      <trkpt lat="40.248583" lon="-4.898483">
        <ele>1540.0</ele>
        <time>2015-05-10T12:08:22Z</time>
      </trkpt>
      <trkpt lat="40.248617" lon="-4.898300">
        <ele>1546.0</ele>
        <time>2015-05-10T12:08:24Z</time>
      </trkpt>
      <trkpt lat="40.248617" lon="-4.898167">
        <ele>1551.0</ele>
        <time>2015-05-10T12:08:26Z</time>
      </trkpt>
      <trkpt lat="40.248600" lon="-4.898017">
        <ele>1551.0</ele>
        <time>2015-05-10T12:08:28Z</time>
      </trkpt>
      <trkpt lat="40.248533" lon="-4.897833">
        <ele>1551.0</ele>
        <time>2015-05-10T12:08:30Z</time>
      </trkpt>
      <trkpt lat="40.248400" lon="-4.897683">
        <ele>1554.0</ele>
        <time>2015-05-10T12:08:32Z</time>
      </trkpt>
      <trkpt lat="40.248233" lon="-4.897600">
        <ele>1557.0</ele>
        <time>2015-05-10T12:08:34Z</time>
      </trkpt>
      <trkpt lat="40.248033" lon="-4.897617">
        <ele>1560.0</ele>
        <time>2015-05-10T12:08:36Z</time>
      </trkpt>
      <trkpt lat="40.247850" lon="-4.897733">
        <ele>1561.0</ele>
        <time>2015-05-10T12:08:38Z</time>
      </trkpt>
      <trkpt lat="40.247683" lon="-4.897950">
        <ele>1560.0</ele>
        <time>2015-05-10T12:08:40Z</time>
      </trkpt>
      <trkpt lat="40.247617" lon="-4.898250">
        <ele>1560.0</ele>
        <time>2015-05-10T12:08:42Z</time>
      </trkpt>
      <trkpt lat="40.247617" lon="-4.898533">
        <ele>1562.0</ele>
        <time>2015-05-10T12:08:44Z</time>
      </trkpt>
      <trkpt lat="40.247667" lon="-4.898767">
        <ele>1562.0</ele>
        <time>2015-05-10T12:08:46Z</time>
      </trkpt>
      <trkpt lat="40.247783" lon="-4.899000">
        <ele>1561.0</ele>
        <time>2015-05-10T12:08:48Z</time>
      </trkpt>
      <trkpt lat="40.247883" lon="-4.899250">
        <ele>1564.0</ele>
        <time>2015-05-10T12:08:50Z</time>
      </trkpt>
      <trkpt lat="40.247967" lon="-4.899500">
        <ele>1567.0</ele>
        <time>2015-05-10T12:08:52Z</time>
      </trkpt>
      <trkpt lat="40.248067" lon="-4.899733">
        <ele>1570.0</ele>
        <time>2015-05-10T12:08:54Z</time>
      </trkpt>
      <trkpt lat="40.248183" lon="-4.899850">
        <ele>1573.0</ele>
        <time>2015-05-10T12:08:56Z</time>
      </trkpt>
      <trkpt lat="40.248317" lon="-4.899867">
        <ele>1575.0</ele>
        <time>2015-05-10T12:08:58Z</time>
      </trkpt>
      <trkpt lat="40.248450" lon="-4.899817">
        <ele>1578.0</ele>
        <time>2015-05-10T12:09:00Z</time>
      </trkpt>
      <trkpt lat="40.248517" lon="-4.899733">
        <ele>1581.0</ele>
        <time>2015-05-10T12:09:02Z</time>
      </trkpt>
      <trkpt lat="40.248533" lon="-4.899550">
        <ele>1583.0</ele>
        <time>2015-05-10T12:09:04Z</time>
      </trkpt>
      <trkpt lat="40.248483" lon="-4.899400">
        <ele>1586.0</ele>
        <time>2015-05-10T12:09:06Z</time>
      </trkpt>
      <trkpt lat="40.248350" lon="-4.899267">
        <ele>1585.0</ele>
        <time>2015-05-10T12:09:08Z</time>
      </trkpt>
      <trkpt lat="40.248150" lon="-4.899150">
        <ele>1587.0</ele>
        <time>2015-05-10T12:09:10Z</time>
      </trkpt>
      <trkpt lat="40.247933" lon="-4.899167">
        <ele>1589.0</ele>
        <time>2015-05-10T12:09:12Z</time>
      </trkpt>
      <trkpt lat="40.247733" lon="-4.899300">
        <ele>1592.0</ele>
        <time>2015-05-10T12:09:14Z</time>
      </trkpt>
      <trkpt lat="40.247567" lon="-4.899500">
        <ele>1594.0</ele>
        <time>2015-05-10T12:09:16Z</time>
      </trkpt>
      <trkpt lat="40.247467" lon="-4.899733">
        <ele>1595.0</ele>
        <time>2015-05-10T12:09:18Z</time>
      </trkpt>
      <trkpt lat="40.247467" lon="-4.900017">
        <ele>1593.0</ele>
        <time>2015-05-10T12:09:20Z</time>
      </trkpt>
      <trkpt lat="40.247550" lon="-4.900250">
        <ele>1594.0</ele>
        <time>2015-05-10T12:09:22Z</time>
      </trkpt>
      <trkpt lat="40.247683" lon="-4.900417">
        <ele>1597.0</ele>
        <time>2015-05-10T12:09:24Z</time>
      </trkpt>
      <trkpt lat="40.247817" lon="-4.900533">
        <ele>1597.0</ele>
        <time>2015-05-10T12:09:26Z</time>
      </trkpt>
      <trkpt lat="40.248000" lon="-4.900667">
        <ele>1595.0</ele>
        <time>2015-05-10T12:09:28Z</time>
      </trkpt>
      <trkpt lat="40.248183" lon="-4.900783">
        <ele>1598.0</ele>
        <time>2015-05-10T12:09:30Z</time>
      </trkpt>
      <trkpt lat="40.248333" lon="-4.900883">
        <ele>1601.0</ele>
        <time>2015-05-10T12:09:32Z</time>
      </trkpt>
      <trkpt lat="40.248483" lon="-4.900917">
        <ele>1604.0</ele>
        <time>2015-05-10T12:09:34Z</time>
      </trkpt>
      <trkpt lat="40.248600" lon="-4.900867">
        <ele>1608.0</ele>
        <time>2015-05-10T12:09:36Z</time>
      </trkpt>
      <trkpt lat="40.248667" lon="-4.900783">
        <ele>1609.0</ele>
        <time>2015-05-10T12:09:38Z</time>
      </trkpt>
      <trkpt lat="40.248700" lon="-4.900633">
        <ele>1607.0</ele>
        <time>2015-05-10T12:09:40Z</time>
      </trkpt>
      <trkpt lat="40.248700" lon="-4.900500">
        <ele>1604.0</ele>
        <time>2015-05-10T12:09:42Z</time>
      </trkpt>
      <trkpt lat="40.248667" lon="-4.900367">
        <ele>1601.0</ele>
        <time>2015-05-10T12:09:44Z</time>
      </trkpt>
      <trkpt lat="40.248583" lon="-4.900217">
        <ele>1598.0</ele>
        <time>2015-05-10T12:09:46Z</time>
      </trkpt>
      <trkpt lat="40.248467" lon="-4.900067">
        <ele>1596.0</ele>
        <time>2015-05-10T12:09:48Z</time>
      </trkpt>
      <trkpt lat="40.248333" lon="-4.899933">
        <ele>1596.0</ele>
        <time>2015-05-10T12:09:50Z</time>
      </trkpt>
      <trkpt lat="40.248183" lon="-4.899817">
        <ele>1594.0</ele>
        <time>2015-05-10T12:09:52Z</time>
      </trkpt>
      <trkpt lat="40.248050" lon="-4.899650">
        <ele>1592.0</ele>
        <time>2015-05-10T12:09:54Z</time>
      </trkpt>
      <trkpt lat="40.247933" lon="-4.899500">
        <ele>1592.0</ele>
        <time>2015-05-10T12:09:56Z</time>
      </trkpt>
      <trkpt lat="40.247767" lon="-4.899433">
        <ele>1587.0</ele>
        <time>2015-05-10T12:09:58Z</time>
      </trkpt>
      <trkpt lat="40.247550" lon="-4.899417">
        <ele>1579.0</ele>
        <time>2015-05-10T12:10:00Z</time>
      </trkpt>
      <trkpt lat="40.247333" lon="-4.899450">
        <ele>1576.0</ele>
        <time>2015-05-10T12:10:02Z</time>
      </trkpt>
      <trkpt lat="40.247150" lon="-4.899533">
        <ele>1573.0</ele>
        <time>2015-05-10T12:10:04Z</time>
      </trkpt>
      <trkpt lat="40.246983" lon="-4.899667">
        <ele>1566.0</ele>
        <time>2015-05-10T12:10:06Z</time>
      </trkpt>
      <trkpt lat="40.246800" lon="-4.899833">
        <ele>1560.0</ele>
        <time>2015-05-10T12:10:08Z</time>
      </trkpt>
      <trkpt lat="40.246667" lon="-4.900067">
        <ele>1556.0</ele>
        <time>2015-05-10T12:10:10Z</time>
      </trkpt>
      <trkpt lat="40.246633" lon="-4.900350">
        <ele>1550.0</ele>
        <time>2015-05-10T12:10:12Z</time>
      </trkpt>
      <trkpt lat="40.246683" lon="-4.900617">
        <ele>1546.0</ele>
        <time>2015-05-10T12:10:14Z</time>
      </trkpt>
      <trkpt lat="40.246800" lon="-4.900817">
        <ele>1543.0</ele>
        <time>2015-05-10T12:10:16Z</time>
      </trkpt>
      <trkpt lat="40.246933" lon="-4.900917">
        <ele>1542.0</ele>
        <time>2015-05-10T12:10:18Z</time>
      </trkpt>
      <trkpt lat="40.247050" lon="-4.901017">
        <ele>1541.0</ele>
        <time>2015-05-10T12:10:20Z</time>
      </trkpt>
      <trkpt lat="40.247183" lon="-4.901117">
        <ele>1538.0</ele>
        <time>2015-05-10T12:10:22Z</time>
      </trkpt>
      <trkpt lat="40.247333" lon="-4.901183">
        <ele>1536.0</ele>
        <time>2015-05-10T12:10:24Z</time>
      </trkpt>
      <trkpt lat="40.247467" lon="-4.901233">
        <ele>1536.0</ele>
        <time>2015-05-10T12:10:26Z</time>
      </trkpt>
      <trkpt lat="40.247600" lon="-4.901267">
        <ele>1533.0</ele>
        <time>2015-05-10T12:10:28Z</time>
      </trkpt>
      <trkpt lat="40.247767" lon="-4.901333">
        <ele>1528.0</ele>
        <time>2015-05-10T12:10:30Z</time>
      </trkpt>
      <trkpt lat="40.247917" lon="-4.901400">
        <ele>1529.0</ele>
        <time>2015-05-10T12:10:32Z</time>
      </trkpt>
      <trkpt lat="40.248050" lon="-4.901433">
        <ele>1530.0</ele>
        <time>2015-05-10T12:10:34Z</time>
      </trkpt>
      <trkpt lat="40.248200" lon="-4.901483">
        <ele>1527.0</ele>
        <time>2015-05-10T12:10:36Z</time>
      </trkpt>
      <trkpt lat="40.248367" lon="-4.901533">
        <ele>1526.0</ele>
        <time>2015-05-10T12:10:38Z</time>
      </trkpt>
      <trkpt lat="40.248500" lon="-4.901517">
        <ele>1525.0</ele>
        <time>2015-05-10T12:10:40Z</time>
      </trkpt>
      <trkpt lat="40.248633" lon="-4.901517">
        <ele>1525.0</ele>
        <time>2015-05-10T12:10:42Z</time>
      </trkpt>
      <trkpt lat="40.248750" lon="-4.901467">
        <ele>1524.0</ele>
        <time>2015-05-10T12:10:44Z</time>
      </trkpt>
      <trkpt lat="40.248867" lon="-4.901383">
        <ele>1521.0</ele>
        <time>2015-05-10T12:10:46Z</time>
      </trkpt>
      <trkpt lat="40.249000" lon="-4.901317">
        <ele>1520.0</ele>
        <time>2015-05-10T12:10:48Z</time>
      </trkpt>
      <trkpt lat="40.249117" lon="-4.901317">
        <ele>1519.0</ele>
        <time>2015-05-10T12:10:50Z</time>
      </trkpt>
      <trkpt lat="40.249267" lon="-4.901333">
        <ele>1516.0</ele>
        <time>2015-05-10T12:10:52Z</time>
      </trkpt>
      <trkpt lat="40.249433" lon="-4.901400">
        <ele>1516.0</ele>
        <time>2015-05-10T12:10:54Z</time>
      </trkpt>
      <trkpt lat="40.249567" lon="-4.901500">
        <ele>1518.0</ele>
        <time>2015-05-10T12:10:56Z</time>
      </trkpt>
      <trkpt lat="40.249700" lon="-4.901600">
        <ele>1519.0</ele>
        <time>2015-05-10T12:10:58Z</time>
      </trkpt>
      <trkpt lat="40.249833" lon="-4.901767">
        <ele>1520.0</ele>
        <time>2015-05-10T12:11:00Z</time>
      </trkpt>
      <trkpt lat="40.249883" lon="-4.901983">
        <ele>1526.0</ele>
        <time>2015-05-10T12:11:02Z</time>
      </trkpt>
      <trkpt lat="40.249833" lon="-4.902250">
        <ele>1528.0</ele>
        <time>2015-05-10T12:11:04Z</time>
      </trkpt>
      <trkpt lat="40.249817" lon="-4.902533">
        <ele>1531.0</ele>
        <time>2015-05-10T12:11:06Z</time>
      </trkpt>
      <trkpt lat="40.249883" lon="-4.902783">
        <ele>1536.0</ele>
        <time>2015-05-10T12:11:08Z</time>
      </trkpt>
      <trkpt lat="40.249950" lon="-4.902967">
        <ele>1540.0</ele>
        <time>2015-05-10T12:11:10Z</time>
      </trkpt>
      <trkpt lat="40.250050" lon="-4.903133">
        <ele>1539.0</ele>
        <time>2015-05-10T12:11:12Z</time>
      </trkpt>
      <trkpt lat="40.250150" lon="-4.903383">
        <ele>1537.0</ele>
        <time>2015-05-10T12:11:14Z</time>
      </trkpt>
      <trkpt lat="40.250250" lon="-4.903583">
        <ele>1541.0</ele>
        <time>2015-05-10T12:11:16Z</time>
      </trkpt>
      <trkpt lat="40.250367" lon="-4.903650">
        <ele>1539.0</ele>
        <time>2015-05-10T12:11:18Z</time>
      </trkpt>
      <trkpt lat="40.250500" lon="-4.903633">
        <ele>1536.0</ele>
        <time>2015-05-10T12:11:20Z</time>
      </trkpt>
      <trkpt lat="40.250600" lon="-4.903617">
        <ele>1540.0</ele>
        <time>2015-05-10T12:11:22Z</time>
      </trkpt>
      <trkpt lat="40.250617" lon="-4.903517">
        <ele>1539.0</ele>
        <time>2015-05-10T12:11:24Z</time>
      </trkpt>
      <trkpt lat="40.250633" lon="-4.903367">
        <ele>1539.0</ele>
        <time>2015-05-10T12:11:26Z</time>
      </trkpt>
      <trkpt lat="40.250583" lon="-4.903217">
        <ele>1540.0</ele>
        <time>2015-05-10T12:11:28Z</time>
      </trkpt>
      <trkpt lat="40.250433" lon="-4.903117">
        <ele>1541.0</ele>
        <time>2015-05-10T12:11:30Z</time>
      </trkpt>
      <trkpt lat="40.250250" lon="-4.903083">
        <ele>1542.0</ele>
        <time>2015-05-10T12:11:32Z</time>
      </trkpt>
      <trkpt lat="40.250033" lon="-4.903067">
        <ele>1542.0</ele>
        <time>2015-05-10T12:11:34Z</time>
      </trkpt>
      <trkpt lat="40.249800" lon="-4.903167">
        <ele>1541.0</ele>
        <time>2015-05-10T12:11:36Z</time>
      </trkpt>
      <trkpt lat="40.249617" lon="-4.903417">
        <ele>1542.0</ele>
        <time>2015-05-10T12:11:38Z</time>
      </trkpt>
      <trkpt lat="40.249517" lon="-4.903667">
        <ele>1546.0</ele>
        <time>2015-05-10T12:11:40Z</time>
      </trkpt>
      <trkpt lat="40.249467" lon="-4.903917">
        <ele>1547.0</ele>
        <time>2015-05-10T12:11:42Z</time>
      </trkpt>
      <trkpt lat="40.249533" lon="-4.904200">
        <ele>1546.0</ele>
        <time>2015-05-10T12:11:44Z</time>
      </trkpt>
      <trkpt lat="40.249650" lon="-4.904383">
        <ele>1549.0</ele>
        <time>2015-05-10T12:11:46Z</time>
      </trkpt>
      <trkpt lat="40.249767" lon="-4.904517">
        <ele>1550.0</ele>
        <time>2015-05-10T12:11:48Z</time>
      </trkpt>
      <trkpt lat="40.249900" lon="-4.904650">
        <ele>1548.0</ele>
        <time>2015-05-10T12:11:50Z</time>
      </trkpt>
      <trkpt lat="40.250067" lon="-4.904700">
        <ele>1545.0</ele>
        <time>2015-05-10T12:11:52Z</time>
      </trkpt>
      <trkpt lat="40.250267" lon="-4.904750">
        <ele>1547.0</ele>
        <time>2015-05-10T12:11:54Z</time>
      </trkpt>
      <trkpt lat="40.250383" lon="-4.904800">
        <ele>1555.0</ele>
        <time>2015-05-10T12:11:56Z</time>
      </trkpt>
      <trkpt lat="40.250467" lon="-4.904767">
        <ele>1556.0</ele>
        <time>2015-05-10T12:11:58Z</time>
      </trkpt>
      <trkpt lat="40.250517" lon="-4.904633">
        <ele>1554.0</ele>
        <time>2015-05-10T12:12:00Z</time>
      </trkpt>
      <trkpt lat="40.250483" lon="-4.904467">
        <ele>1553.0</ele>
        <time>2015-05-10T12:12:02Z</time>
      </trkpt>
      <trkpt lat="40.250383" lon="-4.904300">
        <ele>1552.0</ele>
        <time>2015-05-10T12:12:04Z</time>
      </trkpt>
      <trkpt lat="40.250233" lon="-4.904200">
        <ele>1551.0</ele>
        <time>2015-05-10T12:12:06Z</time>
      </trkpt>
      <trkpt lat="40.250017" lon="-4.904133">
        <ele>1549.0</ele>
        <time>2015-05-10T12:12:08Z</time>
      </trkpt>
      <trkpt lat="40.249800" lon="-4.904167">
        <ele>1549.0</ele>
        <time>2015-05-10T12:12:10Z</time>
      </trkpt>
      <trkpt lat="40.249600" lon="-4.904300">
        <ele>1547.0</ele>
        <time>2015-05-10T12:12:12Z</time>
      </trkpt>
      <trkpt lat="40.249433" lon="-4.904550">
        <ele>1546.0</ele>
        <time>2015-05-10T12:12:14Z</time>
      </trkpt>
      <trkpt lat="40.249367" lon="-4.904817">
        <ele>1546.0</ele>
        <time>2015-05-10T12:12:16Z</time>
      </trkpt>
      <trkpt lat="40.249400" lon="-4.905083">
        <ele>1545.0</ele>
        <time>2015-05-10T12:12:18Z</time>
      </trkpt>
      <trkpt lat="40.249517" lon="-4.905283">
        <ele>1543.0</ele>
        <time>2015-05-10T12:12:20Z</time>
      </trkpt>
      <trkpt lat="40.249667" lon="-4.905400">
        <ele>1542.0</ele>
        <time>2015-05-10T12:12:22Z</time>
      </trkpt>
      <trkpt lat="40.249833" lon="-4.905500">
        <ele>1543.0</ele>
        <time>2015-05-10T12:12:24Z</time>
      </trkpt>
      <trkpt lat="40.249983" lon="-4.905583">
        <ele>1545.0</ele>
        <time>2015-05-10T12:12:26Z</time>
      </trkpt>
      <trkpt lat="40.250117" lon="-4.905617">
        <ele>1549.0</ele>
        <time>2015-05-10T12:12:28Z</time>
      </trkpt>
      <trkpt lat="40.250233" lon="-4.905583">
        <ele>1550.0</ele>
        <time>2015-05-10T12:12:30Z</time>
      </trkpt>
      <trkpt lat="40.250333" lon="-4.905500">
        <ele>1547.0</ele>
        <time>2015-05-10T12:12:32Z</time>
      </trkpt>
      <trkpt lat="40.250417" lon="-4.905350">
        <ele>1546.0</ele>
        <time>2015-05-10T12:12:34Z</time>
      </trkpt>
      <trkpt lat="40.250433" lon="-4.905200">
        <ele>1547.0</ele>
        <time>2015-05-10T12:12:36Z</time>
      </trkpt>
      <trkpt lat="40.250383" lon="-4.905050">
        <ele>1544.0</ele>
        <time>2015-05-10T12:12:38Z</time>
      </trkpt>
      <trkpt lat="40.250300" lon="-4.904883">
        <ele>1541.0</ele>
        <time>2015-05-10T12:12:40Z</time>
      </trkpt>
      <trkpt lat="40.250167" lon="-4.904717">
        <ele>1541.0</ele>
        <time>2015-05-10T12:12:42Z</time>
      </trkpt>
      <trkpt lat="40.250000" lon="-4.904583">
        <ele>1539.0</ele>
        <time>2015-05-10T12:12:44Z</time>
      </trkpt>
      <trkpt lat="40.249867" lon="-4.904433">
        <ele>1538.0</ele>
        <time>2015-05-10T12:12:46Z</time>
      </trkpt>
      <trkpt lat="40.249683" lon="-4.904367">
        <ele>1536.0</ele>
        <time>2015-05-10T12:12:48Z</time>
      </trkpt>
      <trkpt lat="40.249450" lon="-4.904467">
        <ele>1530.0</ele>
        <time>2015-05-10T12:12:50Z</time>
      </trkpt>
      <trkpt lat="40.249250" lon="-4.904667">
        <ele>1529.0</ele>
        <time>2015-05-10T12:12:52Z</time>
      </trkpt>
      <trkpt lat="40.249100" lon="-4.904883">
        <ele>1527.0</ele>
        <time>2015-05-10T12:12:54Z</time>
      </trkpt>
      <trkpt lat="40.249017" lon="-4.905167">
        <ele>1522.0</ele>
        <time>2015-05-10T12:12:56Z</time>
      </trkpt>
      <trkpt lat="40.248983" lon="-4.905483">
        <ele>1519.0</ele>
        <time>2015-05-10T12:12:58Z</time>
      </trkpt>
      <trkpt lat="40.248983" lon="-4.905733">
        <ele>1520.0</ele>
        <time>2015-05-10T12:13:00Z</time>
      </trkpt>
      <trkpt lat="40.249000" lon="-4.905933">
        <ele>1516.0</ele>
        <time>2015-05-10T12:13:02Z</time>
      </trkpt>
      <trkpt lat="40.249100" lon="-4.906183">
        <ele>1510.0</ele>
        <time>2015-05-10T12:13:04Z</time>
      </trkpt>
      <trkpt lat="40.249183" lon="-4.906433">
        <ele>1509.0</ele>
        <time>2015-05-10T12:13:06Z</time>
      </trkpt>
      <trkpt lat="40.249233" lon="-4.906683">
        <ele>1507.0</ele>
        <time>2015-05-10T12:13:08Z</time>
      </trkpt>
      <trkpt lat="40.249333" lon="-4.906950">
        <ele>1503.0</ele>
        <time>2015-05-10T12:13:10Z</time>
      </trkpt>
      <trkpt lat="40.249433" lon="-4.907183">
        <ele>1502.0</ele>
        <time>2015-05-10T12:13:12Z</time>
      </trkpt>
      <trkpt lat="40.249500" lon="-4.907450">
        <ele>1500.0</ele>
        <time>2015-05-10T12:13:14Z</time>
      </trkpt>
      <trkpt lat="40.249517" lon="-4.907750">
        <ele>1496.0</ele>
        <time>2015-05-10T12:13:16Z</time>
      </trkpt>
      <trkpt lat="40.249550" lon="-4.908067">
        <ele>1492.0</ele>
        <time>2015-05-10T12:13:18Z</time>
      </trkpt>
      <trkpt lat="40.249550" lon="-4.908383">
        <ele>1488.0</ele>
        <time>2015-05-10T12:13:20Z</time>
      </trkpt>
      <trkpt lat="40.249500" lon="-4.908750">
        <ele>1486.0</ele>
        <time>2015-05-10T12:13:22Z</time>
      </trkpt>
      <trkpt lat="40.249450" lon="-4.909067">
        <ele>1490.0</ele>
        <time>2015-05-10T12:13:24Z</time>
      </trkpt>
      <trkpt lat="40.249400" lon="-4.909400">
        <ele>1492.0</ele>
        <time>2015-05-10T12:13:26Z</time>
      </trkpt>
      <trkpt lat="40.249367" lon="-4.909767">
        <ele>1492.0</ele>
        <time>2015-05-10T12:13:28Z</time>
      </trkpt>
      <trkpt lat="40.249433" lon="-4.910100">
        <ele>1494.0</ele>
        <time>2015-05-10T12:13:30Z</time>
      </trkpt>
      <trkpt lat="40.249550" lon="-4.910400">
        <ele>1495.0</ele>
        <time>2015-05-10T12:13:32Z</time>
      </trkpt>
      <trkpt lat="40.249683" lon="-4.910633">
        <ele>1497.0</ele>
        <time>2015-05-10T12:13:34Z</time>
      </trkpt>
      <trkpt lat="40.249817" lon="-4.910717">
        <ele>1499.0</ele>
        <time>2015-05-10T12:13:36Z</time>
      </trkpt>
      <trkpt lat="40.249917" lon="-4.910683">
        <ele>1497.0</ele>
        <time>2015-05-10T12:13:38Z</time>
      </trkpt>
      <trkpt lat="40.249967" lon="-4.910567">
        <ele>1495.0</ele>
        <time>2015-05-10T12:13:40Z</time>
      </trkpt>
      <trkpt lat="40.249933" lon="-4.910417">
        <ele>1493.0</ele>
        <time>2015-05-10T12:13:42Z</time>
      </trkpt>
      <trkpt lat="40.249850" lon="-4.910283">
        <ele>1495.0</ele>
        <time>2015-05-10T12:13:44Z</time>
      </trkpt>
      <trkpt lat="40.249733" lon="-4.910217">
        <ele>1496.0</ele>
        <time>2015-05-10T12:13:46Z</time>
      </trkpt>
      <trkpt lat="40.249567" lon="-4.910183">
        <ele>1497.0</ele>
        <time>2015-05-10T12:13:48Z</time>
      </trkpt>
      <trkpt lat="40.249367" lon="-4.910250">
        <ele>1497.0</ele>
        <time>2015-05-10T12:13:50Z</time>
      </trkpt>
      <trkpt lat="40.249183" lon="-4.910400">
        <ele>1498.0</ele>
        <time>2015-05-10T12:13:52Z</time>
      </trkpt>
      <trkpt lat="40.249033" lon="-4.910583">
        <ele>1497.0</ele>
        <time>2015-05-10T12:13:54Z</time>
      </trkpt>
      <trkpt lat="40.248900" lon="-4.910783">
        <ele>1494.0</ele>
        <time>2015-05-10T12:13:56Z</time>
      </trkpt>
      <trkpt lat="40.248767" lon="-4.911033">
        <ele>1492.0</ele>
        <time>2015-05-10T12:13:58Z</time>
      </trkpt>
      <trkpt lat="40.248650" lon="-4.911283">
        <ele>1489.0</ele>
        <time>2015-05-10T12:14:00Z</time>
      </trkpt>
      <trkpt lat="40.248500" lon="-4.911517">
        <ele>1487.0</ele>
        <time>2015-05-10T12:14:02Z</time>
      </trkpt>
      <trkpt lat="40.248367" lon="-4.911733">
        <ele>1488.0</ele>
        <time>2015-05-10T12:14:04Z</time>
      </trkpt>
      <trkpt lat="40.248267" lon="-4.911933">
        <ele>1488.0</ele>
        <time>2015-05-10T12:14:06Z</time>
      </trkpt>
      <trkpt lat="40.248150" lon="-4.912133">
        <ele>1486.0</ele>
        <time>2015-05-10T12:14:08Z</time>
      </trkpt>
      <trkpt lat="40.248017" lon="-4.912350">
        <ele>1484.0</ele>
        <time>2015-05-10T12:14:10Z</time>
      </trkpt>
      <trkpt lat="40.247917" lon="-4.912600">
        <ele>1484.0</ele>
        <time>2015-05-10T12:14:12Z</time>
      </trkpt>
      <trkpt lat="40.247817" lon="-4.912817">
        <ele>1482.0</ele>
        <time>2015-05-10T12:14:14Z</time>
      </trkpt>
      <trkpt lat="40.247683" lon="-4.913050">
        <ele>1481.0</ele>
        <time>2015-05-10T12:14:16Z</time>
      </trkpt>
      <trkpt lat="40.247567" lon="-4.913283">
        <ele>1484.0</ele>
        <time>2015-05-10T12:14:18Z</time>
      </trkpt>
      <trkpt lat="40.247483" lon="-4.913483">
        <ele>1486.0</ele>
        <time>2015-05-10T12:14:20Z</time>
      </trkpt>
      <trkpt lat="40.247450" lon="-4.913750">
        <ele>1482.0</ele>
        <time>2015-05-10T12:14:22Z</time>
      </trkpt>
      <trkpt lat="40.247450" lon="-4.914067">
        <ele>1482.0</ele>
        <time>2015-05-10T12:14:24Z</time>
      </trkpt>
      <trkpt lat="40.247533" lon="-4.914300">
        <ele>1487.0</ele>
        <time>2015-05-10T12:14:26Z</time>
      </trkpt>
      <trkpt lat="40.247683" lon="-4.914500">
        <ele>1491.0</ele>
        <time>2015-05-10T12:14:28Z</time>
      </trkpt>
      <trkpt lat="40.247867" lon="-4.914567">
        <ele>1494.0</ele>
        <time>2015-05-10T12:14:30Z</time>
      </trkpt>
      <trkpt lat="40.248033" lon="-4.914550">
        <ele>1493.0</ele>
        <time>2015-05-10T12:14:32Z</time>
      </trkpt>
      <trkpt lat="40.248133" lon="-4.914467">
        <ele>1489.0</ele>
        <time>2015-05-10T12:14:34Z</time>
      </trkpt>
      <trkpt lat="40.248200" lon="-4.914333">
        <ele>1484.0</ele>
        <time>2015-05-10T12:14:36Z</time>
      </trkpt>
      <trkpt lat="40.248217" lon="-4.914150">
        <ele>1480.0</ele>
        <time>2015-05-10T12:14:38Z</time>
      </trkpt>
      <trkpt lat="40.248167" lon="-4.914017">
        <ele>1479.0</ele>
        <time>2015-05-10T12:14:40Z</time>
      </trkpt>
      <trkpt lat="40.248033" lon="-4.913967">
        <ele>1474.0</ele>
        <time>2015-05-10T12:14:42Z</time>
      </trkpt>
      <trkpt lat="40.247867" lon="-4.913967">
        <ele>1468.0</ele>
        <time>2015-05-10T12:14:44Z</time>
      </trkpt>
      <trkpt lat="40.247650" lon="-4.914033">
        <ele>1463.0</ele>
        <time>2015-05-10T12:14:46Z</time>
      </trkpt>
      <trkpt lat="40.247467" lon="-4.914133">
        <ele>1466.0</ele>
        <time>2015-05-10T12:14:48Z</time>
      </trkpt>
      <trkpt lat="40.247300" lon="-4.914167">
        <ele>1467.0</ele>
        <time>2015-05-10T12:14:50Z</time>
      </trkpt>
      <trkpt lat="40.247117" lon="-4.914133">
        <ele>1465.0</ele>
        <time>2015-05-10T12:14:52Z</time>
      </trkpt>
      <trkpt lat="40.246900" lon="-4.914150">
        <ele>1469.0</ele>
        <time>2015-05-10T12:14:54Z</time>
      </trkpt>
      <trkpt lat="40.246733" lon="-4.914200">
        <ele>1475.0</ele>
        <time>2015-05-10T12:14:56Z</time>
      </trkpt>
      <trkpt lat="40.246583" lon="-4.914233">
        <ele>1476.0</ele>
        <time>2015-05-10T12:14:58Z</time>
      </trkpt>
      <trkpt lat="40.246400" lon="-4.914333">
        <ele>1476.0</ele>
        <time>2015-05-10T12:15:00Z</time>
      </trkpt>
      <trkpt lat="40.246283" lon="-4.914550">
        <ele>1475.0</ele>
        <time>2015-05-10T12:15:02Z</time>
      </trkpt>
      <trkpt lat="40.246183" lon="-4.914850">
        <ele>1474.0</ele>
        <time>2015-05-10T12:15:04Z</time>
      </trkpt>
      <trkpt lat="40.246083" lon="-4.915100">
        <ele>1476.0</ele>
        <time>2015-05-10T12:15:06Z</time>
      </trkpt>
      <trkpt lat="40.245967" lon="-4.915333">
        <ele>1476.0</ele>
        <time>2015-05-10T12:15:08Z</time>
      </trkpt>
      <trkpt lat="40.245900" lon="-4.915650">
        <ele>1475.0</ele>
        <time>2015-05-10T12:15:10Z</time>
      </trkpt>
      <trkpt lat="40.245917" lon="-4.915917">
        <ele>1478.0</ele>
        <time>2015-05-10T12:15:12Z</time>
      </trkpt>
      <trkpt lat="40.246000" lon="-4.916100">
        <ele>1477.0</ele>
        <time>2015-05-10T12:15:14Z</time>
      </trkpt>
      <trkpt lat="40.246167" lon="-4.916250">
        <ele>1474.0</ele>
        <time>2015-05-10T12:15:16Z</time>
      </trkpt>
      <trkpt lat="40.246350" lon="-4.916267">
        <ele>1478.0</ele>
        <time>2015-05-10T12:15:18Z</time>
      </trkpt>
      <trkpt lat="40.246467" lon="-4.916283">
        <ele>1483.0</ele>
        <time>2015-05-10T12:15:20Z</time>
      </trkpt>
      <trkpt lat="40.246583" lon="-4.916250">
        <ele>1481.0</ele>
        <time>2015-05-10T12:15:22Z</time>
      </trkpt>
      <trkpt lat="40.246700" lon="-4.916133">
        <ele>1480.0</ele>
        <time>2015-05-10T12:15:24Z</time>
      </trkpt>
      <trkpt lat="40.246733" lon="-4.915950">
        <ele>1483.0</ele>
        <time>2015-05-10T12:15:26Z</time>
      </trkpt>
      <trkpt lat="40.246650" lon="-4.915783">
        <ele>1484.0</ele>
        <time>2015-05-10T12:15:28Z</time>
      </trkpt>
      <trkpt lat="40.246517" lon="-4.915617">
        <ele>1487.0</ele>
        <time>2015-05-10T12:15:30Z</time>
      </trkpt>
      <trkpt lat="40.246333" lon="-4.915550">
        <ele>1487.0</ele>
        <time>2015-05-10T12:15:32Z</time>
      </trkpt>
      <trkpt lat="40.246117" lon="-4.915600">
        <ele>1488.0</ele>
        <time>2015-05-10T12:15:34Z</time>
      </trkpt>
      <trkpt lat="40.245967" lon="-4.915717">
        <ele>1492.0</ele>
        <time>2015-05-10T12:15:36Z</time>
      </trkpt>
      <trkpt lat="40.245850" lon="-4.915833">
        <ele>1491.0</ele>
        <time>2015-05-10T12:15:38Z</time>
      </trkpt>
      <trkpt lat="40.245700" lon="-4.916083">
        <ele>1487.0</ele>
        <time>2015-05-10T12:15:40Z</time>
      </trkpt>
      <trkpt lat="40.245667" lon="-4.916417">
        <ele>1488.0</ele>
        <time>2015-05-10T12:15:42Z</time>
      </trkpt>
      <trkpt lat="40.245700" lon="-4.916717">
        <ele>1491.0</ele>
        <time>2015-05-10T12:15:44Z</time>
      </trkpt>
      <trkpt lat="40.245750" lon="-4.917017">
        <ele>1492.0</ele>
        <time>2015-05-10T12:15:46Z</time>
      </trkpt>
      <trkpt lat="40.245917" lon="-4.917250">
        <ele>1491.0</ele>
        <time>2015-05-10T12:15:48Z</time>
      </trkpt>
      <trkpt lat="40.246133" lon="-4.917367">
        <ele>1493.0</ele>
        <time>2015-05-10T12:15:50Z</time>
      </trkpt>
      <trkpt lat="40.246283" lon="-4.917433">
        <ele>1498.0</ele>
        <time>2015-05-10T12:15:52Z</time>
      </trkpt>
      <trkpt lat="40.246433" lon="-4.917483">
        <ele>1499.0</ele>
        <time>2015-05-10T12:15:54Z</time>
      </trkpt>
      <trkpt lat="40.246600" lon="-4.917450">
        <ele>1499.0</ele>
        <time>2015-05-10T12:15:56Z</time>
      </trkpt>
      <trkpt lat="40.246717" lon="-4.917350">
        <ele>1502.0</ele>
        <time>2015-05-10T12:15:58Z</time>
      </trkpt>
      <trkpt lat="40.246767" lon="-4.917217">
        <ele>1505.0</ele>
        <time>2015-05-10T12:16:00Z</time>
      </trkpt>
      <trkpt lat="40.246750" lon="-4.917050">
        <ele>1507.0</ele>
        <time>2015-05-10T12:16:02Z</time>
      </trkpt>
      <trkpt lat="40.246650" lon="-4.916883">
        <ele>1509.0</ele>
        <time>2015-05-10T12:16:04Z</time>
      </trkpt>
      <trkpt lat="40.246467" lon="-4.916800">
        <ele>1510.0</ele>
        <time>2015-05-10T12:16:06Z</time>
      </trkpt>
      <trkpt lat="40.246250" lon="-4.916850">
        <ele>1514.0</ele>
        <time>2015-05-10T12:16:08Z</time>
      </trkpt>
      <trkpt lat="40.246100" lon="-4.916950">
        <ele>1517.0</ele>
        <time>2015-05-10T12:16:10Z</time>
      </trkpt>
      <trkpt lat="40.245933" lon="-4.917150">
        <ele>1516.0</ele>
        <time>2015-05-10T12:16:12Z</time>
      </trkpt>
      <trkpt lat="40.245850" lon="-4.917417">
        <ele>1513.0</ele>
        <time>2015-05-10T12:16:14Z</time>
      </trkpt>
      <trkpt lat="40.245850" lon="-4.917733">
        <ele>1511.0</ele>
        <time>2015-05-10T12:16:16Z</time>
      </trkpt>
      <trkpt lat="40.245867" lon="-4.918050">
        <ele>1511.0</ele>
        <time>2015-05-10T12:16:18Z</time>
      </trkpt>
      <trkpt lat="40.245917" lon="-4.918350">
        <ele>1511.0</ele>
        <time>2015-05-10T12:16:20Z</time>
      </trkpt>
      <trkpt lat="40.246000" lon="-4.918617">
        <ele>1514.0</ele>
        <time>2015-05-10T12:16:22Z</time>
      </trkpt>
      <trkpt lat="40.246050" lon="-4.918833">
        <ele>1516.0</ele>
        <time>2015-05-10T12:16:24Z</time>
      </trkpt>
      <trkpt lat="40.246133" lon="-4.919083">
        <ele>1515.0</ele>
        <time>2015-05-10T12:16:26Z</time>
      </trkpt>
      <trkpt lat="40.246267" lon="-4.919333">
        <ele>1517.0</ele>
        <time>2015-05-10T12:16:28Z</time>
      </trkpt>
      <trkpt lat="40.246400" lon="-4.919500">
        <ele>1520.0</ele>
        <time>2015-05-10T12:16:30Z</time>
      </trkpt>
      <trkpt lat="40.246550" lon="-4.919683">
        <ele>1519.0</ele>
        <time>2015-05-10T12:16:32Z</time>
      </trkpt>
      <trkpt lat="40.246767" lon="-4.919817">
        <ele>1519.0</ele>
        <time>2015-05-10T12:16:34Z</time>
      </trkpt>
      <trkpt lat="40.246950" lon="-4.919950">
        <ele>1525.0</ele>
        <time>2015-05-10T12:16:36Z</time>
      </trkpt>
      <trkpt lat="40.247100" lon="-4.920050">
        <ele>1527.0</ele>
        <time>2015-05-10T12:16:38Z</time>
      </trkpt>
      <trkpt lat="40.247300" lon="-4.920083">
        <ele>1525.0</ele>
        <time>2015-05-10T12:16:40Z</time>
      </trkpt>
      <trkpt lat="40.247467" lon="-4.920033">
        <ele>1526.0</ele>
        <time>2015-05-10T12:16:42Z</time>
      </trkpt>
      <trkpt lat="40.247567" lon="-4.919933">
        <ele>1528.0</ele>
        <time>2015-05-10T12:16:44Z</time>
      </trkpt>
      <trkpt lat="40.247600" lon="-4.919833">
        <ele>1527.0</ele>
        <time>2015-05-10T12:16:46Z</time>
      </trkpt>
      <trkpt lat="40.247600" lon="-4.919683">
        <ele>1522.0</ele>
        <time>2015-05-10T12:16:48Z</time>
      </trkpt>
      <trkpt lat="40.247550" lon="-4.919500">
        <ele>1520.0</ele>
        <time>2015-05-10T12:16:50Z</time>
      </trkpt>
      <trkpt lat="40.247500" lon="-4.919350">
        <ele>1522.0</ele>
        <time>2015-05-10T12:16:52Z</time>
      </trkpt>
      <trkpt lat="40.247450" lon="-4.919183">
        <ele>1522.0</ele>
        <time>2015-05-10T12:16:54Z</time>
      </trkpt>
      <trkpt lat="40.247367" lon="-4.919017">
        <ele>1524.0</ele>
        <time>2015-05-10T12:16:56Z</time>
      </trkpt>
      <trkpt lat="40.247267" lon="-4.918850">
        <ele>1526.0</ele>
        <time>2015-05-10T12:16:58Z</time>
      </trkpt>
      <trkpt lat="40.247183" lon="-4.918633">
        <ele>1529.0</ele>
        <time>2015-05-10T12:17:00Z</time>
      </trkpt>
      <trkpt lat="40.247133" lon="-4.918433">
        <ele>1530.0</ele>
        <time>2015-05-10T12:17:02Z</time>
      </trkpt>
      <trkpt lat="40.247000" lon="-4.918317">
        <ele>1527.0</ele>
        <time>2015-05-10T12:17:04Z</time>
      </trkpt>
      <trkpt lat="40.246850" lon="-4.918217">
        <ele>1524.0</ele>
        <time>2015-05-10T12:17:06Z</time>
      </trkpt>
      <trkpt lat="40.246667" lon="-4.918167">
        <ele>1521.0</ele>
        <time>2015-05-10T12:17:08Z</time>
      </trkpt>
      <trkpt lat="40.246467" lon="-4.918267">
        <ele>1516.0</ele>
        <time>2015-05-10T12:17:10Z</time>
      </trkpt>
      <trkpt lat="40.246300" lon="-4.918433">
        <ele>1515.0</ele>
        <time>2015-05-10T12:17:12Z</time>
      </trkpt>
      <trkpt lat="40.246167" lon="-4.918650">
        <ele>1514.0</ele>
        <time>2015-05-10T12:17:14Z</time>
      </trkpt>
      <trkpt lat="40.246100" lon="-4.918933">
        <ele>1516.0</ele>
        <time>2015-05-10T12:17:16Z</time>
      </trkpt>
      <trkpt lat="40.246033" lon="-4.919250">
        <ele>1518.0</ele>
        <time>2015-05-10T12:17:18Z</time>
      </trkpt>
      <trkpt lat="40.245967" lon="-4.919567">
        <ele>1522.0</ele>
        <time>2015-05-10T12:17:20Z</time>
      </trkpt>
      <trkpt lat="40.245950" lon="-4.919867">
        <ele>1527.0</ele>
        <time>2015-05-10T12:17:22Z</time>
      </trkpt>
      <trkpt lat="40.246000" lon="-4.920150">
        <ele>1529.0</ele>
        <time>2015-05-10T12:17:24Z</time>
      </trkpt>
      <trkpt lat="40.246100" lon="-4.920367">
        <ele>1532.0</ele>
        <time>2015-05-10T12:17:26Z</time>
      </trkpt>
      <trkpt lat="40.246233" lon="-4.920483">
        <ele>1534.0</ele>
        <time>2015-05-10T12:17:28Z</time>
      </trkpt>
      <trkpt lat="40.246367" lon="-4.920500">
        <ele>1536.0</ele>
        <time>2015-05-10T12:17:30Z</time>
      </trkpt>
      <trkpt lat="40.246483" lon="-4.920467">
        <ele>1538.0</ele>
        <time>2015-05-10T12:17:32Z</time>
      </trkpt>
      <trkpt lat="40.246583" lon="-4.920333">
        <ele>1539.0</ele>
        <time>2015-05-10T12:17:34Z</time>
      </trkpt>
      <trkpt lat="40.246617" lon="-4.920150">
        <ele>1543.0</ele>
        <time>2015-05-10T12:17:36Z</time>
      </trkpt>
      <trkpt lat="40.246533" lon="-4.920000">
        <ele>1547.0</ele>
        <time>2015-05-10T12:17:38Z</time>
      </trkpt>
      <trkpt lat="40.246400" lon="-4.919883">
        <ele>1548.0</ele>
        <time>2015-05-10T12:17:40Z</time>
      </trkpt>
      <trkpt lat="40.246200" lon="-4.919900">
        <ele>1550.0</ele>
        <time>2015-05-10T12:17:42Z</time>
      </trkpt>
      <trkpt lat="40.246050" lon="-4.919983">
        <ele>1555.0</ele>
        <time>2015-05-10T12:17:44Z</time>
      </trkpt>
      <trkpt lat="40.245933" lon="-4.920117">
        <ele>1557.0</ele>
        <time>2015-05-10T12:17:46Z</time>
      </trkpt>
      <trkpt lat="40.245817" lon="-4.920367">
        <ele>1555.0</ele>
        <time>2015-05-10T12:17:48Z</time>
      </trkpt>
      <trkpt lat="40.245800" lon="-4.920717">
        <ele>1556.0</ele>
        <time>2015-05-10T12:17:50Z</time>
      </trkpt>
      <trkpt lat="40.245883" lon="-4.920950">
        <ele>1562.0</ele>
        <time>2015-05-10T12:17:52Z</time>
      </trkpt>
      <trkpt lat="40.245950" lon="-4.921100">
        <ele>1564.0</ele>
        <time>2015-05-10T12:17:54Z</time>
      </trkpt>
      <trkpt lat="40.246100" lon="-4.921233">
        <ele>1564.0</ele>
        <time>2015-05-10T12:17:56Z</time>
      </trkpt>
      <trkpt lat="40.246267" lon="-4.921250">
        <ele>1566.0</ele>
        <time>2015-05-10T12:17:58Z</time>
      </trkpt>
      <trkpt lat="40.246367" lon="-4.921150">
        <ele>1571.0</ele>
        <time>2015-05-10T12:18:00Z</time>
      </trkpt>
      <trkpt lat="40.246400" lon="-4.921050">
        <ele>1573.0</ele>
        <time>2015-05-10T12:18:02Z</time>
      </trkpt>
      <trkpt lat="40.246400" lon="-4.920883">
        <ele>1570.0</ele>
        <time>2015-05-10T12:18:04Z</time>
      </trkpt>
      <trkpt lat="40.246267" lon="-4.920717">
        <ele>1568.0</ele>
        <time>2015-05-10T12:18:06Z</time>
      </trkpt>
      <trkpt lat="40.246133" lon="-4.920667">
        <ele>1574.0</ele>
        <time>2015-05-10T12:18:08Z</time>
      </trkpt>
      <trkpt lat="40.246017" lon="-4.920700">
        <ele>1576.0</ele>
        <time>2015-05-10T12:18:10Z</time>
      </trkpt>
      <trkpt lat="40.245850" lon="-4.920817">
        <ele>1572.0</ele>
        <time>2015-05-10T12:18:12Z</time>
      </trkpt>
      <trkpt lat="40.245683" lon="-4.921000">
        <ele>1572.0</ele>
        <time>2015-05-10T12:18:14Z</time>
      </trkpt>
      <trkpt lat="40.245533" lon="-4.921183">
        <ele>1575.0</ele>
        <time>2015-05-10T12:18:16Z</time>
      </trkpt>
      <trkpt lat="40.245400" lon="-4.921400">
        <ele>1576.0</ele>
        <time>2015-05-10T12:18:18Z</time>
      </trkpt>
      <trkpt lat="40.245333" lon="-4.921717">
        <ele>1576.0</ele>
        <time>2015-05-10T12:18:20Z</time>
      </trkpt>
      <trkpt lat="40.245350" lon="-4.922000">
        <ele>1578.0</ele>
        <time>2015-05-10T12:18:22Z</time>
      </trkpt>
      <trkpt lat="40.245400" lon="-4.922250">
        <ele>1580.0</ele>
        <time>2015-05-10T12:18:24Z</time>
      </trkpt>
      <trkpt lat="40.245467" lon="-4.922483">
        <ele>1581.0</ele>
        <time>2015-05-10T12:18:26Z</time>
      </trkpt>
      <trkpt lat="40.245633" lon="-4.922600">
        <ele>1580.0</ele>
        <time>2015-05-10T12:18:28Z</time>
      </trkpt>
      <trkpt lat="40.245783" lon="-4.922633">
        <ele>1584.0</ele>
        <time>2015-05-10T12:18:30Z</time>
      </trkpt>
      <trkpt lat="40.245917" lon="-4.922650">
        <ele>1588.0</ele>
        <time>2015-05-10T12:18:32Z</time>
      </trkpt>
      <trkpt lat="40.246050" lon="-4.922650">
        <ele>1588.0</ele>
        <time>2015-05-10T12:18:34Z</time>
      </trkpt>
      <trkpt lat="40.246183" lon="-4.922617">
        <ele>1590.0</ele>
        <time>2015-05-10T12:18:36Z</time>
      </trkpt>
      <trkpt lat="40.246283" lon="-4.922533">
        <ele>1592.0</ele>
        <time>2015-05-10T12:18:38Z</time>
      </trkpt>
      <trkpt lat="40.246317" lon="-4.922400">
        <ele>1592.0</ele>
        <time>2015-05-10T12:18:40Z</time>
      </trkpt>
      <trkpt lat="40.246300" lon="-4.922250">
        <ele>1592.0</ele>
        <time>2015-05-10T12:18:42Z</time>
      </trkpt>
      <trkpt lat="40.246250" lon="-4.922133">
        <ele>1591.0</ele>
        <time>2015-05-10T12:18:44Z</time>
      </trkpt>
      <trkpt lat="40.246150" lon="-4.922033">
        <ele>1589.0</ele>
        <time>2015-05-10T12:18:46Z</time>
      </trkpt>
      <trkpt lat="40.246033" lon="-4.921967">
        <ele>1587.0</ele>
        <time>2015-05-10T12:18:48Z</time>
      </trkpt>
      <trkpt lat="40.245867" lon="-4.921967">
        <ele>1585.0</ele>
        <time>2015-05-10T12:18:50Z</time>
      </trkpt>
      <trkpt lat="40.245700" lon="-4.921983">
        <ele>1584.0</ele>
        <time>2015-05-10T12:18:52Z</time>
      </trkpt>
      <trkpt lat="40.245533" lon="-4.922017">
        <ele>1585.0</ele>
        <time>2015-05-10T12:18:54Z</time>
      </trkpt>
      <trkpt lat="40.245350" lon="-4.922167">
        <ele>1582.0</ele>
        <time>2015-05-10T12:18:56Z</time>
      </trkpt>
      <trkpt lat="40.245183" lon="-4.922317">
        <ele>1583.0</ele>
        <time>2015-05-10T12:18:58Z</time>
      </trkpt>
      <trkpt lat="40.245067" lon="-4.922450">
        <ele>1583.0</ele>
        <time>2015-05-10T12:19:00Z</time>
      </trkpt>
      <trkpt lat="40.244917" lon="-4.922667">
        <ele>1581.0</ele>
        <time>2015-05-10T12:19:02Z</time>
      </trkpt>
      <trkpt lat="40.244833" lon="-4.922933">
        <ele>1582.0</ele>
        <time>2015-05-10T12:19:04Z</time>
      </trkpt>
      <trkpt lat="40.244883" lon="-4.923233">
        <ele>1581.0</ele>
        <time>2015-05-10T12:19:06Z</time>
      </trkpt>
      <trkpt lat="40.244967" lon="-4.923517">
        <ele>1583.0</ele>
        <time>2015-05-10T12:19:08Z</time>
      </trkpt>
      <trkpt lat="40.245067" lon="-4.923767">
        <ele>1583.0</ele>
        <time>2015-05-10T12:19:10Z</time>
      </trkpt>
      <trkpt lat="40.245200" lon="-4.923950">
        <ele>1583.0</ele>
        <time>2015-05-10T12:19:12Z</time>
      </trkpt>
      <trkpt lat="40.245333" lon="-4.924050">
        <ele>1583.0</ele>
        <time>2015-05-10T12:19:14Z</time>
      </trkpt>
      <trkpt lat="40.245483" lon="-4.924117">
        <ele>1584.0</ele>
        <time>2015-05-10T12:19:16Z</time>
      </trkpt>
      <trkpt lat="40.245650" lon="-4.924167">
        <ele>1584.0</ele>
        <time>2015-05-10T12:19:18Z</time>
      </trkpt>
      <trkpt lat="40.245767" lon="-4.924183">
        <ele>1584.0</ele>
        <time>2015-05-10T12:19:20Z</time>
      </trkpt>
      <trkpt lat="40.245850" lon="-4.924050">
        <ele>1581.0</ele>
        <time>2015-05-10T12:19:22Z</time>
      </trkpt>
      <trkpt lat="40.245867" lon="-4.923900">
        <ele>1583.0</ele>
        <time>2015-05-10T12:19:24Z</time>
      </trkpt>
      <trkpt lat="40.245817" lon="-4.923800">
        <ele>1583.0</ele>
        <time>2015-05-10T12:19:26Z</time>
      </trkpt>
      <trkpt lat="40.245700" lon="-4.923700">
        <ele>1579.0</ele>
        <time>2015-05-10T12:19:28Z</time>
      </trkpt>
      <trkpt lat="40.245533" lon="-4.923650">
        <ele>1579.0</ele>
        <time>2015-05-10T12:19:30Z</time>
      </trkpt>
      <trkpt lat="40.245383" lon="-4.923650">
        <ele>1580.0</ele>
        <time>2015-05-10T12:19:32Z</time>
      </trkpt>
      <trkpt lat="40.245217" lon="-4.923683">
        <ele>1576.0</ele>
        <time>2015-05-10T12:19:34Z</time>
      </trkpt>
      <trkpt lat="40.245000" lon="-4.923783">
        <ele>1573.0</ele>
        <time>2015-05-10T12:19:36Z</time>
      </trkpt>
      <trkpt lat="40.244817" lon="-4.923900">
        <ele>1576.0</ele>
        <time>2015-05-10T12:19:38Z</time>
      </trkpt>
      <trkpt lat="40.244683" lon="-4.924017">
        <ele>1576.0</ele>
        <time>2015-05-10T12:19:40Z</time>
      </trkpt>
      <trkpt lat="40.244550" lon="-4.924200">
        <ele>1572.0</ele>
        <time>2015-05-10T12:19:42Z</time>
      </trkpt>
      <trkpt lat="40.244417" lon="-4.924467">
        <ele>1572.0</ele>
        <time>2015-05-10T12:19:44Z</time>
      </trkpt>
      <trkpt lat="40.244333" lon="-4.924700">
        <ele>1575.0</ele>
        <time>2015-05-10T12:19:46Z</time>
      </trkpt>
      <trkpt lat="40.244250" lon="-4.924933">
        <ele>1573.0</ele>
        <time>2015-05-10T12:19:48Z</time>
      </trkpt>
      <trkpt lat="40.244233" lon="-4.925217">
        <ele>1569.0</ele>
        <time>2015-05-10T12:19:50Z</time>
      </trkpt>
      <trkpt lat="40.244217" lon="-4.925517">
        <ele>1568.0</ele>
        <time>2015-05-10T12:19:52Z</time>
      </trkpt>
      <trkpt lat="40.244183" lon="-4.925800">
        <ele>1566.0</ele>
        <time>2015-05-10T12:19:54Z</time>
      </trkpt>
      <trkpt lat="40.244183" lon="-4.926050">
        <ele>1563.0</ele>
        <time>2015-05-10T12:19:56Z</time>
      </trkpt>
      <trkpt lat="40.244300" lon="-4.926300">
        <ele>1557.0</ele>
        <time>2015-05-10T12:19:58Z</time>
      </trkpt>
      <trkpt lat="40.244467" lon="-4.926433">
        <ele>1552.0</ele>
        <time>2015-05-10T12:20:00Z</time>
      </trkpt>
      <trkpt lat="40.244633" lon="-4.926433">
        <ele>1548.0</ele>
        <time>2015-05-10T12:20:02Z</time>
      </trkpt>
      <trkpt lat="40.244733" lon="-4.926317">
        <ele>1542.0</ele>
        <time>2015-05-10T12:20:04Z</time>
      </trkpt>
      <trkpt lat="40.244767" lon="-4.926167">
        <ele>1539.0</ele>
        <time>2015-05-10T12:20:06Z</time>
      </trkpt>
      <trkpt lat="40.244717" lon="-4.925983">
        <ele>1537.0</ele>
        <time>2015-05-10T12:20:08Z</time>
      </trkpt>
      <trkpt lat="40.244583" lon="-4.925867">
        <ele>1537.0</ele>
        <time>2015-05-10T12:20:10Z</time>
      </trkpt>
      <trkpt lat="40.244417" lon="-4.925833">
        <ele>1537.0</ele>
        <time>2015-05-10T12:20:12Z</time>
      </trkpt>
      <trkpt lat="40.244250" lon="-4.925850">
        <ele>1535.0</ele>
        <time>2015-05-10T12:20:14Z</time>
      </trkpt>
      <trkpt lat="40.244050" lon="-4.925900">
        <ele>1533.0</ele>
        <time>2015-05-10T12:20:16Z</time>
      </trkpt>
      <trkpt lat="40.243867" lon="-4.926067">
        <ele>1530.0</ele>
        <time>2015-05-10T12:20:18Z</time>
      </trkpt>
      <trkpt lat="40.243683" lon="-4.926267">
        <ele>1529.0</ele>
        <time>2015-05-10T12:20:20Z</time>
      </trkpt>
      <trkpt lat="40.243533" lon="-4.926467">
        <ele>1528.0</ele>
        <time>2015-05-10T12:20:22Z</time>
      </trkpt>
      <trkpt lat="40.243400" lon="-4.926650">
        <ele>1525.0</ele>
        <time>2015-05-10T12:20:24Z</time>
      </trkpt>
      <trkpt lat="40.243250" lon="-4.926883">
        <ele>1520.0</ele>
        <time>2015-05-10T12:20:26Z</time>
      </trkpt>
      <trkpt lat="40.243100" lon="-4.927133">
        <ele>1518.0</ele>
        <time>2015-05-10T12:20:28Z</time>
      </trkpt>
      <trkpt lat="40.242983" lon="-4.927350">
        <ele>1517.0</ele>
        <time>2015-05-10T12:20:30Z</time>
      </trkpt>
      <trkpt lat="40.242867" lon="-4.927550">
        <ele>1514.0</ele>
        <time>2015-05-10T12:20:32Z</time>
      </trkpt>
      <trkpt lat="40.242717" lon="-4.927783">
        <ele>1509.0</ele>
        <time>2015-05-10T12:20:34Z</time>
      </trkpt>
      <trkpt lat="40.242583" lon="-4.928000">
        <ele>1506.0</ele>
        <time>2015-05-10T12:20:36Z</time>
      </trkpt>
      <trkpt lat="40.242467" lon="-4.928217">
        <ele>1503.0</ele>
        <time>2015-05-10T12:20:38Z</time>
      </trkpt>
      <trkpt lat="40.242333" lon="-4.928433">
        <ele>1498.0</ele>
        <time>2015-05-10T12:20:40Z</time>
      </trkpt>
      <trkpt lat="40.242200" lon="-4.928650">
        <ele>1494.0</ele>
        <time>2015-05-10T12:20:42Z</time>
      </trkpt>
      <trkpt lat="40.242050" lon="-4.928817">
        <ele>1491.0</ele>
        <time>2015-05-10T12:20:44Z</time>
      </trkpt>
      <trkpt lat="40.241883" lon="-4.928983">
        <ele>1488.0</ele>
        <time>2015-05-10T12:20:46Z</time>
      </trkpt>
      <trkpt lat="40.241750" lon="-4.929200">
        <ele>1485.0</ele>
        <time>2015-05-10T12:20:48Z</time>
      </trkpt>
      <trkpt lat="40.241617" lon="-4.929450">
        <ele>1481.0</ele>
        <time>2015-05-10T12:20:50Z</time>
      </trkpt>
      <trkpt lat="40.241500" lon="-4.929683">
        <ele>1479.0</ele>
        <time>2015-05-10T12:20:52Z</time>
      </trkpt>
      <trkpt lat="40.241400" lon="-4.929900">
        <ele>1475.0</ele>
        <time>2015-05-10T12:20:54Z</time>
      </trkpt>
      <trkpt lat="40.241283" lon="-4.930150">
        <ele>1471.0</ele>
        <time>2015-05-10T12:20:56Z</time>
      </trkpt>
      <trkpt lat="40.241167" lon="-4.930367">
        <ele>1467.0</ele>
        <time>2015-05-10T12:20:58Z</time>
      </trkpt>
      <trkpt lat="40.241033" lon="-4.930583">
        <ele>1465.0</ele>
        <time>2015-05-10T12:21:00Z</time>
      </trkpt>
      <trkpt lat="40.240933" lon="-4.930800">
        <ele>1462.0</ele>
        <time>2015-05-10T12:21:02Z</time>
      </trkpt>
      <trkpt lat="40.240833" lon="-4.931033">
        <ele>1460.0</ele>
        <time>2015-05-10T12:21:04Z</time>
      </trkpt>
      <trkpt lat="40.240750" lon="-4.931250">
        <ele>1457.0</ele>
        <time>2015-05-10T12:21:06Z</time>
      </trkpt>
      <trkpt lat="40.240650" lon="-4.931500">
        <ele>1452.0</ele>
        <time>2015-05-10T12:21:08Z</time>
      </trkpt>
      <trkpt lat="40.240567" lon="-4.931750">
        <ele>1449.0</ele>
        <time>2015-05-10T12:21:10Z</time>
      </trkpt>
      <trkpt lat="40.240467" lon="-4.932000">
        <ele>1448.0</ele>
        <time>2015-05-10T12:21:12Z</time>
      </trkpt>
      <trkpt lat="40.240383" lon="-4.932233">
        <ele>1445.0</ele>
        <time>2015-05-10T12:21:14Z</time>
      </trkpt>
      <trkpt lat="40.240267" lon="-4.932483">
        <ele>1441.0</ele>
        <time>2015-05-10T12:21:16Z</time>
      </trkpt>
      <trkpt lat="40.240167" lon="-4.932733">
        <ele>1439.0</ele>
        <time>2015-05-10T12:21:18Z</time>
      </trkpt>
      <trkpt lat="40.240083" lon="-4.932967">
        <ele>1437.0</ele>
        <time>2015-05-10T12:21:20Z</time>
      </trkpt>
      <trkpt lat="40.239983" lon="-4.933217">
        <ele>1432.0</ele>
        <time>2015-05-10T12:21:22Z</time>
      </trkpt>
      <trkpt lat="40.239867" lon="-4.933483">
        <ele>1430.0</ele>
        <time>2015-05-10T12:21:24Z</time>
      </trkpt>
      <trkpt lat="40.239750" lon="-4.933717">
        <ele>1431.0</ele>
        <time>2015-05-10T12:21:26Z</time>
      </trkpt>
      <trkpt lat="40.239650" lon="-4.933933">
        <ele>1429.0</ele>
        <time>2015-05-10T12:21:28Z</time>
      </trkpt>
      <trkpt lat="40.239533" lon="-4.934167">
        <ele>1426.0</ele>
        <time>2015-05-10T12:21:30Z</time>
      </trkpt>
      <trkpt lat="40.239433" lon="-4.934417">
        <ele>1424.0</ele>
        <time>2015-05-10T12:21:32Z</time>
      </trkpt>
      <trkpt lat="40.239317" lon="-4.934650">
        <ele>1422.0</ele>
        <time>2015-05-10T12:21:34Z</time>
      </trkpt>
      <trkpt lat="40.239217" lon="-4.934900">
        <ele>1418.0</ele>
        <time>2015-05-10T12:21:36Z</time>
      </trkpt>
      <trkpt lat="40.239117" lon="-4.935150">
        <ele>1414.0</ele>
        <time>2015-05-10T12:21:38Z</time>
      </trkpt>
      <trkpt lat="40.239017" lon="-4.935383">
        <ele>1410.0</ele>
        <time>2015-05-10T12:21:40Z</time>
      </trkpt>
      <trkpt lat="40.238917" lon="-4.935633">
        <ele>1406.0</ele>
        <time>2015-05-10T12:21:42Z</time>
      </trkpt>
      <trkpt lat="40.238800" lon="-4.935900">
        <ele>1402.0</ele>
        <time>2015-05-10T12:21:44Z</time>
      </trkpt>
      <trkpt lat="40.238700" lon="-4.936150">
        <ele>1399.0</ele>
        <time>2015-05-10T12:21:46Z</time>
      </trkpt>
      <trkpt lat="40.238583" lon="-4.936400">
        <ele>1396.0</ele>
        <time>2015-05-10T12:21:48Z</time>
      </trkpt>
      <trkpt lat="40.238450" lon="-4.936667">
        <ele>1393.0</ele>
        <time>2015-05-10T12:21:50Z</time>
      </trkpt>
      <trkpt lat="40.238333" lon="-4.936917">
        <ele>1392.0</ele>
        <time>2015-05-10T12:21:52Z</time>
      </trkpt>
      <trkpt lat="40.238217" lon="-4.937167">
        <ele>1391.0</ele>
        <time>2015-05-10T12:21:54Z</time>
      </trkpt>
      <trkpt lat="40.238100" lon="-4.937400">
        <ele>1390.0</ele>
        <time>2015-05-10T12:21:56Z</time>
      </trkpt>
      <trkpt lat="40.237983" lon="-4.937633">
        <ele>1387.0</ele>
        <time>2015-05-10T12:21:58Z</time>
      </trkpt>
      <trkpt lat="40.237883" lon="-4.937900">
        <ele>1385.0</ele>
        <time>2015-05-10T12:22:00Z</time>
      </trkpt>
      <trkpt lat="40.237800" lon="-4.938133">
        <ele>1383.0</ele>
        <time>2015-05-10T12:22:02Z</time>
      </trkpt>
      <trkpt lat="40.237700" lon="-4.938383">
        <ele>1380.0</ele>
        <time>2015-05-10T12:22:04Z</time>
      </trkpt>
      <trkpt lat="40.237600" lon="-4.938650">
        <ele>1378.0</ele>
        <time>2015-05-10T12:22:06Z</time>
      </trkpt>
      <trkpt lat="40.237517" lon="-4.938900">
        <ele>1377.0</ele>
        <time>2015-05-10T12:22:08Z</time>
      </trkpt>
      <trkpt lat="40.237417" lon="-4.939133">
        <ele>1374.0</ele>
        <time>2015-05-10T12:22:10Z</time>
      </trkpt>
      <trkpt lat="40.237333" lon="-4.939383">
        <ele>1371.0</ele>
        <time>2015-05-10T12:22:12Z</time>
      </trkpt>
      <trkpt lat="40.237233" lon="-4.939633">
        <ele>1370.0</ele>
        <time>2015-05-10T12:22:14Z</time>
      </trkpt>
      <trkpt lat="40.237133" lon="-4.939883">
        <ele>1367.0</ele>
        <time>2015-05-10T12:22:16Z</time>
      </trkpt>
      <trkpt lat="40.237050" lon="-4.940150">
        <ele>1365.0</ele>
        <time>2015-05-10T12:22:18Z</time>
      </trkpt>
      <trkpt lat="40.236933" lon="-4.940400">
        <ele>1364.0</ele>
        <time>2015-05-10T12:22:20Z</time>
      </trkpt>
      <trkpt lat="40.236850" lon="-4.940633">
        <ele>1363.0</ele>
        <time>2015-05-10T12:22:22Z</time>
      </trkpt>
      <trkpt lat="40.236750" lon="-4.940883">
        <ele>1360.0</ele>
        <time>2015-05-10T12:22:24Z</time>
      </trkpt>
      <trkpt lat="40.236633" lon="-4.941133">
        <ele>1358.0</ele>
        <time>2015-05-10T12:22:26Z</time>
      </trkpt>
      <trkpt lat="40.236517" lon="-4.941367">
        <ele>1357.0</ele>
        <time>2015-05-10T12:22:28Z</time>
      </trkpt>
      <trkpt lat="40.236400" lon="-4.941600">
        <ele>1355.0</ele>
        <time>2015-05-10T12:22:30Z</time>
      </trkpt>
      <trkpt lat="40.236283" lon="-4.941833">
        <ele>1353.0</ele>
        <time>2015-05-10T12:22:32Z</time>
      </trkpt>
      <trkpt lat="40.236167" lon="-4.942067">
        <ele>1351.0</ele>
        <time>2015-05-10T12:22:34Z</time>
      </trkpt>
      <trkpt lat="40.236050" lon="-4.942283">
        <ele>1350.0</ele>
        <time>2015-05-10T12:22:36Z</time>
      </trkpt>
      <trkpt lat="40.235933" lon="-4.942483">
        <ele>1347.0</ele>
        <time>2015-05-10T12:22:38Z</time>
      </trkpt>
      <trkpt lat="40.235817" lon="-4.942700">
        <ele>1343.0</ele>
        <time>2015-05-10T12:22:40Z</time>
      </trkpt>
      <trkpt lat="40.235683" lon="-4.942933">
        <ele>1339.0</ele>
        <time>2015-05-10T12:22:42Z</time>
      </trkpt>
      <trkpt lat="40.235567" lon="-4.943150">
        <ele>1336.0</ele>
        <time>2015-05-10T12:22:44Z</time>
      </trkpt>
      <trkpt lat="40.235467" lon="-4.943383">
        <ele>1333.0</ele>
        <time>2015-05-10T12:22:46Z</time>
      </trkpt>
      <trkpt lat="40.235350" lon="-4.943617">
        <ele>1329.0</ele>
        <time>2015-05-10T12:22:48Z</time>
      </trkpt>
      <trkpt lat="40.235217" lon="-4.943867">
        <ele>1327.0</ele>
        <time>2015-05-10T12:22:50Z</time>
      </trkpt>
      <trkpt lat="40.235100" lon="-4.944117">
        <ele>1326.0</ele>
        <time>2015-05-10T12:22:52Z</time>
      </trkpt>
      <trkpt lat="40.235000" lon="-4.944350">
        <ele>1325.0</ele>
        <time>2015-05-10T12:22:54Z</time>
      </trkpt>
      <trkpt lat="40.234867" lon="-4.944600">
        <ele>1323.0</ele>
        <time>2015-05-10T12:22:56Z</time>
      </trkpt>
      <trkpt lat="40.234750" lon="-4.944833">
        <ele>1323.0</ele>
        <time>2015-05-10T12:22:58Z</time>
      </trkpt>
      <trkpt lat="40.234633" lon="-4.945067">
        <ele>1323.0</ele>
        <time>2015-05-10T12:23:00Z</time>
      </trkpt>
      <trkpt lat="40.234533" lon="-4.945300">
        <ele>1321.0</ele>
        <time>2015-05-10T12:23:02Z</time>
      </trkpt>
      <trkpt lat="40.234417" lon="-4.945567">
        <ele>1320.0</ele>
        <time>2015-05-10T12:23:04Z</time>
      </trkpt>
      <trkpt lat="40.234283" lon="-4.945833">
        <ele>1320.0</ele>
        <time>2015-05-10T12:23:06Z</time>
      </trkpt>
      <trkpt lat="40.234167" lon="-4.946067">
        <ele>1320.0</ele>
        <time>2015-05-10T12:23:08Z</time>
      </trkpt>
      <trkpt lat="40.234033" lon="-4.946317">
        <ele>1318.0</ele>
        <time>2015-05-10T12:23:10Z</time>
      </trkpt>
      <trkpt lat="40.233883" lon="-4.946567">
        <ele>1318.0</ele>
        <time>2015-05-10T12:23:12Z</time>
      </trkpt>
      <trkpt lat="40.233783" lon="-4.946833">
        <ele>1319.0</ele>
        <time>2015-05-10T12:23:14Z</time>
      </trkpt>
      <trkpt lat="40.233700" lon="-4.947083">
        <ele>1318.0</ele>
        <time>2015-05-10T12:23:16Z</time>
      </trkpt>
      <trkpt lat="40.233617" lon="-4.947333">
        <ele>1315.0</ele>
        <time>2015-05-10T12:23:18Z</time>
      </trkpt>
      <trkpt lat="40.233517" lon="-4.947600">
        <ele>1312.0</ele>
        <time>2015-05-10T12:23:20Z</time>
      </trkpt>
      <trkpt lat="40.233383" lon="-4.947867">
        <ele>1308.0</ele>
        <time>2015-05-10T12:23:22Z</time>
      </trkpt>
      <trkpt lat="40.233267" lon="-4.948117">
        <ele>1305.0</ele>
        <time>2015-05-10T12:23:24Z</time>
      </trkpt>
      <trkpt lat="40.233167" lon="-4.948383">
        <ele>1300.0</ele>
        <time>2015-05-10T12:23:26Z</time>
      </trkpt>
      <trkpt lat="40.233067" lon="-4.948650">
        <ele>1296.0</ele>
        <time>2015-05-10T12:23:28Z</time>
      </trkpt>
      <trkpt lat="40.233000" lon="-4.948933">
        <ele>1293.0</ele>
        <time>2015-05-10T12:23:30Z</time>
      </trkpt>
      <trkpt lat="40.232917" lon="-4.949200">
        <ele>1290.0</ele>
        <time>2015-05-10T12:23:32Z</time>
      </trkpt>
      <trkpt lat="40.232817" lon="-4.949450">
        <ele>1287.0</ele>
        <time>2015-05-10T12:23:34Z</time>
      </trkpt>
      <trkpt lat="40.232733" lon="-4.949717">
        <ele>1285.0</ele>
        <time>2015-05-10T12:23:36Z</time>
      </trkpt>
      <trkpt lat="40.232650" lon="-4.949983">
        <ele>1282.0</ele>
        <time>2015-05-10T12:23:38Z</time>
      </trkpt>
      <trkpt lat="40.232550" lon="-4.950267">
        <ele>1280.0</ele>
        <time>2015-05-10T12:23:40Z</time>
      </trkpt>
      <trkpt lat="40.232467" lon="-4.950533">
        <ele>1281.0</ele>
        <time>2015-05-10T12:23:42Z</time>
      </trkpt>
      <trkpt lat="40.232400" lon="-4.950783">
        <ele>1280.0</ele>
        <time>2015-05-10T12:23:44Z</time>
      </trkpt>
      <trkpt lat="40.232317" lon="-4.951050">
        <ele>1278.0</ele>
        <time>2015-05-10T12:23:46Z</time>
      </trkpt>
      <trkpt lat="40.232250" lon="-4.951333">
        <ele>1278.0</ele>
        <time>2015-05-10T12:23:48Z</time>
      </trkpt>
      <trkpt lat="40.232217" lon="-4.951617">
        <ele>1281.0</ele>
        <time>2015-05-10T12:23:50Z</time>
      </trkpt>
      <trkpt lat="40.232233" lon="-4.951900">
        <ele>1283.0</ele>
        <time>2015-05-10T12:23:52Z</time>
      </trkpt>
      <trkpt lat="40.232283" lon="-4.952200">
        <ele>1283.0</ele>
        <time>2015-05-10T12:23:54Z</time>
      </trkpt>
      <trkpt lat="40.232300" lon="-4.952550">
        <ele>1282.0</ele>
        <time>2015-05-10T12:23:56Z</time>
      </trkpt>
      <trkpt lat="40.232250" lon="-4.952883">
        <ele>1286.0</ele>
        <time>2015-05-10T12:23:58Z</time>
      </trkpt>
      <trkpt lat="40.232183" lon="-4.953133">
        <ele>1286.0</ele>
        <time>2015-05-10T12:24:00Z</time>
      </trkpt>
      <trkpt lat="40.232083" lon="-4.953367">
        <ele>1284.0</ele>
        <time>2015-05-10T12:24:02Z</time>
      </trkpt>
      <trkpt lat="40.231967" lon="-4.953633">
        <ele>1282.0</ele>
        <time>2015-05-10T12:24:04Z</time>
      </trkpt>
      <trkpt lat="40.231867" lon="-4.953917">
        <ele>1283.0</ele>
        <time>2015-05-10T12:24:06Z</time>
      </trkpt>
      <trkpt lat="40.231817" lon="-4.954200">
        <ele>1283.0</ele>
        <time>2015-05-10T12:24:08Z</time>
      </trkpt>
      <trkpt lat="40.231783" lon="-4.954517">
        <ele>1284.0</ele>
        <time>2015-05-10T12:24:10Z</time>
      </trkpt>
      <trkpt lat="40.231817" lon="-4.954833">
        <ele>1287.0</ele>
        <time>2015-05-10T12:24:12Z</time>
      </trkpt>
      <trkpt lat="40.231867" lon="-4.955083">
        <ele>1291.0</ele>
        <time>2015-05-10T12:24:14Z</time>
      </trkpt>
      <trkpt lat="40.232000" lon="-4.955300">
        <ele>1291.0</ele>
        <time>2015-05-10T12:24:16Z</time>
      </trkpt>
      <trkpt lat="40.232217" lon="-4.955400">
        <ele>1290.0</ele>
        <time>2015-05-10T12:24:18Z</time>
      </trkpt>
      <trkpt lat="40.232433" lon="-4.955433">
        <ele>1292.0</ele>
        <time>2015-05-10T12:24:20Z</time>
      </trkpt>
      <trkpt lat="40.232617" lon="-4.955417">
        <ele>1298.0</ele>
        <time>2015-05-10T12:24:22Z</time>
      </trkpt>
      <trkpt lat="40.232733" lon="-4.955317">
        <ele>1301.0</ele>
        <time>2015-05-10T12:24:24Z</time>
      </trkpt>
      <trkpt lat="40.232767" lon="-4.955150">
        <ele>1301.0</ele>
        <time>2015-05-10T12:24:26Z</time>
      </trkpt>
      <trkpt lat="40.232700" lon="-4.954983">
        <ele>1304.0</ele>
        <time>2015-05-10T12:24:28Z</time>
      </trkpt>
      <trkpt lat="40.232633" lon="-4.954900">
        <ele>1308.0</ele>
        <time>2015-05-10T12:24:30Z</time>
      </trkpt>
      <trkpt lat="40.232517" lon="-4.954867">
        <ele>1307.0</ele>
        <time>2015-05-10T12:24:32Z</time>
      </trkpt>
      <trkpt lat="40.232350" lon="-4.954917">
        <ele>1305.0</ele>
        <time>2015-05-10T12:24:34Z</time>
      </trkpt>
      <trkpt lat="40.232183" lon="-4.955050">
        <ele>1306.0</ele>
        <time>2015-05-10T12:24:36Z</time>
      </trkpt>
      <trkpt lat="40.232050" lon="-4.955233">
        <ele>1305.0</ele>
        <time>2015-05-10T12:24:38Z</time>
      </trkpt>
      <trkpt lat="40.231933" lon="-4.955483">
        <ele>1305.0</ele>
        <time>2015-05-10T12:24:40Z</time>
      </trkpt>
      <trkpt lat="40.231867" lon="-4.955783">
        <ele>1306.0</ele>
        <time>2015-05-10T12:24:42Z</time>
      </trkpt>
      <trkpt lat="40.231883" lon="-4.956050">
        <ele>1307.0</ele>
        <time>2015-05-10T12:24:44Z</time>
      </trkpt>
      <trkpt lat="40.231983" lon="-4.956283">
        <ele>1307.0</ele>
        <time>2015-05-10T12:24:46Z</time>
      </trkpt>
      <trkpt lat="40.232117" lon="-4.956467">
        <ele>1308.0</ele>
        <time>2015-05-10T12:24:48Z</time>
      </trkpt>
      <trkpt lat="40.232283" lon="-4.956567">
        <ele>1307.0</ele>
        <time>2015-05-10T12:24:50Z</time>
      </trkpt>
      <trkpt lat="40.232467" lon="-4.956583">
        <ele>1304.0</ele>
        <time>2015-05-10T12:24:52Z</time>
      </trkpt>
      <trkpt lat="40.232667" lon="-4.956483">
        <ele>1303.0</ele>
        <time>2015-05-10T12:24:54Z</time>
      </trkpt>
      <trkpt lat="40.232783" lon="-4.956350">
        <ele>1308.0</ele>
        <time>2015-05-10T12:24:56Z</time>
      </trkpt>
      <trkpt lat="40.232850" lon="-4.956250">
        <ele>1312.0</ele>
        <time>2015-05-10T12:24:58Z</time>
      </trkpt>
      <trkpt lat="40.232900" lon="-4.956100">
        <ele>1312.0</ele>
        <time>2015-05-10T12:25:00Z</time>
      </trkpt>
      <trkpt lat="40.232867" lon="-4.955933">
        <ele>1311.0</ele>
        <time>2015-05-10T12:25:02Z</time>
      </trkpt>
      <trkpt lat="40.232800" lon="-4.955817">
        <ele>1312.0</ele>
        <time>2015-05-10T12:25:04Z</time>
      </trkpt>
      <trkpt lat="40.232717" lon="-4.955717">
        <ele>1310.0</ele>
        <time>2015-05-10T12:25:06Z</time>
      </trkpt>
      <trkpt lat="40.232600" lon="-4.955600">
        <ele>1310.0</ele>
        <time>2015-05-10T12:25:08Z</time>
      </trkpt>
      <trkpt lat="40.232483" lon="-4.955517">
        <ele>1313.0</ele>
        <time>2015-05-10T12:25:10Z</time>
      </trkpt>
      <trkpt lat="40.232350" lon="-4.955500">
        <ele>1315.0</ele>
        <time>2015-05-10T12:25:12Z</time>
      </trkpt>
      <trkpt lat="40.232217" lon="-4.955550">
        <ele>1317.0</ele>
        <time>2015-05-10T12:25:14Z</time>
      </trkpt>
      <trkpt lat="40.232100" lon="-4.955650">
        <ele>1321.0</ele>
        <time>2015-05-10T12:25:16Z</time>
      </trkpt>
      <trkpt lat="40.231967" lon="-4.955783">
        <ele>1322.0</ele>
        <time>2015-05-10T12:25:18Z</time>
      </trkpt>
      <trkpt lat="40.231883" lon="-4.956000">
        <ele>1322.0</ele>
        <time>2015-05-10T12:25:20Z</time>
      </trkpt>
      <trkpt lat="40.231800" lon="-4.956250">
        <ele>1322.0</ele>
        <time>2015-05-10T12:25:22Z</time>
      </trkpt>
      <trkpt lat="40.231683" lon="-4.956450">
        <ele>1323.0</ele>
        <time>2015-05-10T12:25:24Z</time>
      </trkpt>
      <trkpt lat="40.231583" lon="-4.956650">
        <ele>1327.0</ele>
        <time>2015-05-10T12:25:26Z</time>
      </trkpt>
      <trkpt lat="40.231583" lon="-4.956900">
        <ele>1330.0</ele>
        <time>2015-05-10T12:25:28Z</time>
      </trkpt>
      <trkpt lat="40.231633" lon="-4.957150">
        <ele>1332.0</ele>
        <time>2015-05-10T12:25:30Z</time>
      </trkpt>
      <trkpt lat="40.231733" lon="-4.957400">
        <ele>1332.0</ele>
        <time>2015-05-10T12:25:32Z</time>
      </trkpt>
      <trkpt lat="40.231917" lon="-4.957550">
        <ele>1332.0</ele>
        <time>2015-05-10T12:25:34Z</time>
      </trkpt>
      <trkpt lat="40.232100" lon="-4.957567">
        <ele>1335.0</ele>
        <time>2015-05-10T12:25:36Z</time>
      </trkpt>
      <trkpt lat="40.232267" lon="-4.957500">
        <ele>1333.0</ele>
        <time>2015-05-10T12:25:38Z</time>
      </trkpt>
      <trkpt lat="40.232450" lon="-4.957350">
        <ele>1334.0</ele>
        <time>2015-05-10T12:25:40Z</time>
      </trkpt>
      <trkpt lat="40.232550" lon="-4.957200">
        <ele>1342.0</ele>
        <time>2015-05-10T12:25:42Z</time>
      </trkpt>
      <trkpt lat="40.232600" lon="-4.957083">
        <ele>1344.0</ele>
        <time>2015-05-10T12:25:44Z</time>
      </trkpt>
      <trkpt lat="40.232617" lon="-4.956900">
        <ele>1341.0</ele>
        <time>2015-05-10T12:25:46Z</time>
      </trkpt>
      <trkpt lat="40.232550" lon="-4.956733">
        <ele>1340.0</ele>
        <time>2015-05-10T12:25:48Z</time>
      </trkpt>
      <trkpt lat="40.232467" lon="-4.956633">
        <ele>1343.0</ele>
        <time>2015-05-10T12:25:50Z</time>
      </trkpt>
      <trkpt lat="40.232367" lon="-4.956550">
        <ele>1343.0</ele>
        <time>2015-05-10T12:25:52Z</time>
      </trkpt>
      <trkpt lat="40.232217" lon="-4.956483">
        <ele>1343.0</ele>
        <time>2015-05-10T12:25:54Z</time>
      </trkpt>
      <trkpt lat="40.232083" lon="-4.956483">
        <ele>1346.0</ele>
        <time>2015-05-10T12:25:56Z</time>
      </trkpt>
      <trkpt lat="40.231950" lon="-4.956500">
        <ele>1345.0</ele>
        <time>2015-05-10T12:25:58Z</time>
      </trkpt>
      <trkpt lat="40.231783" lon="-4.956617">
        <ele>1344.0</ele>
        <time>2015-05-10T12:26:00Z</time>
      </trkpt>
      <trkpt lat="40.231633" lon="-4.956767">
        <ele>1348.0</ele>
        <time>2015-05-10T12:26:02Z</time>
      </trkpt>
      <trkpt lat="40.231517" lon="-4.956917">
        <ele>1350.0</ele>
        <time>2015-05-10T12:26:04Z</time>
      </trkpt>
      <trkpt lat="40.231417" lon="-4.957150">
        <ele>1348.0</ele>
        <time>2015-05-10T12:26:06Z</time>
      </trkpt>
      <trkpt lat="40.231367" lon="-4.957417">
        <ele>1351.0</ele>
        <time>2015-05-10T12:26:08Z</time>
      </trkpt>
      <trkpt lat="40.231367" lon="-4.957700">
        <ele>1356.0</ele>
        <time>2015-05-10T12:26:10Z</time>
      </trkpt>
      <trkpt lat="40.231417" lon="-4.957950">
        <ele>1364.0</ele>
        <time>2015-05-10T12:26:12Z</time>
      </trkpt>
      <trkpt lat="40.231500" lon="-4.958150">
        <ele>1368.0</ele>
        <time>2015-05-10T12:26:14Z</time>
      </trkpt>
      <trkpt lat="40.231683" lon="-4.958300">
        <ele>1371.0</ele>
        <time>2015-05-10T12:26:16Z</time>
      </trkpt>
      <trkpt lat="40.231867" lon="-4.958283">
        <ele>1375.0</ele>
        <time>2015-05-10T12:26:18Z</time>
      </trkpt>
      <trkpt lat="40.232033" lon="-4.958183">
        <ele>1379.0</ele>
        <time>2015-05-10T12:26:20Z</time>
      </trkpt>
      <trkpt lat="40.232117" lon="-4.958083">
        <ele>1384.0</ele>
        <time>2015-05-10T12:26:22Z</time>
      </trkpt>
      <trkpt lat="40.232100" lon="-4.957917">
        <ele>1382.0</ele>
        <time>2015-05-10T12:26:24Z</time>
      </trkpt>
      <trkpt lat="40.231950" lon="-4.957817">
        <ele>1383.0</ele>
        <time>2015-05-10T12:26:26Z</time>
      </trkpt>
      <trkpt lat="40.231767" lon="-4.957850">
        <ele>1388.0</ele>
        <time>2015-05-10T12:26:28Z</time>
      </trkpt>
      <trkpt lat="40.231617" lon="-4.957900">
        <ele>1396.0</ele>
        <time>2015-05-10T12:26:30Z</time>
      </trkpt>
      <trkpt lat="40.231500" lon="-4.958000">
        <ele>1399.0</ele>
        <time>2015-05-10T12:26:32Z</time>
      </trkpt>
      <trkpt lat="40.231400" lon="-4.958217">
        <ele>1401.0</ele>
        <time>2015-05-10T12:26:34Z</time>
      </trkpt>
      <trkpt lat="40.231383" lon="-4.958467">
        <ele>1407.0</ele>
        <time>2015-05-10T12:26:36Z</time>
      </trkpt>
      <trkpt lat="40.231450" lon="-4.958650">
        <ele>1409.0</ele>
        <time>2015-05-10T12:26:38Z</time>
      </trkpt>
      <trkpt lat="40.231567" lon="-4.958800">
        <ele>1406.0</ele>
        <time>2015-05-10T12:26:40Z</time>
      </trkpt>
      <trkpt lat="40.231750" lon="-4.958883">
        <ele>1403.0</ele>
        <time>2015-05-10T12:26:42Z</time>
      </trkpt>
      <trkpt lat="40.231950" lon="-4.958850">
        <ele>1404.0</ele>
        <time>2015-05-10T12:26:44Z</time>
      </trkpt>
      <trkpt lat="40.232150" lon="-4.958850">
        <ele>1405.0</ele>
        <time>2015-05-10T12:26:46Z</time>
      </trkpt>
      <trkpt lat="40.232367" lon="-4.958800">
        <ele>1405.0</ele>
        <time>2015-05-10T12:26:48Z</time>
      </trkpt>
      <trkpt lat="40.232533" lon="-4.958667">
        <ele>1406.0</ele>
        <time>2015-05-10T12:26:50Z</time>
      </trkpt>
      <trkpt lat="40.232750" lon="-4.958633">
        <ele>1407.0</ele>
        <time>2015-05-10T12:26:52Z</time>
      </trkpt>
      <trkpt lat="40.232967" lon="-4.958667">
        <ele>1413.0</ele>
        <time>2015-05-10T12:26:54Z</time>
      </trkpt>
      <trkpt lat="40.233150" lon="-4.958650">
        <ele>1417.0</ele>
        <time>2015-05-10T12:26:56Z</time>
      </trkpt>
      <trkpt lat="40.233250" lon="-4.958483">
        <ele>1417.0</ele>
        <time>2015-05-10T12:26:58Z</time>
      </trkpt>
      <trkpt lat="40.233250" lon="-4.958267">
        <ele>1418.0</ele>
        <time>2015-05-10T12:27:00Z</time>
      </trkpt>
      <trkpt lat="40.233167" lon="-4.958133">
        <ele>1422.0</ele>
        <time>2015-05-10T12:27:02Z</time>
      </trkpt>
      <trkpt lat="40.233083" lon="-4.958067">
        <ele>1425.0</ele>
        <time>2015-05-10T12:27:04Z</time>
      </trkpt>
      <trkpt lat="40.232967" lon="-4.958067">
        <ele>1424.0</ele>
        <time>2015-05-10T12:27:06Z</time>
      </trkpt>
      <trkpt lat="40.232783" lon="-4.958083">
        <ele>1424.0</ele>
        <time>2015-05-10T12:27:08Z</time>
      </trkpt>
      <trkpt lat="40.232633" lon="-4.958133">
        <ele>1426.0</ele>
        <time>2015-05-10T12:27:10Z</time>
      </trkpt>
      <trkpt lat="40.232483" lon="-4.958183">
        <ele>1426.0</ele>
        <time>2015-05-10T12:27:12Z</time>
      </trkpt>
      <trkpt lat="40.232317" lon="-4.958267">
        <ele>1425.0</ele>
        <time>2015-05-10T12:27:14Z</time>
      </trkpt>
      <trkpt lat="40.232167" lon="-4.958400">
        <ele>1426.0</ele>
        <time>2015-05-10T12:27:16Z</time>
      </trkpt>
      <trkpt lat="40.232017" lon="-4.958583">
        <ele>1428.0</ele>
        <time>2015-05-10T12:27:18Z</time>
      </trkpt>
      <trkpt lat="40.231900" lon="-4.958750">
        <ele>1430.0</ele>
        <time>2015-05-10T12:27:20Z</time>
      </trkpt>
      <trkpt lat="40.231767" lon="-4.958917">
        <ele>1431.0</ele>
        <time>2015-05-10T12:27:22Z</time>
      </trkpt>
      <trkpt lat="40.231600" lon="-4.959050">
        <ele>1434.0</ele>
        <time>2015-05-10T12:27:24Z</time>
      </trkpt>
      <trkpt lat="40.231417" lon="-4.959150">
        <ele>1441.0</ele>
        <time>2015-05-10T12:27:26Z</time>
      </trkpt>
      <trkpt lat="40.231283" lon="-4.959183">
        <ele>1445.0</ele>
        <time>2015-05-10T12:27:28Z</time>
      </trkpt>
      <trkpt lat="40.231150" lon="-4.959167">
        <ele>1446.0</ele>
        <time>2015-05-10T12:27:30Z</time>
      </trkpt>
      <trkpt lat="40.231033" lon="-4.959067">
        <ele>1448.0</ele>
        <time>2015-05-10T12:27:32Z</time>
      </trkpt>
      <trkpt lat="40.231000" lon="-4.958933">
        <ele>1451.0</ele>
        <time>2015-05-10T12:27:34Z</time>
      </trkpt>
      <trkpt lat="40.231050" lon="-4.958817">
        <ele>1453.0</ele>
        <time>2015-05-10T12:27:36Z</time>
      </trkpt>
      <trkpt lat="40.231167" lon="-4.958717">
        <ele>1453.0</ele>
        <time>2015-05-10T12:27:38Z</time>
      </trkpt>
      <trkpt lat="40.231317" lon="-4.958700">
        <ele>1453.0</ele>
        <time>2015-05-10T12:27:40Z</time>
      </trkpt>
      <trkpt lat="40.231483" lon="-4.958783">
        <ele>1454.0</ele>
        <time>2015-05-10T12:27:42Z</time>
      </trkpt>
      <trkpt lat="40.231617" lon="-4.958950">
        <ele>1455.0</ele>
        <time>2015-05-10T12:27:44Z</time>
      </trkpt>
      <trkpt lat="40.231733" lon="-4.959183">
        <ele>1455.0</ele>
        <time>2015-05-10T12:27:46Z</time>
      </trkpt>
      <trkpt lat="40.231817" lon="-4.959450">
        <ele>1459.0</ele>
        <time>2015-05-10T12:27:48Z</time>
      </trkpt>
      <trkpt lat="40.231900" lon="-4.959683">
        <ele>1465.0</ele>
        <time>2015-05-10T12:27:50Z</time>
      </trkpt>
      <trkpt lat="40.232017" lon="-4.959850">
        <ele>1471.0</ele>
        <time>2015-05-10T12:27:52Z</time>
      </trkpt>
      <trkpt lat="40.232217" lon="-4.959900">
        <ele>1475.0</ele>
        <time>2015-05-10T12:27:54Z</time>
      </trkpt>
      <trkpt lat="40.232417" lon="-4.959833">
        <ele>1481.0</ele>
        <time>2015-05-10T12:27:56Z</time>
      </trkpt>
      <trkpt lat="40.232500" lon="-4.959700">
        <ele>1485.0</ele>
        <time>2015-05-10T12:27:58Z</time>
      </trkpt>
      <trkpt lat="40.232517" lon="-4.959567">
        <ele>1485.0</ele>
        <time>2015-05-10T12:28:00Z</time>
      </trkpt>
      <trkpt lat="40.232433" lon="-4.959417">
        <ele>1484.0</ele>
        <time>2015-05-10T12:28:02Z</time>
      </trkpt>
      <trkpt lat="40.232300" lon="-4.959367">
        <ele>1485.0</ele>
        <time>2015-05-10T12:28:04Z</time>
      </trkpt>
      <trkpt lat="40.232167" lon="-4.959417">
        <ele>1486.0</ele>
        <time>2015-05-10T12:28:06Z</time>
      </trkpt>
      <trkpt lat="40.232017" lon="-4.959533">
        <ele>1484.0</ele>
        <time>2015-05-10T12:28:08Z</time>
      </trkpt>
      <trkpt lat="40.231867" lon="-4.959750">
        <ele>1484.0</ele>
        <time>2015-05-10T12:28:10Z</time>
      </trkpt>
      <trkpt lat="40.231833" lon="-4.960050">
        <ele>1485.0</ele>
        <time>2015-05-10T12:28:12Z</time>
      </trkpt>
      <trkpt lat="40.231917" lon="-4.960367">
        <ele>1488.0</ele>
        <time>2015-05-10T12:28:14Z</time>
      </trkpt>
      <trkpt lat="40.232083" lon="-4.960517">
        <ele>1497.0</ele>
        <time>2015-05-10T12:28:16Z</time>
      </trkpt>
      <trkpt lat="40.232217" lon="-4.960567">
        <ele>1503.0</ele>
        <time>2015-05-10T12:28:18Z</time>
      </trkpt>
      <trkpt lat="40.232367" lon="-4.960567">
        <ele>1506.0</ele>
        <time>2015-05-10T12:28:20Z</time>
      </trkpt>
      <trkpt lat="40.232450" lon="-4.960400">
        <ele>1510.0</ele>
        <time>2015-05-10T12:28:22Z</time>
      </trkpt>
      <trkpt lat="40.232400" lon="-4.960250">
        <ele>1515.0</ele>
        <time>2015-05-10T12:28:24Z</time>
      </trkpt>
      <trkpt lat="40.232283" lon="-4.960183">
        <ele>1517.0</ele>
        <time>2015-05-10T12:28:26Z</time>
      </trkpt>
      <trkpt lat="40.232100" lon="-4.960217">
        <ele>1517.0</ele>
        <time>2015-05-10T12:28:28Z</time>
      </trkpt>
      <trkpt lat="40.231950" lon="-4.960400">
        <ele>1520.0</ele>
        <time>2015-05-10T12:28:30Z</time>
      </trkpt>
      <trkpt lat="40.231867" lon="-4.960650">
        <ele>1524.0</ele>
        <time>2015-05-10T12:28:32Z</time>
      </trkpt>
      <trkpt lat="40.231833" lon="-4.960950">
        <ele>1526.0</ele>
        <time>2015-05-10T12:28:34Z</time>
      </trkpt>
      <trkpt lat="40.231933" lon="-4.961250">
        <ele>1527.0</ele>
        <time>2015-05-10T12:28:36Z</time>
      </trkpt>
      <trkpt lat="40.232083" lon="-4.961483">
        <ele>1535.0</ele>
        <time>2015-05-10T12:28:38Z</time>
      </trkpt>
      <trkpt lat="40.232267" lon="-4.961583">
        <ele>1543.0</ele>
        <time>2015-05-10T12:28:40Z</time>
      </trkpt>
      <trkpt lat="40.232450" lon="-4.961583">
        <ele>1547.0</ele>
        <time>2015-05-10T12:28:42Z</time>
      </trkpt>
      <trkpt lat="40.232583" lon="-4.961433">
        <ele>1551.0</ele>
        <time>2015-05-10T12:28:44Z</time>
      </trkpt>
      <trkpt lat="40.232617" lon="-4.961217">
        <ele>1557.0</ele>
        <time>2015-05-10T12:28:46Z</time>
      </trkpt>
      <trkpt lat="40.232567" lon="-4.961067">
        <ele>1567.0</ele>
        <time>2015-05-10T12:28:48Z</time>
      </trkpt>
      <trkpt lat="40.232467" lon="-4.961000">
        <ele>1572.0</ele>
        <time>2015-05-10T12:28:50Z</time>
      </trkpt>
      <trkpt lat="40.232300" lon="-4.961000">
        <ele>1571.0</ele>
        <time>2015-05-10T12:28:52Z</time>
      </trkpt>
      <trkpt lat="40.232100" lon="-4.961117">
        <ele>1574.0</ele>
        <time>2015-05-10T12:28:54Z</time>
      </trkpt>
      <trkpt lat="40.231967" lon="-4.961300">
        <ele>1579.0</ele>
        <time>2015-05-10T12:28:56Z</time>
      </trkpt>
      <trkpt lat="40.231883" lon="-4.961517">
        <ele>1582.0</ele>
        <time>2015-05-10T12:28:58Z</time>
      </trkpt>
      <trkpt lat="40.231900" lon="-4.961833">
        <ele>1582.0</ele>
        <time>2015-05-10T12:29:00Z</time>
      </trkpt>
      <trkpt lat="40.232000" lon="-4.962133">
        <ele>1584.0</ele>
        <time>2015-05-10T12:29:02Z</time>
      </trkpt>
      <trkpt lat="40.232150" lon="-4.962350">
        <ele>1587.0</ele>
        <time>2015-05-10T12:29:04Z</time>
      </trkpt>
      <trkpt lat="40.232350" lon="-4.962483">
        <ele>1593.0</ele>
        <time>2015-05-10T12:29:06Z</time>
      </trkpt>
      <trkpt lat="40.232533" lon="-4.962483">
        <ele>1599.0</ele>
        <time>2015-05-10T12:29:08Z</time>
      </trkpt>
      <trkpt lat="40.232683" lon="-4.962383">
        <ele>1604.0</ele>
        <time>2015-05-10T12:29:10Z</time>
      </trkpt>
      <trkpt lat="40.232750" lon="-4.962200">
        <ele>1607.0</ele>
        <time>2015-05-10T12:29:12Z</time>
      </trkpt>
      <trkpt lat="40.232667" lon="-4.962000">
        <ele>1609.0</ele>
        <time>2015-05-10T12:29:14Z</time>
      </trkpt>
      <trkpt lat="40.232550" lon="-4.961867">
        <ele>1618.0</ele>
        <time>2015-05-10T12:29:16Z</time>
      </trkpt>
      <trkpt lat="40.232433" lon="-4.961833">
        <ele>1624.0</ele>
        <time>2015-05-10T12:29:18Z</time>
      </trkpt>
      <trkpt lat="40.232267" lon="-4.961833">
        <ele>1624.0</ele>
        <time>2015-05-10T12:29:20Z</time>
      </trkpt>
      <trkpt lat="40.232083" lon="-4.961933">
        <ele>1624.0</ele>
        <time>2015-05-10T12:29:22Z</time>
      </trkpt>
      <trkpt lat="40.231950" lon="-4.962117">
        <ele>1627.0</ele>
        <time>2015-05-10T12:29:24Z</time>
      </trkpt>
      <trkpt lat="40.231883" lon="-4.962367">
        <ele>1629.0</ele>
        <time>2015-05-10T12:29:26Z</time>
      </trkpt>
      <trkpt lat="40.231900" lon="-4.962667">
        <ele>1630.0</ele>
        <time>2015-05-10T12:29:28Z</time>
      </trkpt>
      <trkpt lat="40.231983" lon="-4.962917">
        <ele>1631.0</ele>
        <time>2015-05-10T12:29:30Z</time>
      </trkpt>
      <trkpt lat="40.232150" lon="-4.963100">
        <ele>1630.0</ele>
        <time>2015-05-10T12:29:32Z</time>
      </trkpt>
      <trkpt lat="40.232333" lon="-4.963150">
        <ele>1630.0</ele>
        <time>2015-05-10T12:29:34Z</time>
      </trkpt>
      <trkpt lat="40.232500" lon="-4.963067">
        <ele>1630.0</ele>
        <time>2015-05-10T12:29:36Z</time>
      </trkpt>
      <trkpt lat="40.232600" lon="-4.962917">
        <ele>1634.0</ele>
        <time>2015-05-10T12:29:38Z</time>
      </trkpt>
      <trkpt lat="40.232600" lon="-4.962767">
        <ele>1639.0</ele>
        <time>2015-05-10T12:29:40Z</time>
      </trkpt>
      <trkpt lat="40.232500" lon="-4.962633">
        <ele>1639.0</ele>
        <time>2015-05-10T12:29:42Z</time>
      </trkpt>
      <trkpt lat="40.232367" lon="-4.962600">
        <ele>1641.0</ele>
        <time>2015-05-10T12:29:44Z</time>
      </trkpt>
      <trkpt lat="40.232217" lon="-4.962633">
        <ele>1641.0</ele>
        <time>2015-05-10T12:29:46Z</time>
      </trkpt>
      <trkpt lat="40.232050" lon="-4.962750">
        <ele>1640.0</ele>
        <time>2015-05-10T12:29:48Z</time>
      </trkpt>
      <trkpt lat="40.231917" lon="-4.962950">
        <ele>1639.0</ele>
        <time>2015-05-10T12:29:50Z</time>
      </trkpt>
      <trkpt lat="40.231850" lon="-4.963200">
        <ele>1640.0</ele>
        <time>2015-05-10T12:29:52Z</time>
      </trkpt>
      <trkpt lat="40.231867" lon="-4.963483">
        <ele>1639.0</ele>
        <time>2015-05-10T12:29:54Z</time>
      </trkpt>
      <trkpt lat="40.231967" lon="-4.963783">
        <ele>1638.0</ele>
        <time>2015-05-10T12:29:56Z</time>
      </trkpt>
      <trkpt lat="40.232150" lon="-4.963967">
        <ele>1639.0</ele>
        <time>2015-05-10T12:29:58Z</time>
      </trkpt>
      <trkpt lat="40.232333" lon="-4.964050">
        <ele>1639.0</ele>
        <time>2015-05-10T12:30:00Z</time>
      </trkpt>
      <trkpt lat="40.232517" lon="-4.964100">
        <ele>1639.0</ele>
        <time>2015-05-10T12:30:02Z</time>
      </trkpt>
      <trkpt lat="40.232683" lon="-4.964050">
        <ele>1639.0</ele>
        <time>2015-05-10T12:30:04Z</time>
      </trkpt>
      <trkpt lat="40.232850" lon="-4.963967">
        <ele>1643.0</ele>
        <time>2015-05-10T12:30:06Z</time>
      </trkpt>
      <trkpt lat="40.233017" lon="-4.963900">
        <ele>1649.0</ele>
        <time>2015-05-10T12:30:08Z</time>
      </trkpt>
      <trkpt lat="40.233150" lon="-4.963800">
        <ele>1656.0</ele>
        <time>2015-05-10T12:30:10Z</time>
      </trkpt>
      <trkpt lat="40.233200" lon="-4.963650">
        <ele>1663.0</ele>
        <time>2015-05-10T12:30:12Z</time>
      </trkpt>
      <trkpt lat="40.233167" lon="-4.963517">
        <ele>1668.0</ele>
        <time>2015-05-10T12:30:14Z</time>
      </trkpt>
      <trkpt lat="40.233067" lon="-4.963417">
        <ele>1672.0</ele>
        <time>2015-05-10T12:30:16Z</time>
      </trkpt>
      <trkpt lat="40.232883" lon="-4.963483">
        <ele>1674.0</ele>
        <time>2015-05-10T12:30:18Z</time>
      </trkpt>
      <trkpt lat="40.232750" lon="-4.963633">
        <ele>1678.0</ele>
        <time>2015-05-10T12:30:20Z</time>
      </trkpt>
      <trkpt lat="40.232650" lon="-4.963850">
        <ele>1678.0</ele>
        <time>2015-05-10T12:30:22Z</time>
      </trkpt>
      <trkpt lat="40.232617" lon="-4.964150">
        <ele>1675.0</ele>
        <time>2015-05-10T12:30:24Z</time>
      </trkpt>
      <trkpt lat="40.232667" lon="-4.964467">
        <ele>1675.0</ele>
        <time>2015-05-10T12:30:26Z</time>
      </trkpt>
      <trkpt lat="40.232800" lon="-4.964700">
        <ele>1676.0</ele>
        <time>2015-05-10T12:30:28Z</time>
      </trkpt>
      <trkpt lat="40.232967" lon="-4.964917">
        <ele>1679.0</ele>
        <time>2015-05-10T12:30:30Z</time>
      </trkpt>
      <trkpt lat="40.233150" lon="-4.965067">
        <ele>1683.0</ele>
        <time>2015-05-10T12:30:32Z</time>
      </trkpt>
      <trkpt lat="40.233333" lon="-4.965017">
        <ele>1684.0</ele>
        <time>2015-05-10T12:30:34Z</time>
      </trkpt>
      <trkpt lat="40.233467" lon="-4.964883">
        <ele>1687.0</ele>
        <time>2015-05-10T12:30:36Z</time>
      </trkpt>
      <trkpt lat="40.233550" lon="-4.964750">
        <ele>1691.0</ele>
        <time>2015-05-10T12:30:38Z</time>
      </trkpt>
      <trkpt lat="40.233600" lon="-4.964567">
        <ele>1692.0</ele>
        <time>2015-05-10T12:30:40Z</time>
      </trkpt>
      <trkpt lat="40.233583" lon="-4.964350">
        <ele>1696.0</ele>
        <time>2015-05-10T12:30:42Z</time>
      </trkpt>
      <trkpt lat="40.233500" lon="-4.964233">
        <ele>1702.0</ele>
        <time>2015-05-10T12:30:44Z</time>
      </trkpt>
      <trkpt lat="40.233400" lon="-4.964167">
        <ele>1707.0</ele>
        <time>2015-05-10T12:30:46Z</time>
      </trkpt>
      <trkpt lat="40.233267" lon="-4.964150">
        <ele>1711.0</ele>
        <time>2015-05-10T12:30:48Z</time>
      </trkpt>
      <trkpt lat="40.233117" lon="-4.964250">
        <ele>1714.0</ele>
        <time>2015-05-10T12:30:50Z</time>
      </trkpt>
      <trkpt lat="40.232983" lon="-4.964450">
        <ele>1718.0</ele>
        <time>2015-05-10T12:30:52Z</time>
      </trkpt>
      <trkpt lat="40.232900" lon="-4.964700">
        <ele>1721.0</ele>
        <time>2015-05-10T12:30:54Z</time>
      </trkpt>
      <trkpt lat="40.232900" lon="-4.964967">
        <ele>1719.0</ele>
        <time>2015-05-10T12:30:56Z</time>
      </trkpt>
      <trkpt lat="40.233000" lon="-4.965250">
        <ele>1716.0</ele>
        <time>2015-05-10T12:30:58Z</time>
      </trkpt>
      <trkpt lat="40.233167" lon="-4.965467">
        <ele>1714.0</ele>
        <time>2015-05-10T12:31:00Z</time>
      </trkpt>
      <trkpt lat="40.233383" lon="-4.965600">
        <ele>1715.0</ele>
        <time>2015-05-10T12:31:02Z</time>
      </trkpt>
      <trkpt lat="40.233583" lon="-4.965600">
        <ele>1718.0</ele>
        <time>2015-05-10T12:31:04Z</time>
      </trkpt>
      <trkpt lat="40.233733" lon="-4.965533">
        <ele>1721.0</ele>
        <time>2015-05-10T12:31:06Z</time>
      </trkpt>
      <trkpt lat="40.233833" lon="-4.965417">
        <ele>1719.0</ele>
        <time>2015-05-10T12:31:08Z</time>
      </trkpt>
      <trkpt lat="40.233900" lon="-4.965217">
        <ele>1717.0</ele>
        <time>2015-05-10T12:31:10Z</time>
      </trkpt>
      <trkpt lat="40.233883" lon="-4.964983">
        <ele>1718.0</ele>
        <time>2015-05-10T12:31:12Z</time>
      </trkpt>
      <trkpt lat="40.233850" lon="-4.964783">
        <ele>1724.0</ele>
        <time>2015-05-10T12:31:14Z</time>
      </trkpt>
      <trkpt lat="40.233783" lon="-4.964633">
        <ele>1728.0</ele>
        <time>2015-05-10T12:31:16Z</time>
      </trkpt>
      <trkpt lat="40.233683" lon="-4.964500">
        <ele>1730.0</ele>
        <time>2015-05-10T12:31:18Z</time>
      </trkpt>
      <trkpt lat="40.233533" lon="-4.964433">
        <ele>1734.0</ele>
        <time>2015-05-10T12:31:20Z</time>
      </trkpt>
      <trkpt lat="40.233400" lon="-4.964417">
        <ele>1738.0</ele>
        <time>2015-05-10T12:31:22Z</time>
      </trkpt>
      <trkpt lat="40.233233" lon="-4.964500">
        <ele>1739.0</ele>
        <time>2015-05-10T12:31:24Z</time>
      </trkpt>
      <trkpt lat="40.233067" lon="-4.964717">
        <ele>1738.0</ele>
        <time>2015-05-10T12:31:26Z</time>
      </trkpt>
      <trkpt lat="40.232983" lon="-4.965000">
        <ele>1739.0</ele>
        <time>2015-05-10T12:31:28Z</time>
      </trkpt>
      <trkpt lat="40.233033" lon="-4.965267">
        <ele>1738.0</ele>
        <time>2015-05-10T12:31:30Z</time>
      </trkpt>
      <trkpt lat="40.233167" lon="-4.965500">
        <ele>1738.0</ele>
        <time>2015-05-10T12:31:32Z</time>
      </trkpt>
      <trkpt lat="40.233300" lon="-4.965717">
        <ele>1743.0</ele>
        <time>2015-05-10T12:31:34Z</time>
      </trkpt>
      <trkpt lat="40.233450" lon="-4.965900">
        <ele>1750.0</ele>
        <time>2015-05-10T12:31:36Z</time>
      </trkpt>
      <trkpt lat="40.233617" lon="-4.966017">
        <ele>1753.0</ele>
        <time>2015-05-10T12:31:38Z</time>
      </trkpt>
      <trkpt lat="40.233783" lon="-4.966000">
        <ele>1755.0</ele>
        <time>2015-05-10T12:31:40Z</time>
      </trkpt>
      <trkpt lat="40.233950" lon="-4.965917">
        <ele>1757.0</ele>
        <time>2015-05-10T12:31:42Z</time>
      </trkpt>
      <trkpt lat="40.234050" lon="-4.965767">
        <ele>1758.0</ele>
        <time>2015-05-10T12:31:44Z</time>
      </trkpt>
      <trkpt lat="40.234117" lon="-4.965550">
        <ele>1759.0</ele>
        <time>2015-05-10T12:31:46Z</time>
      </trkpt>
      <trkpt lat="40.234117" lon="-4.965333">
        <ele>1760.0</ele>
        <time>2015-05-10T12:31:48Z</time>
      </trkpt>
      <trkpt lat="40.234083" lon="-4.965133">
        <ele>1764.0</ele>
        <time>2015-05-10T12:31:50Z</time>
      </trkpt>
      <trkpt lat="40.234033" lon="-4.964950">
        <ele>1768.0</ele>
        <time>2015-05-10T12:31:52Z</time>
      </trkpt>
      <trkpt lat="40.233917" lon="-4.964817">
        <ele>1771.0</ele>
        <time>2015-05-10T12:31:54Z</time>
      </trkpt>
      <trkpt lat="40.233767" lon="-4.964750">
        <ele>1774.0</ele>
        <time>2015-05-10T12:31:56Z</time>
      </trkpt>
      <trkpt lat="40.233617" lon="-4.964733">
        <ele>1774.0</ele>
        <time>2015-05-10T12:31:58Z</time>
      </trkpt>
      <trkpt lat="40.233450" lon="-4.964800">
        <ele>1772.0</ele>
        <time>2015-05-10T12:32:00Z</time>
      </trkpt>
      <trkpt lat="40.233283" lon="-4.964967">
        <ele>1770.0</ele>
        <time>2015-05-10T12:32:02Z</time>
      </trkpt>
      <trkpt lat="40.233117" lon="-4.965050">
        <ele>1766.0</ele>
        <time>2015-05-10T12:32:04Z</time>
      </trkpt>
      <trkpt lat="40.232950" lon="-4.965083">
        <ele>1763.0</ele>
        <time>2015-05-10T12:32:06Z</time>
      </trkpt>
      <trkpt lat="40.232800" lon="-4.965150">
        <ele>1758.0</ele>
        <time>2015-05-10T12:32:08Z</time>
      </trkpt>
      <trkpt lat="40.232617" lon="-4.965150">
        <ele>1753.0</ele>
        <time>2015-05-10T12:32:10Z</time>
      </trkpt>
      <trkpt lat="40.232467" lon="-4.965083">
        <ele>1750.0</ele>
        <time>2015-05-10T12:32:12Z</time>
      </trkpt>
      <trkpt lat="40.232317" lon="-4.965033">
        <ele>1746.0</ele>
        <time>2015-05-10T12:32:14Z</time>
      </trkpt>
      <trkpt lat="40.232150" lon="-4.964950">
        <ele>1741.0</ele>
        <time>2015-05-10T12:32:16Z</time>
      </trkpt>
      <trkpt lat="40.231983" lon="-4.964867">
        <ele>1739.0</ele>
        <time>2015-05-10T12:32:18Z</time>
      </trkpt>
      <trkpt lat="40.231833" lon="-4.964800">
        <ele>1737.0</ele>
        <time>2015-05-10T12:32:20Z</time>
      </trkpt>
      <trkpt lat="40.231683" lon="-4.964733">
        <ele>1732.0</ele>
        <time>2015-05-10T12:32:22Z</time>
      </trkpt>
      <trkpt lat="40.231517" lon="-4.964650">
        <ele>1728.0</ele>
        <time>2015-05-10T12:32:24Z</time>
      </trkpt>
      <trkpt lat="40.231383" lon="-4.964567">
        <ele>1726.0</ele>
        <time>2015-05-10T12:32:26Z</time>
      </trkpt>
      <trkpt lat="40.231250" lon="-4.964483">
        <ele>1722.0</ele>
        <time>2015-05-10T12:32:28Z</time>
      </trkpt>
      <trkpt lat="40.231100" lon="-4.964383">
        <ele>1719.0</ele>
        <time>2015-05-10T12:32:30Z</time>
      </trkpt>
      <trkpt lat="40.230983" lon="-4.964283">
        <ele>1717.0</ele>
        <time>2015-05-10T12:32:32Z</time>
      </trkpt>
      <trkpt lat="40.230867" lon="-4.964150">
        <ele>1714.0</ele>
        <time>2015-05-10T12:32:34Z</time>
      </trkpt>
      <trkpt lat="40.230733" lon="-4.964050">
        <ele>1712.0</ele>
        <time>2015-05-10T12:32:36Z</time>
      </trkpt>
      <trkpt lat="40.230583" lon="-4.963983">
        <ele>1710.0</ele>
        <time>2015-05-10T12:32:38Z</time>
      </trkpt>
      <trkpt lat="40.230450" lon="-4.963967">
        <ele>1707.0</ele>
        <time>2015-05-10T12:32:40Z</time>
      </trkpt>
      <trkpt lat="40.230267" lon="-4.964000">
        <ele>1703.0</ele>
        <time>2015-05-10T12:32:42Z</time>
      </trkpt>
      <trkpt lat="40.230100" lon="-4.964017">
        <ele>1701.0</ele>
        <time>2015-05-10T12:32:44Z</time>
      </trkpt>
      <trkpt lat="40.229950" lon="-4.964017">
        <ele>1700.0</ele>
        <time>2015-05-10T12:32:46Z</time>
      </trkpt>
      <trkpt lat="40.229783" lon="-4.964017">
        <ele>1697.0</ele>
        <time>2015-05-10T12:32:48Z</time>
      </trkpt>
      <trkpt lat="40.229633" lon="-4.964033">
        <ele>1694.0</ele>
        <time>2015-05-10T12:32:50Z</time>
      </trkpt>
      <trkpt lat="40.229483" lon="-4.964067">
        <ele>1691.0</ele>
        <time>2015-05-10T12:32:52Z</time>
      </trkpt>
      <trkpt lat="40.229333" lon="-4.964133">
        <ele>1687.0</ele>
        <time>2015-05-10T12:32:54Z</time>
      </trkpt>
      <trkpt lat="40.229183" lon="-4.964200">
        <ele>1681.0</ele>
        <time>2015-05-10T12:32:56Z</time>
      </trkpt>
      <trkpt lat="40.229017" lon="-4.964250">
        <ele>1676.0</ele>
        <time>2015-05-10T12:32:58Z</time>
      </trkpt>
      <trkpt lat="40.228850" lon="-4.964283">
        <ele>1672.0</ele>
        <time>2015-05-10T12:33:00Z</time>
      </trkpt>
      <trkpt lat="40.228683" lon="-4.964300">
        <ele>1667.0</ele>
        <time>2015-05-10T12:33:02Z</time>
      </trkpt>
      <trkpt lat="40.228500" lon="-4.964333">
        <ele>1663.0</ele>
        <time>2015-05-10T12:33:04Z</time>
      </trkpt>
      <trkpt lat="40.228333" lon="-4.964350">
        <ele>1661.0</ele>
        <time>2015-05-10T12:33:06Z</time>
      </trkpt>
      <trkpt lat="40.228183" lon="-4.964400">
        <ele>1657.0</ele>
        <time>2015-05-10T12:33:08Z</time>
      </trkpt>
      <trkpt lat="40.228000" lon="-4.964433">
        <ele>1652.0</ele>
        <time>2015-05-10T12:33:10Z</time>
      </trkpt>
      <trkpt lat="40.227817" lon="-4.964483">
        <ele>1649.0</ele>
        <time>2015-05-10T12:33:12Z</time>
      </trkpt>
      <trkpt lat="40.227633" lon="-4.964533">
        <ele>1645.0</ele>
        <time>2015-05-10T12:33:14Z</time>
      </trkpt>
      <trkpt lat="40.227433" lon="-4.964617">
        <ele>1641.0</ele>
        <time>2015-05-10T12:33:16Z</time>
      </trkpt>
      <trkpt lat="40.227250" lon="-4.964700">
        <ele>1640.0</ele>
        <time>2015-05-10T12:33:18Z</time>
      </trkpt>
      <trkpt lat="40.227067" lon="-4.964767">
        <ele>1637.0</ele>
        <time>2015-05-10T12:33:20Z</time>
      </trkpt>
      <trkpt lat="40.226867" lon="-4.964817">
        <ele>1633.0</ele>
        <time>2015-05-10T12:33:22Z</time>
      </trkpt>
      <trkpt lat="40.226683" lon="-4.964900">
        <ele>1632.0</ele>
        <time>2015-05-10T12:33:24Z</time>
      </trkpt>
      <trkpt lat="40.226500" lon="-4.964983">
        <ele>1630.0</ele>
        <time>2015-05-10T12:33:26Z</time>
      </trkpt>
      <trkpt lat="40.226317" lon="-4.965067">
        <ele>1625.0</ele>
        <time>2015-05-10T12:33:28Z</time>
      </trkpt>
      <trkpt lat="40.226117" lon="-4.965167">
        <ele>1622.0</ele>
        <time>2015-05-10T12:33:30Z</time>
      </trkpt>
      <trkpt lat="40.225933" lon="-4.965267">
        <ele>1619.0</ele>
        <time>2015-05-10T12:33:32Z</time>
      </trkpt>
      <trkpt lat="40.225767" lon="-4.965367">
        <ele>1616.0</ele>
        <time>2015-05-10T12:33:34Z</time>
      </trkpt>
      <trkpt lat="40.225583" lon="-4.965500">
        <ele>1612.0</ele>
        <time>2015-05-10T12:33:36Z</time>
      </trkpt>
      <trkpt lat="40.225417" lon="-4.965667">
        <ele>1609.0</ele>
        <time>2015-05-10T12:33:38Z</time>
      </trkpt>
      <trkpt lat="40.225250" lon="-4.965833">
        <ele>1605.0</ele>
        <time>2015-05-10T12:33:40Z</time>
      </trkpt>
      <trkpt lat="40.225067" lon="-4.966000">
        <ele>1602.0</ele>
        <time>2015-05-10T12:33:42Z</time>
      </trkpt>
      <trkpt lat="40.224900" lon="-4.966150">
        <ele>1600.0</ele>
        <time>2015-05-10T12:33:44Z</time>
      </trkpt>
      <trkpt lat="40.224717" lon="-4.966317">
        <ele>1595.0</ele>
        <time>2015-05-10T12:33:46Z</time>
      </trkpt>
      <trkpt lat="40.224517" lon="-4.966467">
        <ele>1591.0</ele>
        <time>2015-05-10T12:33:48Z</time>
      </trkpt>
      <trkpt lat="40.224333" lon="-4.966600">
        <ele>1588.0</ele>
        <time>2015-05-10T12:33:50Z</time>
      </trkpt>
      <trkpt lat="40.224150" lon="-4.966700">
        <ele>1582.0</ele>
        <time>2015-05-10T12:33:52Z</time>
      </trkpt>
      <trkpt lat="40.223950" lon="-4.966833">
        <ele>1577.0</ele>
        <time>2015-05-10T12:33:54Z</time>
      </trkpt>
      <trkpt lat="40.223750" lon="-4.966967">
        <ele>1575.0</ele>
        <time>2015-05-10T12:33:56Z</time>
      </trkpt>
      <trkpt lat="40.223567" lon="-4.967133">
        <ele>1573.0</ele>
        <time>2015-05-10T12:33:58Z</time>
      </trkpt>
      <trkpt lat="40.223400" lon="-4.967333">
        <ele>1569.0</ele>
        <time>2015-05-10T12:34:00Z</time>
      </trkpt>
      <trkpt lat="40.223233" lon="-4.967567">
        <ele>1565.0</ele>
        <time>2015-05-10T12:34:02Z</time>
      </trkpt>
      <trkpt lat="40.223067" lon="-4.967767">
        <ele>1561.0</ele>
        <time>2015-05-10T12:34:04Z</time>
      </trkpt>
      <trkpt lat="40.222933" lon="-4.967967">
        <ele>1558.0</ele>
        <time>2015-05-10T12:34:06Z</time>
      </trkpt>
      <trkpt lat="40.222817" lon="-4.968167">
        <ele>1552.0</ele>
        <time>2015-05-10T12:34:08Z</time>
      </trkpt>
      <trkpt lat="40.222683" lon="-4.968383">
        <ele>1545.0</ele>
        <time>2015-05-10T12:34:10Z</time>
      </trkpt>
      <trkpt lat="40.222533" lon="-4.968583">
        <ele>1539.0</ele>
        <time>2015-05-10T12:34:12Z</time>
      </trkpt>
      <trkpt lat="40.222417" lon="-4.968783">
        <ele>1536.0</ele>
        <time>2015-05-10T12:34:14Z</time>
      </trkpt>
      <trkpt lat="40.222300" lon="-4.969000">
        <ele>1533.0</ele>
        <time>2015-05-10T12:34:16Z</time>
      </trkpt>
      <trkpt lat="40.222233" lon="-4.969217">
        <ele>1530.0</ele>
        <time>2015-05-10T12:34:18Z</time>
      </trkpt>
      <trkpt lat="40.222133" lon="-4.969450">
        <ele>1523.0</ele>
        <time>2015-05-10T12:34:20Z</time>
      </trkpt>
      <trkpt lat="40.222000" lon="-4.969717">
        <ele>1518.0</ele>
        <time>2015-05-10T12:34:22Z</time>
      </trkpt>
      <trkpt lat="40.221900" lon="-4.969950">
        <ele>1515.0</ele>
        <time>2015-05-10T12:34:24Z</time>
      </trkpt>
      <trkpt lat="40.221817" lon="-4.970183">
        <ele>1508.0</ele>
        <time>2015-05-10T12:34:26Z</time>
      </trkpt>
      <trkpt lat="40.221700" lon="-4.970483">
        <ele>1501.0</ele>
        <time>2015-05-10T12:34:28Z</time>
      </trkpt>
      <trkpt lat="40.221600" lon="-4.970750">
        <ele>1497.0</ele>
        <time>2015-05-10T12:34:30Z</time>
      </trkpt>
      <trkpt lat="40.221517" lon="-4.971000">
        <ele>1493.0</ele>
        <time>2015-05-10T12:34:32Z</time>
      </trkpt>
      <trkpt lat="40.221417" lon="-4.971283">
        <ele>1486.0</ele>
        <time>2015-05-10T12:34:34Z</time>
      </trkpt>
      <trkpt lat="40.221317" lon="-4.971600">
        <ele>1481.0</ele>
        <time>2015-05-10T12:34:36Z</time>
      </trkpt>
      <trkpt lat="40.221250" lon="-4.971883">
        <ele>1479.0</ele>
        <time>2015-05-10T12:34:38Z</time>
      </trkpt>
      <trkpt lat="40.221183" lon="-4.972167">
        <ele>1474.0</ele>
        <time>2015-05-10T12:34:40Z</time>
      </trkpt>
      <trkpt lat="40.221117" lon="-4.972450">
        <ele>1467.0</ele>
        <time>2015-05-10T12:34:42Z</time>
      </trkpt>
      <trkpt lat="40.221000" lon="-4.972767">
        <ele>1462.0</ele>
        <time>2015-05-10T12:34:44Z</time>
      </trkpt>
      <trkpt lat="40.220900" lon="-4.973033">
        <ele>1460.0</ele>
        <time>2015-05-10T12:34:46Z</time>
      </trkpt>
      <trkpt lat="40.220817" lon="-4.973283">
        <ele>1457.0</ele>
        <time>2015-05-10T12:34:48Z</time>
      </trkpt>
      <trkpt lat="40.220717" lon="-4.973533">
        <ele>1449.0</ele>
        <time>2015-05-10T12:34:50Z</time>
      </trkpt>
      <trkpt lat="40.220617" lon="-4.973800">
        <ele>1441.0</ele>
        <time>2015-05-10T12:34:52Z</time>
      </trkpt>
      <trkpt lat="40.220500" lon="-4.974083">
        <ele>1434.0</ele>
        <time>2015-05-10T12:34:54Z</time>
      </trkpt>
      <trkpt lat="40.220400" lon="-4.974333">
        <ele>1429.0</ele>
        <time>2015-05-10T12:34:56Z</time>
      </trkpt>
      <trkpt lat="40.220283" lon="-4.974583">
        <ele>1422.0</ele>
        <time>2015-05-10T12:34:58Z</time>
      </trkpt>
      <trkpt lat="40.220167" lon="-4.974833">
        <ele>1417.0</ele>
        <time>2015-05-10T12:35:00Z</time>
      </trkpt>
      <trkpt lat="40.220067" lon="-4.975050">
        <ele>1414.0</ele>
        <time>2015-05-10T12:35:02Z</time>
      </trkpt>
      <trkpt lat="40.219950" lon="-4.975267">
        <ele>1410.0</ele>
        <time>2015-05-10T12:35:04Z</time>
      </trkpt>
      <trkpt lat="40.219833" lon="-4.975517">
        <ele>1405.0</ele>
        <time>2015-05-10T12:35:06Z</time>
      </trkpt>
      <trkpt lat="40.219733" lon="-4.975783">
        <ele>1401.0</ele>
        <time>2015-05-10T12:35:08Z</time>
      </trkpt>
      <trkpt lat="40.219633" lon="-4.976017">
        <ele>1398.0</ele>
        <time>2015-05-10T12:35:10Z</time>
      </trkpt>
      <trkpt lat="40.219533" lon="-4.976267">
        <ele>1395.0</ele>
        <time>2015-05-10T12:35:12Z</time>
      </trkpt>
      <trkpt lat="40.219433" lon="-4.976533">
        <ele>1392.0</ele>
        <time>2015-05-10T12:35:14Z</time>
      </trkpt>
      <trkpt lat="40.219317" lon="-4.976817">
        <ele>1389.0</ele>
        <time>2015-05-10T12:35:16Z</time>
      </trkpt>
      <trkpt lat="40.219217" lon="-4.977083">
        <ele>1393.0</ele>
        <time>2015-05-10T12:35:18Z</time>
      </trkpt>
      <trkpt lat="40.219150" lon="-4.977350">
        <ele>1396.0</ele>
        <time>2015-05-10T12:35:20Z</time>
      </trkpt>
      <trkpt lat="40.219117" lon="-4.977633">
        <ele>1398.0</ele>
        <time>2015-05-10T12:35:22Z</time>
      </trkpt>
      <trkpt lat="40.219150" lon="-4.977900">
        <ele>1400.0</ele>
        <time>2015-05-10T12:35:24Z</time>
      </trkpt>
      <trkpt lat="40.219217" lon="-4.978150">
        <ele>1401.0</ele>
        <time>2015-05-10T12:35:26Z</time>
      </trkpt>
      <trkpt lat="40.219350" lon="-4.978367">
        <ele>1400.0</ele>
        <time>2015-05-10T12:35:28Z</time>
      </trkpt>
      <trkpt lat="40.219517" lon="-4.978500">
        <ele>1402.0</ele>
        <time>2015-05-10T12:35:30Z</time>
      </trkpt>
      <trkpt lat="40.219633" lon="-4.978500">
        <ele>1403.0</ele>
        <time>2015-05-10T12:35:32Z</time>
      </trkpt>
      <trkpt lat="40.219700" lon="-4.978450">
        <ele>1399.0</ele>
        <time>2015-05-10T12:35:34Z</time>
      </trkpt>
      <trkpt lat="40.219733" lon="-4.978267">
        <ele>1392.0</ele>
        <time>2015-05-10T12:35:36Z</time>
      </trkpt>
      <trkpt lat="40.219633" lon="-4.978067">
        <ele>1392.0</ele>
        <time>2015-05-10T12:35:38Z</time>
      </trkpt>
      <trkpt lat="40.219517" lon="-4.978000">
        <ele>1392.0</ele>
        <time>2015-05-10T12:35:40Z</time>
      </trkpt>
      <trkpt lat="40.219350" lon="-4.977933">
        <ele>1388.0</ele>
        <time>2015-05-10T12:35:42Z</time>
      </trkpt>
      <trkpt lat="40.219133" lon="-4.977933">
        <ele>1385.0</ele>
        <time>2015-05-10T12:35:44Z</time>
      </trkpt>
      <trkpt lat="40.218917" lon="-4.978033">
        <ele>1386.0</ele>
        <time>2015-05-10T12:35:46Z</time>
      </trkpt>
      <trkpt lat="40.218750" lon="-4.978183">
        <ele>1388.0</ele>
        <time>2015-05-10T12:35:48Z</time>
      </trkpt>
      <trkpt lat="40.218600" lon="-4.978383">
        <ele>1386.0</ele>
        <time>2015-05-10T12:35:50Z</time>
      </trkpt>
      <trkpt lat="40.218450" lon="-4.978650">
        <ele>1385.0</ele>
        <time>2015-05-10T12:35:52Z</time>
      </trkpt>
      <trkpt lat="40.218350" lon="-4.978933">
        <ele>1389.0</ele>
        <time>2015-05-10T12:35:54Z</time>
      </trkpt>
      <trkpt lat="40.218317" lon="-4.979167">
        <ele>1394.0</ele>
        <time>2015-05-10T12:35:56Z</time>
      </trkpt>
      <trkpt lat="40.218283" lon="-4.979367">
        <ele>1394.0</ele>
        <time>2015-05-10T12:35:58Z</time>
      </trkpt>
      <trkpt lat="40.218250" lon="-4.979617">
        <ele>1386.0</ele>
        <time>2015-05-10T12:36:00Z</time>
      </trkpt>
      <trkpt lat="40.218233" lon="-4.979900">
        <ele>1382.0</ele>
        <time>2015-05-10T12:36:02Z</time>
      </trkpt>
      <trkpt lat="40.218200" lon="-4.980183">
        <ele>1379.0</ele>
        <time>2015-05-10T12:36:04Z</time>
      </trkpt>
      <trkpt lat="40.218150" lon="-4.980450">
        <ele>1375.0</ele>
        <time>2015-05-10T12:36:06Z</time>
      </trkpt>
      <trkpt lat="40.218083" lon="-4.980750">
        <ele>1370.0</ele>
        <time>2015-05-10T12:36:08Z</time>
      </trkpt>
      <trkpt lat="40.218017" lon="-4.981050">
        <ele>1367.0</ele>
        <time>2015-05-10T12:36:10Z</time>
      </trkpt>
      <trkpt lat="40.217950" lon="-4.981367">
        <ele>1364.0</ele>
        <time>2015-05-10T12:36:12Z</time>
      </trkpt>
      <trkpt lat="40.217900" lon="-4.981667">
        <ele>1361.0</ele>
        <time>2015-05-10T12:36:14Z</time>
      </trkpt>
      <trkpt lat="40.217867" lon="-4.982000">
        <ele>1359.0</ele>
        <time>2015-05-10T12:36:16Z</time>
      </trkpt>
      <trkpt lat="40.217817" lon="-4.982333">
        <ele>1357.0</ele>
        <time>2015-05-10T12:36:18Z</time>
      </trkpt>
      <trkpt lat="40.217800" lon="-4.982650">
        <ele>1355.0</ele>
        <time>2015-05-10T12:36:20Z</time>
      </trkpt>
      <trkpt lat="40.217800" lon="-4.983000">
        <ele>1350.0</ele>
        <time>2015-05-10T12:36:22Z</time>
      </trkpt>
      <trkpt lat="40.217767" lon="-4.983350">
        <ele>1347.0</ele>
        <time>2015-05-10T12:36:24Z</time>
      </trkpt>
      <trkpt lat="40.217700" lon="-4.983650">
        <ele>1345.0</ele>
        <time>2015-05-10T12:36:26Z</time>
      </trkpt>
      <trkpt lat="40.217650" lon="-4.983917">
        <ele>1340.0</ele>
        <time>2015-05-10T12:36:28Z</time>
      </trkpt>
      <trkpt lat="40.217617" lon="-4.984200">
        <ele>1334.0</ele>
        <time>2015-05-10T12:36:30Z</time>
      </trkpt>
      <trkpt lat="40.217600" lon="-4.984500">
        <ele>1330.0</ele>
        <time>2015-05-10T12:36:32Z</time>
      </trkpt>
      <trkpt lat="40.217583" lon="-4.984783">
        <ele>1329.0</ele>
        <time>2015-05-10T12:36:34Z</time>
      </trkpt>
      <trkpt lat="40.217583" lon="-4.985050">
        <ele>1326.0</ele>
        <time>2015-05-10T12:36:36Z</time>
      </trkpt>
      <trkpt lat="40.217583" lon="-4.985333">
        <ele>1322.0</ele>
        <time>2015-05-10T12:36:38Z</time>
      </trkpt>
      <trkpt lat="40.217567" lon="-4.985583">
        <ele>1317.0</ele>
        <time>2015-05-10T12:36:40Z</time>
      </trkpt>
      <trkpt lat="40.217517" lon="-4.985833">
        <ele>1309.0</ele>
        <time>2015-05-10T12:36:42Z</time>
      </trkpt>
      <trkpt lat="40.217450" lon="-4.986133">
        <ele>1300.0</ele>
        <time>2015-05-10T12:36:44Z</time>
      </trkpt>
      <trkpt lat="40.217367" lon="-4.986467">
        <ele>1295.0</ele>
        <time>2015-05-10T12:36:46Z</time>
      </trkpt>
      <trkpt lat="40.217300" lon="-4.986750">
        <ele>1294.0</ele>
        <time>2015-05-10T12:36:48Z</time>
      </trkpt>
      <trkpt lat="40.217250" lon="-4.987033">
        <ele>1291.0</ele>
        <time>2015-05-10T12:36:50Z</time>
      </trkpt>
      <trkpt lat="40.217183" lon="-4.987333">
        <ele>1284.0</ele>
        <time>2015-05-10T12:36:52Z</time>
      </trkpt>
      <trkpt lat="40.217100" lon="-4.987650">
        <ele>1278.0</ele>
        <time>2015-05-10T12:36:54Z</time>
      </trkpt>
      <trkpt lat="40.217033" lon="-4.987933">
        <ele>1278.0</ele>
        <time>2015-05-10T12:36:56Z</time>
      </trkpt>
      <trkpt lat="40.217000" lon="-4.988183">
        <ele>1275.0</ele>
        <time>2015-05-10T12:36:58Z</time>
      </trkpt>
      <trkpt lat="40.216933" lon="-4.988483">
        <ele>1269.0</ele>
        <time>2015-05-10T12:37:00Z</time>
      </trkpt>
      <trkpt lat="40.216833" lon="-4.988767">
        <ele>1264.0</ele>
        <time>2015-05-10T12:37:02Z</time>
      </trkpt>
      <trkpt lat="40.216750" lon="-4.989033">
        <ele>1260.0</ele>
        <time>2015-05-10T12:37:04Z</time>
      </trkpt>
      <trkpt lat="40.216683" lon="-4.989317">
        <ele>1257.0</ele>
        <time>2015-05-10T12:37:06Z</time>
      </trkpt>
      <trkpt lat="40.216633" lon="-4.989583">
        <ele>1252.0</ele>
        <time>2015-05-10T12:37:08Z</time>
      </trkpt>
      <trkpt lat="40.216550" lon="-4.989900">
        <ele>1247.0</ele>
        <time>2015-05-10T12:37:10Z</time>
      </trkpt>
      <trkpt lat="40.216467" lon="-4.990200">
        <ele>1244.0</ele>
        <time>2015-05-10T12:37:12Z</time>
      </trkpt>
      <trkpt lat="40.216400" lon="-4.990467">
        <ele>1240.0</ele>
        <time>2015-05-10T12:37:14Z</time>
      </trkpt>
      <trkpt lat="40.216333" lon="-4.990767">
        <ele>1234.0</ele>
        <time>2015-05-10T12:37:16Z</time>
      </trkpt>
      <trkpt lat="40.216283" lon="-4.991083">
        <ele>1232.0</ele>
        <time>2015-05-10T12:37:18Z</time>
      </trkpt>
      <trkpt lat="40.216267" lon="-4.991367">
        <ele>1231.0</ele>
        <time>2015-05-10T12:37:20Z</time>
      </trkpt>
      <trkpt lat="40.216233" lon="-4.991667">
        <ele>1228.0</ele>
        <time>2015-05-10T12:37:22Z</time>
      </trkpt>
      <trkpt lat="40.216167" lon="-4.991933">
        <ele>1227.0</ele>
        <time>2015-05-10T12:37:24Z</time>
      </trkpt>
      <trkpt lat="40.216117" lon="-4.992233">
        <ele>1224.0</ele>
        <time>2015-05-10T12:37:26Z</time>
      </trkpt>
      <trkpt lat="40.216050" lon="-4.992517">
        <ele>1222.0</ele>
        <time>2015-05-10T12:37:28Z</time>
      </trkpt>
      <trkpt lat="40.215983" lon="-4.992800">
        <ele>1218.0</ele>
        <time>2015-05-10T12:37:30Z</time>
      </trkpt>
      <trkpt lat="40.215917" lon="-4.993100">
        <ele>1215.0</ele>
        <time>2015-05-10T12:37:32Z</time>
      </trkpt>
      <trkpt lat="40.215883" lon="-4.993383">
        <ele>1213.0</ele>
        <time>2015-05-10T12:37:34Z</time>
      </trkpt>
      <trkpt lat="40.215883" lon="-4.993700">
        <ele>1209.0</ele>
        <time>2015-05-10T12:37:36Z</time>
      </trkpt>
      <trkpt lat="40.215883" lon="-4.994033">
        <ele>1209.0</ele>
        <time>2015-05-10T12:37:38Z</time>
      </trkpt>
      <trkpt lat="40.215867" lon="-4.994317">
        <ele>1210.0</ele>
        <time>2015-05-10T12:37:40Z</time>
      </trkpt>
      <trkpt lat="40.215800" lon="-4.994583">
        <ele>1209.0</ele>
        <time>2015-05-10T12:37:42Z</time>
      </trkpt>
      <trkpt lat="40.215733" lon="-4.994900">
        <ele>1209.0</ele>
        <time>2015-05-10T12:37:44Z</time>
      </trkpt>
      <trkpt lat="40.215700" lon="-4.995183">
        <ele>1210.0</ele>
        <time>2015-05-10T12:37:46Z</time>
      </trkpt>
      <trkpt lat="40.215683" lon="-4.995483">
        <ele>1208.0</ele>
        <time>2015-05-10T12:37:48Z</time>
      </trkpt>
      <trkpt lat="40.215667" lon="-4.995783">
        <ele>1206.0</ele>
        <time>2015-05-10T12:37:50Z</time>
      </trkpt>
      <trkpt lat="40.215667" lon="-4.996083">
        <ele>1206.0</ele>
        <time>2015-05-10T12:37:52Z</time>
      </trkpt>
      <trkpt lat="40.215650" lon="-4.996400">
        <ele>1205.0</ele>
        <time>2015-05-10T12:37:54Z</time>
      </trkpt>
      <trkpt lat="40.215650" lon="-4.996717">
        <ele>1205.0</ele>
        <time>2015-05-10T12:37:56Z</time>
      </trkpt>
      <trkpt lat="40.215667" lon="-4.996983">
        <ele>1203.0</ele>
        <time>2015-05-10T12:37:58Z</time>
      </trkpt>
      <trkpt lat="40.215700" lon="-4.997267">
        <ele>1199.0</ele>
        <time>2015-05-10T12:38:00Z</time>
      </trkpt>
      <trkpt lat="40.215733" lon="-4.997633">
        <ele>1200.0</ele>
        <time>2015-05-10T12:38:02Z</time>
      </trkpt>
      <trkpt lat="40.215750" lon="-4.997967">
        <ele>1208.0</ele>
        <time>2015-05-10T12:38:04Z</time>
      </trkpt>
      <trkpt lat="40.215750" lon="-4.998233">
        <ele>1212.0</ele>
        <time>2015-05-10T12:38:06Z</time>
      </trkpt>
      <trkpt lat="40.215850" lon="-4.998517">
        <ele>1212.0</ele>
        <time>2015-05-10T12:38:08Z</time>
      </trkpt>
      <trkpt lat="40.216067" lon="-4.998767">
        <ele>1214.0</ele>
        <time>2015-05-10T12:38:10Z</time>
      </trkpt>
      <trkpt lat="40.216267" lon="-4.998850">
        <ele>1220.0</ele>
        <time>2015-05-10T12:38:12Z</time>
      </trkpt>
      <trkpt lat="40.216433" lon="-4.998817">
        <ele>1221.0</ele>
        <time>2015-05-10T12:38:14Z</time>
      </trkpt>
      <trkpt lat="40.216533" lon="-4.998650">
        <ele>1220.0</ele>
        <time>2015-05-10T12:38:16Z</time>
      </trkpt>
      <trkpt lat="40.216517" lon="-4.998483">
        <ele>1224.0</ele>
        <time>2015-05-10T12:38:18Z</time>
      </trkpt>
      <trkpt lat="40.216450" lon="-4.998417">
        <ele>1229.0</ele>
        <time>2015-05-10T12:38:20Z</time>
      </trkpt>
      <trkpt lat="40.216367" lon="-4.998383">
        <ele>1232.0</ele>
        <time>2015-05-10T12:38:22Z</time>
      </trkpt>
      <trkpt lat="40.216250" lon="-4.998400">
        <ele>1236.0</ele>
        <time>2015-05-10T12:38:24Z</time>
      </trkpt>
      <trkpt lat="40.216133" lon="-4.998500">
        <ele>1241.0</ele>
        <time>2015-05-10T12:38:26Z</time>
      </trkpt>
      <trkpt lat="40.216050" lon="-4.998700">
        <ele>1244.0</ele>
        <time>2015-05-10T12:38:28Z</time>
      </trkpt>
      <trkpt lat="40.215950" lon="-4.998950">
        <ele>1246.0</ele>
        <time>2015-05-10T12:38:30Z</time>
      </trkpt>
      <trkpt lat="40.215900" lon="-4.999217">
        <ele>1251.0</ele>
        <time>2015-05-10T12:38:32Z</time>
      </trkpt>
      <trkpt lat="40.215917" lon="-4.999517">
        <ele>1254.0</ele>
        <time>2015-05-10T12:38:34Z</time>
      </trkpt>
      <trkpt lat="40.216033" lon="-4.999833">
        <ele>1255.0</ele>
        <time>2015-05-10T12:38:36Z</time>
      </trkpt>
      <trkpt lat="40.216200" lon="-5.000017">
        <ele>1255.0</ele>
        <time>2015-05-10T12:38:38Z</time>
      </trkpt>
      <trkpt lat="40.216400" lon="-5.000050">
        <ele>1254.0</ele>
        <time>2015-05-10T12:38:40Z</time>
      </trkpt>
      <trkpt lat="40.216583" lon="-5.000017">
        <ele>1256.0</ele>
        <time>2015-05-10T12:38:42Z</time>
      </trkpt>
      <trkpt lat="40.216733" lon="-4.999933">
        <ele>1257.0</ele>
        <time>2015-05-10T12:38:44Z</time>
      </trkpt>
      <trkpt lat="40.216850" lon="-4.999783">
        <ele>1258.0</ele>
        <time>2015-05-10T12:38:46Z</time>
      </trkpt>
      <trkpt lat="40.216883" lon="-4.999650">
        <ele>1260.0</ele>
        <time>2015-05-10T12:38:48Z</time>
      </trkpt>
      <trkpt lat="40.216833" lon="-4.999533">
        <ele>1261.0</ele>
        <time>2015-05-10T12:38:50Z</time>
      </trkpt>
      <trkpt lat="40.216733" lon="-4.999433">
        <ele>1266.0</ele>
        <time>2015-05-10T12:38:52Z</time>
      </trkpt>
      <trkpt lat="40.216650" lon="-4.999383">
        <ele>1276.0</ele>
        <time>2015-05-10T12:38:54Z</time>
      </trkpt>
      <trkpt lat="40.216567" lon="-4.999383">
        <ele>1280.0</ele>
        <time>2015-05-10T12:38:56Z</time>
      </trkpt>
      <trkpt lat="40.216417" lon="-4.999450">
        <ele>1282.0</ele>
        <time>2015-05-10T12:38:58Z</time>
      </trkpt>
      <trkpt lat="40.216283" lon="-4.999650">
        <ele>1282.0</ele>
        <time>2015-05-10T12:39:00Z</time>
      </trkpt>
      <trkpt lat="40.216267" lon="-4.999950">
        <ele>1279.0</ele>
        <time>2015-05-10T12:39:02Z</time>
      </trkpt>
      <trkpt lat="40.216400" lon="-5.000267">
        <ele>1276.0</ele>
        <time>2015-05-10T12:39:04Z</time>
      </trkpt>
      <trkpt lat="40.216600" lon="-5.000517">
        <ele>1284.0</ele>
        <time>2015-05-10T12:39:06Z</time>
      </trkpt>
      <trkpt lat="40.216733" lon="-5.000683">
        <ele>1290.0</ele>
        <time>2015-05-10T12:39:08Z</time>
      </trkpt>
      <trkpt lat="40.216900" lon="-5.000800">
        <ele>1290.0</ele>
        <time>2015-05-10T12:39:10Z</time>
      </trkpt>
      <trkpt lat="40.217100" lon="-5.000833">
        <ele>1289.0</ele>
        <time>2015-05-10T12:39:12Z</time>
      </trkpt>
      <trkpt lat="40.217300" lon="-5.000750">
        <ele>1291.0</ele>
        <time>2015-05-10T12:39:14Z</time>
      </trkpt>
      <trkpt lat="40.217417" lon="-5.000650">
        <ele>1295.0</ele>
        <time>2015-05-10T12:39:16Z</time>
      </trkpt>
      <trkpt lat="40.217500" lon="-5.000500">
        <ele>1295.0</ele>
        <time>2015-05-10T12:39:18Z</time>
      </trkpt>
      <trkpt lat="40.217533" lon="-5.000283">
        <ele>1296.0</ele>
        <time>2015-05-10T12:39:20Z</time>
      </trkpt>
      <trkpt lat="40.217517" lon="-5.000133">
        <ele>1304.0</ele>
        <time>2015-05-10T12:39:22Z</time>
      </trkpt>
      <trkpt lat="40.217467" lon="-5.000050">
        <ele>1310.0</ele>
        <time>2015-05-10T12:39:24Z</time>
      </trkpt>
      <trkpt lat="40.217367" lon="-5.000000">
        <ele>1313.0</ele>
        <time>2015-05-10T12:39:26Z</time>
      </trkpt>
      <trkpt lat="40.217217" lon="-5.000000">
        <ele>1315.0</ele>
        <time>2015-05-10T12:39:28Z</time>
      </trkpt>
      <trkpt lat="40.217083" lon="-5.000117">
        <ele>1317.0</ele>
        <time>2015-05-10T12:39:30Z</time>
      </trkpt>
      <trkpt lat="40.216983" lon="-5.000350">
        <ele>1318.0</ele>
        <time>2015-05-10T12:39:32Z</time>
      </trkpt>
      <trkpt lat="40.216933" lon="-5.000633">
        <ele>1318.0</ele>
        <time>2015-05-10T12:39:34Z</time>
      </trkpt>
      <trkpt lat="40.216950" lon="-5.000933">
        <ele>1322.0</ele>
        <time>2015-05-10T12:39:36Z</time>
      </trkpt>
      <trkpt lat="40.217050" lon="-5.001167">
        <ele>1324.0</ele>
        <time>2015-05-10T12:39:38Z</time>
      </trkpt>
      <trkpt lat="40.217217" lon="-5.001367">
        <ele>1326.0</ele>
        <time>2015-05-10T12:39:40Z</time>
      </trkpt>
      <trkpt lat="40.217433" lon="-5.001450">
        <ele>1329.0</ele>
        <time>2015-05-10T12:39:42Z</time>
      </trkpt>
      <trkpt lat="40.217600" lon="-5.001400">
        <ele>1331.0</ele>
        <time>2015-05-10T12:39:44Z</time>
      </trkpt>
      <trkpt lat="40.217767" lon="-5.001300">
        <ele>1333.0</ele>
        <time>2015-05-10T12:39:46Z</time>
      </trkpt>
      <trkpt lat="40.217850" lon="-5.001133">
        <ele>1338.0</ele>
        <time>2015-05-10T12:39:48Z</time>
      </trkpt>
      <trkpt lat="40.217850" lon="-5.000983">
        <ele>1344.0</ele>
        <time>2015-05-10T12:39:50Z</time>
      </trkpt>
      <trkpt lat="40.217833" lon="-5.000900">
        <ele>1347.0</ele>
        <time>2015-05-10T12:39:52Z</time>
      </trkpt>
      <trkpt lat="40.217767" lon="-5.000817">
        <ele>1345.0</ele>
        <time>2015-05-10T12:39:54Z</time>
      </trkpt>
      <trkpt lat="40.217650" lon="-5.000700">
        <ele>1345.0</ele>
        <time>2015-05-10T12:39:56Z</time>
      </trkpt>
      <trkpt lat="40.217500" lon="-5.000733">
        <ele>1344.0</ele>
        <time>2015-05-10T12:39:58Z</time>
      </trkpt>
      <trkpt lat="40.217333" lon="-5.000867">
        <ele>1343.0</ele>
        <time>2015-05-10T12:40:00Z</time>
      </trkpt>
      <trkpt lat="40.217233" lon="-5.001067">
        <ele>1343.0</ele>
        <time>2015-05-10T12:40:02Z</time>
      </trkpt>
      <trkpt lat="40.217167" lon="-5.001317">
        <ele>1340.0</ele>
        <time>2015-05-10T12:40:04Z</time>
      </trkpt>
      <trkpt lat="40.217133" lon="-5.001633">
        <ele>1337.0</ele>
        <time>2015-05-10T12:40:06Z</time>
      </trkpt>
      <trkpt lat="40.217167" lon="-5.001967">
        <ele>1335.0</ele>
        <time>2015-05-10T12:40:08Z</time>
      </trkpt>
      <trkpt lat="40.217250" lon="-5.002283">
        <ele>1337.0</ele>
        <time>2015-05-10T12:40:10Z</time>
      </trkpt>
      <trkpt lat="40.217400" lon="-5.002567">
        <ele>1339.0</ele>
        <time>2015-05-10T12:40:12Z</time>
      </trkpt>
      <trkpt lat="40.217567" lon="-5.002783">
        <ele>1341.0</ele>
        <time>2015-05-10T12:40:14Z</time>
      </trkpt>
      <trkpt lat="40.217767" lon="-5.002917">
        <ele>1343.0</ele>
        <time>2015-05-10T12:40:16Z</time>
      </trkpt>
      <trkpt lat="40.217967" lon="-5.002933">
        <ele>1345.0</ele>
        <time>2015-05-10T12:40:18Z</time>
      </trkpt>
      <trkpt lat="40.218133" lon="-5.002900">
        <ele>1348.0</ele>
        <time>2015-05-10T12:40:20Z</time>
      </trkpt>
      <trkpt lat="40.218267" lon="-5.002817">
        <ele>1351.0</ele>
        <time>2015-05-10T12:40:22Z</time>
      </trkpt>
      <trkpt lat="40.218350" lon="-5.002700">
        <ele>1354.0</ele>
        <time>2015-05-10T12:40:24Z</time>
      </trkpt>
      <trkpt lat="40.218383" lon="-5.002567">
        <ele>1356.0</ele>
        <time>2015-05-10T12:40:26Z</time>
      </trkpt>
      <trkpt lat="40.218383" lon="-5.002417">
        <ele>1358.0</ele>
        <time>2015-05-10T12:40:28Z</time>
      </trkpt>
      <trkpt lat="40.218317" lon="-5.002317">
        <ele>1360.0</ele>
        <time>2015-05-10T12:40:30Z</time>
      </trkpt>
      <trkpt lat="40.218233" lon="-5.002267">
        <ele>1363.0</ele>
        <time>2015-05-10T12:40:32Z</time>
      </trkpt>
      <trkpt lat="40.218133" lon="-5.002300">
        <ele>1364.0</ele>
        <time>2015-05-10T12:40:34Z</time>
      </trkpt>
      <trkpt lat="40.218000" lon="-5.002400">
        <ele>1363.0</ele>
        <time>2015-05-10T12:40:36Z</time>
      </trkpt>
      <trkpt lat="40.217900" lon="-5.002583">
        <ele>1366.0</ele>
        <time>2015-05-10T12:40:38Z</time>
      </trkpt>
      <trkpt lat="40.217833" lon="-5.002800">
        <ele>1368.0</ele>
        <time>2015-05-10T12:40:40Z</time>
      </trkpt>
      <trkpt lat="40.217750" lon="-5.003050">
        <ele>1365.0</ele>
        <time>2015-05-10T12:40:42Z</time>
      </trkpt>
      <trkpt lat="40.217733" lon="-5.003367">
        <ele>1364.0</ele>
        <time>2015-05-10T12:40:44Z</time>
      </trkpt>
      <trkpt lat="40.217800" lon="-5.003717">
        <ele>1365.0</ele>
        <time>2015-05-10T12:40:46Z</time>
      </trkpt>
      <trkpt lat="40.217917" lon="-5.004033">
        <ele>1366.0</ele>
        <time>2015-05-10T12:40:48Z</time>
      </trkpt>
      <trkpt lat="40.218100" lon="-5.004267">
        <ele>1367.0</ele>
        <time>2015-05-10T12:40:50Z</time>
      </trkpt>
      <trkpt lat="40.218317" lon="-5.004400">
        <ele>1369.0</ele>
        <time>2015-05-10T12:40:52Z</time>
      </trkpt>
      <trkpt lat="40.218533" lon="-5.004433">
        <ele>1372.0</ele>
        <time>2015-05-10T12:40:54Z</time>
      </trkpt>
      <trkpt lat="40.218717" lon="-5.004367">
        <ele>1373.0</ele>
        <time>2015-05-10T12:40:56Z</time>
      </trkpt>
      <trkpt lat="40.218850" lon="-5.004267">
        <ele>1375.0</ele>
        <time>2015-05-10T12:40:58Z</time>
      </trkpt>
      <trkpt lat="40.218883" lon="-5.004100">
        <ele>1377.0</ele>
        <time>2015-05-10T12:41:00Z</time>
      </trkpt>
      <trkpt lat="40.218850" lon="-5.003967">
        <ele>1380.0</ele>
        <time>2015-05-10T12:41:02Z</time>
      </trkpt>
      <trkpt lat="40.218783" lon="-5.003933">
        <ele>1382.0</ele>
        <time>2015-05-10T12:41:04Z</time>
      </trkpt>
      <trkpt lat="40.218667" lon="-5.003933">
        <ele>1383.0</ele>
        <time>2015-05-10T12:41:06Z</time>
      </trkpt>
      <trkpt lat="40.218517" lon="-5.004017">
        <ele>1385.0</ele>
        <time>2015-05-10T12:41:08Z</time>
      </trkpt>
      <trkpt lat="40.218383" lon="-5.004117">
        <ele>1387.0</ele>
        <time>2015-05-10T12:41:10Z</time>
      </trkpt>
      <trkpt lat="40.218267" lon="-5.004300">
        <ele>1389.0</ele>
        <time>2015-05-10T12:41:12Z</time>
      </trkpt>
      <trkpt lat="40.218183" lon="-5.004583">
        <ele>1391.0</ele>
        <time>2015-05-10T12:41:14Z</time>
      </trkpt>
      <trkpt lat="40.218167" lon="-5.004900">
        <ele>1393.0</ele>
        <time>2015-05-10T12:41:16Z</time>
      </trkpt>
      <trkpt lat="40.218217" lon="-5.005183">
        <ele>1395.0</ele>
        <time>2015-05-10T12:41:18Z</time>
      </trkpt>
      <trkpt lat="40.218333" lon="-5.005450">
        <ele>1394.0</ele>
        <time>2015-05-10T12:41:20Z</time>
      </trkpt>
      <trkpt lat="40.218517" lon="-5.005617">
        <ele>1396.0</ele>
        <time>2015-05-10T12:41:22Z</time>
      </trkpt>
      <trkpt lat="40.218717" lon="-5.005633">
        <ele>1397.0</ele>
        <time>2015-05-10T12:41:24Z</time>
      </trkpt>
      <trkpt lat="40.218917" lon="-5.005583">
        <ele>1399.0</ele>
        <time>2015-05-10T12:41:26Z</time>
      </trkpt>
      <trkpt lat="40.219050" lon="-5.005450">
        <ele>1402.0</ele>
        <time>2015-05-10T12:41:28Z</time>
      </trkpt>
      <trkpt lat="40.219083" lon="-5.005283">
        <ele>1404.0</ele>
        <time>2015-05-10T12:41:30Z</time>
      </trkpt>
      <trkpt lat="40.219083" lon="-5.005133">
        <ele>1407.0</ele>
        <time>2015-05-10T12:41:32Z</time>
      </trkpt>
      <trkpt lat="40.219050" lon="-5.005017">
        <ele>1408.0</ele>
        <time>2015-05-10T12:41:34Z</time>
      </trkpt>
      <trkpt lat="40.218950" lon="-5.004933">
        <ele>1408.0</ele>
        <time>2015-05-10T12:41:36Z</time>
      </trkpt>
      <trkpt lat="40.218833" lon="-5.004917">
        <ele>1411.0</ele>
        <time>2015-05-10T12:41:38Z</time>
      </trkpt>
      <trkpt lat="40.218733" lon="-5.005017">
        <ele>1415.0</ele>
        <time>2015-05-10T12:41:40Z</time>
      </trkpt>
      <trkpt lat="40.218650" lon="-5.005183">
        <ele>1420.0</ele>
        <time>2015-05-10T12:41:42Z</time>
      </trkpt>
      <trkpt lat="40.218583" lon="-5.005400">
        <ele>1422.0</ele>
        <time>2015-05-10T12:41:44Z</time>
      </trkpt>
      <trkpt lat="40.218583" lon="-5.005700">
        <ele>1422.0</ele>
        <time>2015-05-10T12:41:46Z</time>
      </trkpt>
      <trkpt lat="40.218700" lon="-5.006000">
        <ele>1421.0</ele>
        <time>2015-05-10T12:41:48Z</time>
      </trkpt>
      <trkpt lat="40.218867" lon="-5.006217">
        <ele>1425.0</ele>
        <time>2015-05-10T12:41:50Z</time>
      </trkpt>
      <trkpt lat="40.219033" lon="-5.006333">
        <ele>1429.0</ele>
        <time>2015-05-10T12:41:52Z</time>
      </trkpt>
      <trkpt lat="40.219233" lon="-5.006367">
        <ele>1429.0</ele>
        <time>2015-05-10T12:41:54Z</time>
      </trkpt>
      <trkpt lat="40.219450" lon="-5.006300">
        <ele>1429.0</ele>
        <time>2015-05-10T12:41:56Z</time>
      </trkpt>
      <trkpt lat="40.219550" lon="-5.006150">
        <ele>1431.0</ele>
        <time>2015-05-10T12:41:58Z</time>
      </trkpt>
      <trkpt lat="40.219567" lon="-5.006017">
        <ele>1432.0</ele>
        <time>2015-05-10T12:42:00Z</time>
      </trkpt>
      <trkpt lat="40.219517" lon="-5.005917">
        <ele>1431.0</ele>
        <time>2015-05-10T12:42:02Z</time>
      </trkpt>
      <trkpt lat="40.219417" lon="-5.005850">
        <ele>1431.0</ele>
        <time>2015-05-10T12:42:04Z</time>
      </trkpt>
      <trkpt lat="40.219283" lon="-5.005867">
        <ele>1434.0</ele>
        <time>2015-05-10T12:42:06Z</time>
      </trkpt>
      <trkpt lat="40.219167" lon="-5.005967">
        <ele>1438.0</ele>
        <time>2015-05-10T12:42:08Z</time>
      </trkpt>
      <trkpt lat="40.219067" lon="-5.006150">
        <ele>1444.0</ele>
        <time>2015-05-10T12:42:10Z</time>
      </trkpt>
      <trkpt lat="40.219017" lon="-5.006383">
        <ele>1447.0</ele>
        <time>2015-05-10T12:42:12Z</time>
      </trkpt>
      <trkpt lat="40.219017" lon="-5.006667">
        <ele>1447.0</ele>
        <time>2015-05-10T12:42:14Z</time>
      </trkpt>
      <trkpt lat="40.219100" lon="-5.006967">
        <ele>1446.0</ele>
        <time>2015-05-10T12:42:16Z</time>
      </trkpt>
      <trkpt lat="40.219250" lon="-5.007233">
        <ele>1446.0</ele>
        <time>2015-05-10T12:42:18Z</time>
      </trkpt>
      <trkpt lat="40.219467" lon="-5.007433">
        <ele>1446.0</ele>
        <time>2015-05-10T12:42:20Z</time>
      </trkpt>
      <trkpt lat="40.219717" lon="-5.007500">
        <ele>1449.0</ele>
        <time>2015-05-10T12:42:22Z</time>
      </trkpt>
      <trkpt lat="40.219917" lon="-5.007500">
        <ele>1455.0</ele>
        <time>2015-05-10T12:42:24Z</time>
      </trkpt>
      <trkpt lat="40.220050" lon="-5.007450">
        <ele>1456.0</ele>
        <time>2015-05-10T12:42:26Z</time>
      </trkpt>
      <trkpt lat="40.220133" lon="-5.007283">
        <ele>1454.0</ele>
        <time>2015-05-10T12:42:28Z</time>
      </trkpt>
      <trkpt lat="40.220167" lon="-5.007133">
        <ele>1456.0</ele>
        <time>2015-05-10T12:42:30Z</time>
      </trkpt>
      <trkpt lat="40.220133" lon="-5.007000">
        <ele>1456.0</ele>
        <time>2015-05-10T12:42:32Z</time>
      </trkpt>
      <trkpt lat="40.220067" lon="-5.006883">
        <ele>1456.0</ele>
        <time>2015-05-10T12:42:34Z</time>
      </trkpt>
      <trkpt lat="40.219950" lon="-5.006800">
        <ele>1456.0</ele>
        <time>2015-05-10T12:42:36Z</time>
      </trkpt>
      <trkpt lat="40.219817" lon="-5.006767">
        <ele>1458.0</ele>
        <time>2015-05-10T12:42:38Z</time>
      </trkpt>
      <trkpt lat="40.219683" lon="-5.006767">
        <ele>1462.0</ele>
        <time>2015-05-10T12:42:40Z</time>
      </trkpt>
      <trkpt lat="40.219583" lon="-5.006817">
        <ele>1467.0</ele>
        <time>2015-05-10T12:42:42Z</time>
      </trkpt>
      <trkpt lat="40.219500" lon="-5.006917">
        <ele>1470.0</ele>
        <time>2015-05-10T12:42:44Z</time>
      </trkpt>
      <trkpt lat="40.219417" lon="-5.007100">
        <ele>1472.0</ele>
        <time>2015-05-10T12:42:46Z</time>
      </trkpt>
      <trkpt lat="40.219400" lon="-5.007317">
        <ele>1475.0</ele>
        <time>2015-05-10T12:42:48Z</time>
      </trkpt>
      <trkpt lat="40.219467" lon="-5.007550">
        <ele>1476.0</ele>
        <time>2015-05-10T12:42:50Z</time>
      </trkpt>
      <trkpt lat="40.219617" lon="-5.007817">
        <ele>1475.0</ele>
        <time>2015-05-10T12:42:52Z</time>
      </trkpt>
      <trkpt lat="40.219833" lon="-5.008000">
        <ele>1481.0</ele>
        <time>2015-05-10T12:42:54Z</time>
      </trkpt>
      <trkpt lat="40.220017" lon="-5.008033">
        <ele>1483.0</ele>
        <time>2015-05-10T12:42:56Z</time>
      </trkpt>
      <trkpt lat="40.220167" lon="-5.007983">
        <ele>1480.0</ele>
        <time>2015-05-10T12:42:58Z</time>
      </trkpt>
      <trkpt lat="40.220317" lon="-5.007867">
        <ele>1478.0</ele>
        <time>2015-05-10T12:43:00Z</time>
      </trkpt>
      <trkpt lat="40.220433" lon="-5.007733">
        <ele>1479.0</ele>
        <time>2015-05-10T12:43:02Z</time>
      </trkpt>
      <trkpt lat="40.220467" lon="-5.007567">
        <ele>1477.0</ele>
        <time>2015-05-10T12:43:04Z</time>
      </trkpt>
      <trkpt lat="40.220433" lon="-5.007383">
        <ele>1478.0</ele>
        <time>2015-05-10T12:43:06Z</time>
      </trkpt>
      <trkpt lat="40.220367" lon="-5.007283">
        <ele>1481.0</ele>
        <time>2015-05-10T12:43:08Z</time>
      </trkpt>
      <trkpt lat="40.220283" lon="-5.007250">
        <ele>1481.0</ele>
        <time>2015-05-10T12:43:10Z</time>
      </trkpt>
      <trkpt lat="40.220150" lon="-5.007300">
        <ele>1482.0</ele>
        <time>2015-05-10T12:43:12Z</time>
      </trkpt>
      <trkpt lat="40.220033" lon="-5.007433">
        <ele>1486.0</ele>
        <time>2015-05-10T12:43:14Z</time>
      </trkpt>
      <trkpt lat="40.219900" lon="-5.007583">
        <ele>1490.0</ele>
        <time>2015-05-10T12:43:16Z</time>
      </trkpt>
      <trkpt lat="40.219817" lon="-5.007817">
        <ele>1492.0</ele>
        <time>2015-05-10T12:43:18Z</time>
      </trkpt>
      <trkpt lat="40.219783" lon="-5.008067">
        <ele>1499.0</ele>
        <time>2015-05-10T12:43:20Z</time>
      </trkpt>
      <trkpt lat="40.219767" lon="-5.008283">
        <ele>1504.0</ele>
        <time>2015-05-10T12:43:22Z</time>
      </trkpt>
      <trkpt lat="40.219850" lon="-5.008467">
        <ele>1507.0</ele>
        <time>2015-05-10T12:43:24Z</time>
      </trkpt>
      <trkpt lat="40.220000" lon="-5.008550">
        <ele>1510.0</ele>
        <time>2015-05-10T12:43:26Z</time>
      </trkpt>
      <trkpt lat="40.220150" lon="-5.008483">
        <ele>1513.0</ele>
        <time>2015-05-10T12:43:28Z</time>
      </trkpt>
      <trkpt lat="40.220233" lon="-5.008350">
        <ele>1514.0</ele>
        <time>2015-05-10T12:43:30Z</time>
      </trkpt>
      <trkpt lat="40.220267" lon="-5.008167">
        <ele>1515.0</ele>
        <time>2015-05-10T12:43:32Z</time>
      </trkpt>
      <trkpt lat="40.220217" lon="-5.008017">
        <ele>1518.0</ele>
        <time>2015-05-10T12:43:34Z</time>
      </trkpt>
      <trkpt lat="40.220133" lon="-5.007900">
        <ele>1522.0</ele>
        <time>2015-05-10T12:43:36Z</time>
      </trkpt>
      <trkpt lat="40.219983" lon="-5.007817">
        <ele>1525.0</ele>
        <time>2015-05-10T12:43:38Z</time>
      </trkpt>
      <trkpt lat="40.219800" lon="-5.007867">
        <ele>1533.0</ele>
        <time>2015-05-10T12:43:40Z</time>
      </trkpt>
      <trkpt lat="40.219667" lon="-5.007950">
        <ele>1541.0</ele>
        <time>2015-05-10T12:43:42Z</time>
      </trkpt>
      <trkpt lat="40.219567" lon="-5.008100">
        <ele>1545.0</ele>
        <time>2015-05-10T12:43:44Z</time>
      </trkpt>
      <trkpt lat="40.219517" lon="-5.008367">
        <ele>1547.0</ele>
        <time>2015-05-10T12:43:46Z</time>
      </trkpt>
      <trkpt lat="40.219583" lon="-5.008617">
        <ele>1552.0</ele>
        <time>2015-05-10T12:43:48Z</time>
      </trkpt>
      <trkpt lat="40.219717" lon="-5.008767">
        <ele>1557.0</ele>
        <time>2015-05-10T12:43:50Z</time>
      </trkpt>
      <trkpt lat="40.219900" lon="-5.008817">
        <ele>1561.0</ele>
        <time>2015-05-10T12:43:52Z</time>
      </trkpt>
      <trkpt lat="40.220067" lon="-5.008733">
        <ele>1567.0</ele>
        <time>2015-05-10T12:43:54Z</time>
      </trkpt>
      <trkpt lat="40.220150" lon="-5.008567">
        <ele>1571.0</ele>
        <time>2015-05-10T12:43:56Z</time>
      </trkpt>
      <trkpt lat="40.220150" lon="-5.008350">
        <ele>1573.0</ele>
        <time>2015-05-10T12:43:58Z</time>
      </trkpt>
      <trkpt lat="40.220067" lon="-5.008133">
        <ele>1579.0</ele>
        <time>2015-05-10T12:44:00Z</time>
      </trkpt>
      <trkpt lat="40.219917" lon="-5.008050">
        <ele>1589.0</ele>
        <time>2015-05-10T12:44:02Z</time>
      </trkpt>
      <trkpt lat="40.219783" lon="-5.008083">
        <ele>1597.0</ele>
        <time>2015-05-10T12:44:04Z</time>
      </trkpt>
      <trkpt lat="40.219633" lon="-5.008183">
        <ele>1601.0</ele>
        <time>2015-05-10T12:44:06Z</time>
      </trkpt>
      <trkpt lat="40.219533" lon="-5.008400">
        <ele>1602.0</ele>
        <time>2015-05-10T12:44:08Z</time>
      </trkpt>
      <trkpt lat="40.219517" lon="-5.008667">
        <ele>1608.0</ele>
        <time>2015-05-10T12:44:10Z</time>
      </trkpt>
      <trkpt lat="40.219583" lon="-5.008883">
        <ele>1612.0</ele>
        <time>2015-05-10T12:44:12Z</time>
      </trkpt>
      <trkpt lat="40.219733" lon="-5.009017">
        <ele>1617.0</ele>
        <time>2015-05-10T12:44:14Z</time>
      </trkpt>
      <trkpt lat="40.219917" lon="-5.009050">
        <ele>1622.0</ele>
        <time>2015-05-10T12:44:16Z</time>
      </trkpt>
      <trkpt lat="40.220067" lon="-5.008917">
        <ele>1626.0</ele>
        <time>2015-05-10T12:44:18Z</time>
      </trkpt>
      <trkpt lat="40.220133" lon="-5.008700">
        <ele>1632.0</ele>
        <time>2015-05-10T12:44:20Z</time>
      </trkpt>
      <trkpt lat="40.220133" lon="-5.008500">
        <ele>1641.0</ele>
        <time>2015-05-10T12:44:22Z</time>
      </trkpt>
      <trkpt lat="40.220050" lon="-5.008350">
        <ele>1648.0</ele>
        <time>2015-05-10T12:44:24Z</time>
      </trkpt>
      <trkpt lat="40.219917" lon="-5.008267">
        <ele>1654.0</ele>
        <time>2015-05-10T12:44:26Z</time>
      </trkpt>
      <trkpt lat="40.219750" lon="-5.008300">
        <ele>1659.0</ele>
        <time>2015-05-10T12:44:28Z</time>
      </trkpt>
      <trkpt lat="40.219583" lon="-5.008417">
        <ele>1664.0</ele>
        <time>2015-05-10T12:44:30Z</time>
      </trkpt>
      <trkpt lat="40.219467" lon="-5.008600">
        <ele>1667.0</ele>
        <time>2015-05-10T12:44:32Z</time>
      </trkpt>
      <trkpt lat="40.219433" lon="-5.008833">
        <ele>1669.0</ele>
        <time>2015-05-10T12:44:34Z</time>
      </trkpt>
      <trkpt lat="40.219483" lon="-5.009083">
        <ele>1670.0</ele>
        <time>2015-05-10T12:44:36Z</time>
      </trkpt>
      <trkpt lat="40.219617" lon="-5.009267">
        <ele>1672.0</ele>
        <time>2015-05-10T12:44:38Z</time>
      </trkpt>
      <trkpt lat="40.219783" lon="-5.009367">
        <ele>1677.0</ele>
        <time>2015-05-10T12:44:40Z</time>
      </trkpt>
      <trkpt lat="40.219950" lon="-5.009350">
        <ele>1682.0</ele>
        <time>2015-05-10T12:44:42Z</time>
      </trkpt>
      <trkpt lat="40.220067" lon="-5.009217">
        <ele>1685.0</ele>
        <time>2015-05-10T12:44:44Z</time>
      </trkpt>
      <trkpt lat="40.220133" lon="-5.009000">
        <ele>1689.0</ele>
        <time>2015-05-10T12:44:46Z</time>
      </trkpt>
      <trkpt lat="40.220100" lon="-5.008783">
        <ele>1694.0</ele>
        <time>2015-05-10T12:44:48Z</time>
      </trkpt>
      <trkpt lat="40.220000" lon="-5.008667">
        <ele>1699.0</ele>
        <time>2015-05-10T12:44:50Z</time>
      </trkpt>
      <trkpt lat="40.219867" lon="-5.008633">
        <ele>1700.0</ele>
        <time>2015-05-10T12:44:52Z</time>
      </trkpt>
      <trkpt lat="40.219667" lon="-5.008667">
        <ele>1701.0</ele>
        <time>2015-05-10T12:44:54Z</time>
      </trkpt>
      <trkpt lat="40.219517" lon="-5.008800">
        <ele>1704.0</ele>
        <time>2015-05-10T12:44:56Z</time>
      </trkpt>
      <trkpt lat="40.219433" lon="-5.008983">
        <ele>1703.0</ele>
        <time>2015-05-10T12:44:58Z</time>
      </trkpt>
      <trkpt lat="40.219333" lon="-5.009217">
        <ele>1702.0</ele>
        <time>2015-05-10T12:45:00Z</time>
      </trkpt>
      <trkpt lat="40.219300" lon="-5.009483">
        <ele>1701.0</ele>
        <time>2015-05-10T12:45:02Z</time>
      </trkpt>
      <trkpt lat="40.219383" lon="-5.009700">
        <ele>1702.0</ele>
        <time>2015-05-10T12:45:04Z</time>
      </trkpt>
      <trkpt lat="40.219517" lon="-5.009833">
        <ele>1703.0</ele>
        <time>2015-05-10T12:45:06Z</time>
      </trkpt>
      <trkpt lat="40.219667" lon="-5.009883">
        <ele>1704.0</ele>
        <time>2015-05-10T12:45:08Z</time>
      </trkpt>
      <trkpt lat="40.219817" lon="-5.009783">
        <ele>1704.0</ele>
        <time>2015-05-10T12:45:10Z</time>
      </trkpt>
      <trkpt lat="40.219900" lon="-5.009533">
        <ele>1706.0</ele>
        <time>2015-05-10T12:45:12Z</time>
      </trkpt>
      <trkpt lat="40.219900" lon="-5.009333">
        <ele>1712.0</ele>
        <time>2015-05-10T12:45:14Z</time>
      </trkpt>
      <trkpt lat="40.219950" lon="-5.009183">
        <ele>1716.0</ele>
        <time>2015-05-10T12:45:16Z</time>
      </trkpt>
      <trkpt lat="40.219950" lon="-5.009017">
        <ele>1717.0</ele>
        <time>2015-05-10T12:45:18Z</time>
      </trkpt>
      <trkpt lat="40.219833" lon="-5.008867">
        <ele>1715.0</ele>
        <time>2015-05-10T12:45:20Z</time>
      </trkpt>
      <trkpt lat="40.219650" lon="-5.008800">
        <ele>1715.0</ele>
        <time>2015-05-10T12:45:22Z</time>
      </trkpt>
      <trkpt lat="40.219483" lon="-5.008833">
        <ele>1714.0</ele>
        <time>2015-05-10T12:45:24Z</time>
      </trkpt>
      <trkpt lat="40.219300" lon="-5.008950">
        <ele>1710.0</ele>
        <time>2015-05-10T12:45:26Z</time>
      </trkpt>
      <trkpt lat="40.219150" lon="-5.009117">
        <ele>1706.0</ele>
        <time>2015-05-10T12:45:28Z</time>
      </trkpt>
      <trkpt lat="40.219033" lon="-5.009300">
        <ele>1701.0</ele>
        <time>2015-05-10T12:45:30Z</time>
      </trkpt>
      <trkpt lat="40.218917" lon="-5.009517">
        <ele>1696.0</ele>
        <time>2015-05-10T12:45:32Z</time>
      </trkpt>
      <trkpt lat="40.218800" lon="-5.009750">
        <ele>1692.0</ele>
        <time>2015-05-10T12:45:34Z</time>
      </trkpt>
      <trkpt lat="40.218683" lon="-5.009983">
        <ele>1689.0</ele>
        <time>2015-05-10T12:45:36Z</time>
      </trkpt>
      <trkpt lat="40.218617" lon="-5.010217">
        <ele>1689.0</ele>
        <time>2015-05-10T12:45:38Z</time>
      </trkpt>
      <trkpt lat="40.218583" lon="-5.010433">
        <ele>1687.0</ele>
        <time>2015-05-10T12:45:40Z</time>
      </trkpt>
      <trkpt lat="40.218533" lon="-5.010650">
        <ele>1682.0</ele>
        <time>2015-05-10T12:45:42Z</time>
      </trkpt>
      <trkpt lat="40.218450" lon="-5.010900">
        <ele>1677.0</ele>
        <time>2015-05-10T12:45:44Z</time>
      </trkpt>
      <trkpt lat="40.218367" lon="-5.011150">
        <ele>1675.0</ele>
        <time>2015-05-10T12:45:46Z</time>
      </trkpt>
      <trkpt lat="40.218317" lon="-5.011433">
        <ele>1674.0</ele>
        <time>2015-05-10T12:45:48Z</time>
      </trkpt>
      <trkpt lat="40.218233" lon="-5.011650">
        <ele>1675.0</ele>
        <time>2015-05-10T12:45:50Z</time>
      </trkpt>
      <trkpt lat="40.218150" lon="-5.011833">
        <ele>1673.0</ele>
        <time>2015-05-10T12:45:52Z</time>
      </trkpt>
      <trkpt lat="40.218017" lon="-5.012067">
        <ele>1672.0</ele>
        <time>2015-05-10T12:45:54Z</time>
      </trkpt>
      <trkpt lat="40.217917" lon="-5.012300">
        <ele>1677.0</ele>
        <time>2015-05-10T12:45:56Z</time>
      </trkpt>
      <trkpt lat="40.217867" lon="-5.012500">
        <ele>1680.0</ele>
        <time>2015-05-10T12:45:58Z</time>
      </trkpt>
      <trkpt lat="40.217867" lon="-5.012750">
        <ele>1682.0</ele>
        <time>2015-05-10T12:46:00Z</time>
      </trkpt>
      <trkpt lat="40.217917" lon="-5.012967">
        <ele>1687.0</ele>
        <time>2015-05-10T12:46:02Z</time>
      </trkpt>
      <trkpt lat="40.218000" lon="-5.013117">
        <ele>1692.0</ele>
        <time>2015-05-10T12:46:04Z</time>
      </trkpt>
      <trkpt lat="40.218100" lon="-5.013267">
        <ele>1693.0</ele>
        <time>2015-05-10T12:46:06Z</time>
      </trkpt>
      <trkpt lat="40.218250" lon="-5.013300">
        <ele>1694.0</ele>
        <time>2015-05-10T12:46:08Z</time>
      </trkpt>
      <trkpt lat="40.218383" lon="-5.013183">
        <ele>1695.0</ele>
        <time>2015-05-10T12:46:10Z</time>
      </trkpt>
      <trkpt lat="40.218450" lon="-5.013017">
        <ele>1700.0</ele>
        <time>2015-05-10T12:46:12Z</time>
      </trkpt>
      <trkpt lat="40.218450" lon="-5.012850">
        <ele>1701.0</ele>
        <time>2015-05-10T12:46:14Z</time>
      </trkpt>
      <trkpt lat="40.218350" lon="-5.012667">
        <ele>1701.0</ele>
        <time>2015-05-10T12:46:16Z</time>
      </trkpt>
      <trkpt lat="40.218167" lon="-5.012567">
        <ele>1704.0</ele>
        <time>2015-05-10T12:46:18Z</time>
      </trkpt>
      <trkpt lat="40.218000" lon="-5.012617">
        <ele>1709.0</ele>
        <time>2015-05-10T12:46:20Z</time>
      </trkpt>
      <trkpt lat="40.217883" lon="-5.012750">
        <ele>1708.0</ele>
        <time>2015-05-10T12:46:22Z</time>
      </trkpt>
      <trkpt lat="40.217800" lon="-5.013017">
        <ele>1708.0</ele>
        <time>2015-05-10T12:46:24Z</time>
      </trkpt>
      <trkpt lat="40.217850" lon="-5.013233">
        <ele>1714.0</ele>
        <time>2015-05-10T12:46:26Z</time>
      </trkpt>
      <trkpt lat="40.217917" lon="-5.013367">
        <ele>1717.0</ele>
        <time>2015-05-10T12:46:28Z</time>
      </trkpt>
      <trkpt lat="40.218033" lon="-5.013467">
        <ele>1717.0</ele>
        <time>2015-05-10T12:46:30Z</time>
      </trkpt>
      <trkpt lat="40.218200" lon="-5.013450">
        <ele>1718.0</ele>
        <time>2015-05-10T12:46:32Z</time>
      </trkpt>
      <trkpt lat="40.218317" lon="-5.013300">
        <ele>1720.0</ele>
        <time>2015-05-10T12:46:34Z</time>
      </trkpt>
      <trkpt lat="40.218367" lon="-5.013117">
        <ele>1721.0</ele>
        <time>2015-05-10T12:46:36Z</time>
      </trkpt>
      <trkpt lat="40.218317" lon="-5.012900">
        <ele>1721.0</ele>
        <time>2015-05-10T12:46:38Z</time>
      </trkpt>
      <trkpt lat="40.218200" lon="-5.012717">
        <ele>1722.0</ele>
        <time>2015-05-10T12:46:40Z</time>
      </trkpt>
      <trkpt lat="40.218067" lon="-5.012650">
        <ele>1722.0</ele>
        <time>2015-05-10T12:46:42Z</time>
      </trkpt>
      <trkpt lat="40.217917" lon="-5.012633">
        <ele>1717.0</ele>
        <time>2015-05-10T12:46:44Z</time>
      </trkpt>
      <trkpt lat="40.217733" lon="-5.012733">
        <ele>1711.0</ele>
        <time>2015-05-10T12:46:46Z</time>
      </trkpt>
      <trkpt lat="40.217567" lon="-5.012917">
        <ele>1710.0</ele>
        <time>2015-05-10T12:46:48Z</time>
      </trkpt>
      <trkpt lat="40.217450" lon="-5.013100">
        <ele>1708.0</ele>
        <time>2015-05-10T12:46:50Z</time>
      </trkpt>
      <trkpt lat="40.217333" lon="-5.013317">
        <ele>1703.0</ele>
        <time>2015-05-10T12:46:52Z</time>
      </trkpt>
      <trkpt lat="40.217233" lon="-5.013550">
        <ele>1702.0</ele>
        <time>2015-05-10T12:46:54Z</time>
      </trkpt>
      <trkpt lat="40.217117" lon="-5.013717">
        <ele>1700.0</ele>
        <time>2015-05-10T12:46:56Z</time>
      </trkpt>
      <trkpt lat="40.216983" lon="-5.013883">
        <ele>1697.0</ele>
        <time>2015-05-10T12:46:58Z</time>
      </trkpt>
      <trkpt lat="40.216833" lon="-5.014050">
        <ele>1693.0</ele>
        <time>2015-05-10T12:47:00Z</time>
      </trkpt>
      <trkpt lat="40.216667" lon="-5.014217">
        <ele>1687.0</ele>
        <time>2015-05-10T12:47:02Z</time>
      </trkpt>
      <trkpt lat="40.216500" lon="-5.014383">
        <ele>1681.0</ele>
        <time>2015-05-10T12:47:04Z</time>
      </trkpt>
      <trkpt lat="40.216317" lon="-5.014533">
        <ele>1675.0</ele>
        <time>2015-05-10T12:47:06Z</time>
      </trkpt>
      <trkpt lat="40.216167" lon="-5.014733">
        <ele>1669.0</ele>
        <time>2015-05-10T12:47:08Z</time>
      </trkpt>
      <trkpt lat="40.215983" lon="-5.014917">
        <ele>1664.0</ele>
        <time>2015-05-10T12:47:10Z</time>
      </trkpt>
      <trkpt lat="40.215817" lon="-5.015050">
        <ele>1661.0</ele>
        <time>2015-05-10T12:47:12Z</time>
      </trkpt>
      <trkpt lat="40.215667" lon="-5.015150">
        <ele>1656.0</ele>
        <time>2015-05-10T12:47:14Z</time>
      </trkpt>
      <trkpt lat="40.215483" lon="-5.015250">
        <ele>1651.0</ele>
        <time>2015-05-10T12:47:16Z</time>
      </trkpt>
      <trkpt lat="40.215300" lon="-5.015317">
        <ele>1648.0</ele>
        <time>2015-05-10T12:47:18Z</time>
      </trkpt>
      <trkpt lat="40.215133" lon="-5.015400">
        <ele>1645.0</ele>
        <time>2015-05-10T12:47:20Z</time>
      </trkpt>
      <trkpt lat="40.214983" lon="-5.015500">
        <ele>1643.0</ele>
        <time>2015-05-10T12:47:22Z</time>
      </trkpt>
      <trkpt lat="40.214850" lon="-5.015650">
        <ele>1639.0</ele>
        <time>2015-05-10T12:47:24Z</time>
      </trkpt>
      <trkpt lat="40.214700" lon="-5.015817">
        <ele>1635.0</ele>
        <time>2015-05-10T12:47:26Z</time>
      </trkpt>
      <trkpt lat="40.214533" lon="-5.015983">
        <ele>1633.0</ele>
        <time>2015-05-10T12:47:28Z</time>
      </trkpt>
      <trkpt lat="40.214400" lon="-5.016133">
        <ele>1630.0</ele>
        <time>2015-05-10T12:47:30Z</time>
      </trkpt>
      <trkpt lat="40.214267" lon="-5.016350">
        <ele>1625.0</ele>
        <time>2015-05-10T12:47:32Z</time>
      </trkpt>
      <trkpt lat="40.214117" lon="-5.016500">
        <ele>1621.0</ele>
        <time>2015-05-10T12:47:34Z</time>
      </trkpt>
      <trkpt lat="40.213950" lon="-5.016617">
        <ele>1618.0</ele>
        <time>2015-05-10T12:47:36Z</time>
      </trkpt>
      <trkpt lat="40.213833" lon="-5.016783">
        <ele>1614.0</ele>
        <time>2015-05-10T12:47:38Z</time>
      </trkpt>
      <trkpt lat="40.213700" lon="-5.016950">
        <ele>1610.0</ele>
        <time>2015-05-10T12:47:40Z</time>
      </trkpt>
      <trkpt lat="40.213583" lon="-5.017133">
        <ele>1606.0</ele>
        <time>2015-05-10T12:47:42Z</time>
      </trkpt>
      <trkpt lat="40.213467" lon="-5.017317">
        <ele>1603.0</ele>
        <time>2015-05-10T12:47:44Z</time>
      </trkpt>
      <trkpt lat="40.213350" lon="-5.017500">
        <ele>1598.0</ele>
        <time>2015-05-10T12:47:46Z</time>
      </trkpt>
      <trkpt lat="40.213217" lon="-5.017700">
        <ele>1594.0</ele>
        <time>2015-05-10T12:47:48Z</time>
      </trkpt>
      <trkpt lat="40.213083" lon="-5.017900">
        <ele>1591.0</ele>
        <time>2015-05-10T12:47:50Z</time>
      </trkpt>
      <trkpt lat="40.212950" lon="-5.018083">
        <ele>1587.0</ele>
        <time>2015-05-10T12:47:52Z</time>
      </trkpt>
      <trkpt lat="40.212817" lon="-5.018267">
        <ele>1582.0</ele>
        <time>2015-05-10T12:47:54Z</time>
      </trkpt>
      <trkpt lat="40.212667" lon="-5.018467">
        <ele>1579.0</ele>
        <time>2015-05-10T12:47:56Z</time>
      </trkpt>
      <trkpt lat="40.212550" lon="-5.018650">
        <ele>1577.0</ele>
        <time>2015-05-10T12:47:58Z</time>
      </trkpt>
      <trkpt lat="40.212417" lon="-5.018833">
        <ele>1573.0</ele>
        <time>2015-05-10T12:48:00Z</time>
      </trkpt>
      <trkpt lat="40.212300" lon="-5.019033">
        <ele>1570.0</ele>
        <time>2015-05-10T12:48:02Z</time>
      </trkpt>
      <trkpt lat="40.212167" lon="-5.019217">
        <ele>1569.0</ele>
        <time>2015-05-10T12:48:04Z</time>
      </trkpt>
      <trkpt lat="40.212050" lon="-5.019400">
        <ele>1566.0</ele>
        <time>2015-05-10T12:48:06Z</time>
      </trkpt>
      <trkpt lat="40.211917" lon="-5.019567">
        <ele>1563.0</ele>
        <time>2015-05-10T12:48:08Z</time>
      </trkpt>
      <trkpt lat="40.211800" lon="-5.019750">
        <ele>1561.0</ele>
        <time>2015-05-10T12:48:10Z</time>
      </trkpt>
      <trkpt lat="40.211667" lon="-5.019900">
        <ele>1558.0</ele>
        <time>2015-05-10T12:48:12Z</time>
      </trkpt>
      <trkpt lat="40.211550" lon="-5.020100">
        <ele>1555.0</ele>
        <time>2015-05-10T12:48:14Z</time>
      </trkpt>
      <trkpt lat="40.211433" lon="-5.020300">
        <ele>1552.0</ele>
        <time>2015-05-10T12:48:16Z</time>
      </trkpt>
      <trkpt lat="40.211317" lon="-5.020467">
        <ele>1549.0</ele>
        <time>2015-05-10T12:48:18Z</time>
      </trkpt>
      <trkpt lat="40.211200" lon="-5.020633">
        <ele>1547.0</ele>
        <time>2015-05-10T12:48:20Z</time>
      </trkpt>
      <trkpt lat="40.211067" lon="-5.020800">
        <ele>1544.0</ele>
        <time>2015-05-10T12:48:22Z</time>
      </trkpt>
      <trkpt lat="40.210950" lon="-5.020950">
        <ele>1540.0</ele>
        <time>2015-05-10T12:48:24Z</time>
      </trkpt>
      <trkpt lat="40.210817" lon="-5.021100">
        <ele>1536.0</ele>
        <time>2015-05-10T12:48:26Z</time>
      </trkpt>
      <trkpt lat="40.210700" lon="-5.021267">
        <ele>1532.0</ele>
        <time>2015-05-10T12:48:28Z</time>
      </trkpt>
      <trkpt lat="40.210533" lon="-5.021433">
        <ele>1532.0</ele>
        <time>2015-05-10T12:48:30Z</time>
      </trkpt>
      <trkpt lat="40.210433" lon="-5.021583">
        <ele>1535.0</ele>
        <time>2015-05-10T12:48:32Z</time>
      </trkpt>
      <trkpt lat="40.210350" lon="-5.021733">
        <ele>1534.0</ele>
        <time>2015-05-10T12:48:34Z</time>
      </trkpt>
      <trkpt lat="40.210233" lon="-5.021883">
        <ele>1532.0</ele>
        <time>2015-05-10T12:48:36Z</time>
      </trkpt>
      <trkpt lat="40.210083" lon="-5.022017">
        <ele>1529.0</ele>
        <time>2015-05-10T12:48:38Z</time>
      </trkpt>
      <trkpt lat="40.209917" lon="-5.022200">
        <ele>1527.0</ele>
        <time>2015-05-10T12:48:40Z</time>
      </trkpt>
      <trkpt lat="40.209817" lon="-5.022400">
        <ele>1526.0</ele>
        <time>2015-05-10T12:48:42Z</time>
      </trkpt>
      <trkpt lat="40.209717" lon="-5.022550">
        <ele>1523.0</ele>
        <time>2015-05-10T12:48:44Z</time>
      </trkpt>
      <trkpt lat="40.209600" lon="-5.022750">
        <ele>1520.0</ele>
        <time>2015-05-10T12:48:46Z</time>
      </trkpt>
      <trkpt lat="40.209500" lon="-5.022983">
        <ele>1521.0</ele>
        <time>2015-05-10T12:48:48Z</time>
      </trkpt>
      <trkpt lat="40.209417" lon="-5.023183">
        <ele>1524.0</ele>
        <time>2015-05-10T12:48:50Z</time>
      </trkpt>
      <trkpt lat="40.209333" lon="-5.023367">
        <ele>1525.0</ele>
        <time>2015-05-10T12:48:52Z</time>
      </trkpt>
      <trkpt lat="40.209267" lon="-5.023583">
        <ele>1523.0</ele>
        <time>2015-05-10T12:48:54Z</time>
      </trkpt>
      <trkpt lat="40.209233" lon="-5.023850">
        <ele>1522.0</ele>
        <time>2015-05-10T12:48:56Z</time>
      </trkpt>
      <trkpt lat="40.209167" lon="-5.024083">
        <ele>1524.0</ele>
        <time>2015-05-10T12:48:58Z</time>
      </trkpt>
      <trkpt lat="40.209083" lon="-5.024267">
        <ele>1524.0</ele>
        <time>2015-05-10T12:49:00Z</time>
      </trkpt>
      <trkpt lat="40.208967" lon="-5.024417">
        <ele>1518.0</ele>
        <time>2015-05-10T12:49:02Z</time>
      </trkpt>
      <trkpt lat="40.208800" lon="-5.024567">
        <ele>1513.0</ele>
        <time>2015-05-10T12:49:04Z</time>
      </trkpt>
      <trkpt lat="40.208667" lon="-5.024717">
        <ele>1512.0</ele>
        <time>2015-05-10T12:49:06Z</time>
      </trkpt>
      <trkpt lat="40.208550" lon="-5.024833">
        <ele>1509.0</ele>
        <time>2015-05-10T12:49:08Z</time>
      </trkpt>
      <trkpt lat="40.208383" lon="-5.024950">
        <ele>1503.0</ele>
        <time>2015-05-10T12:49:10Z</time>
      </trkpt>
      <trkpt lat="40.208217" lon="-5.025050">
        <ele>1500.0</ele>
        <time>2015-05-10T12:49:12Z</time>
      </trkpt>
      <trkpt lat="40.208050" lon="-5.025133">
        <ele>1498.0</ele>
        <time>2015-05-10T12:49:14Z</time>
      </trkpt>
      <trkpt lat="40.207917" lon="-5.025217">
        <ele>1496.0</ele>
        <time>2015-05-10T12:49:16Z</time>
      </trkpt>
      <trkpt lat="40.207767" lon="-5.025317">
        <ele>1495.0</ele>
        <time>2015-05-10T12:49:18Z</time>
      </trkpt>
      <trkpt lat="40.207617" lon="-5.025433">
        <ele>1494.0</ele>
        <time>2015-05-10T12:49:20Z</time>
      </trkpt>
      <trkpt lat="40.207483" lon="-5.025567">
        <ele>1492.0</ele>
        <time>2015-05-10T12:49:22Z</time>
      </trkpt>
      <trkpt lat="40.207333" lon="-5.025717">
        <ele>1489.0</ele>
        <time>2015-05-10T12:49:24Z</time>
      </trkpt>
      <trkpt lat="40.207217" lon="-5.025867">
        <ele>1487.0</ele>
        <time>2015-05-10T12:49:26Z</time>
      </trkpt>
      <trkpt lat="40.207083" lon="-5.026017">
        <ele>1485.0</ele>
        <time>2015-05-10T12:49:28Z</time>
      </trkpt>
      <trkpt lat="40.206950" lon="-5.026167">
        <ele>1483.0</ele>
        <time>2015-05-10T12:49:30Z</time>
      </trkpt>
      <trkpt lat="40.206817" lon="-5.026350">
        <ele>1481.0</ele>
        <time>2015-05-10T12:49:32Z</time>
      </trkpt>
      <trkpt lat="40.206700" lon="-5.026517">
        <ele>1479.0</ele>
        <time>2015-05-10T12:49:34Z</time>
      </trkpt>
      <trkpt lat="40.206583" lon="-5.026683">
        <ele>1477.0</ele>
        <time>2015-05-10T12:49:36Z</time>
      </trkpt>
      <trkpt lat="40.206467" lon="-5.026867">
        <ele>1474.0</ele>
        <time>2015-05-10T12:49:38Z</time>
      </trkpt>
      <trkpt lat="40.206350" lon="-5.027050">
        <ele>1472.0</ele>
        <time>2015-05-10T12:49:40Z</time>
      </trkpt>
      <trkpt lat="40.206250" lon="-5.027233">
        <ele>1472.0</ele>
        <time>2015-05-10T12:49:42Z</time>
      </trkpt>
      <trkpt lat="40.206133" lon="-5.027417">
        <ele>1470.0</ele>
        <time>2015-05-10T12:49:44Z</time>
      </trkpt>
      <trkpt lat="40.206033" lon="-5.027617">
        <ele>1468.0</ele>
        <time>2015-05-10T12:49:46Z</time>
      </trkpt>
      <trkpt lat="40.205933" lon="-5.027817">
        <ele>1467.0</ele>
        <time>2015-05-10T12:49:48Z</time>
      </trkpt>
      <trkpt lat="40.205833" lon="-5.028017">
        <ele>1465.0</ele>
        <time>2015-05-10T12:49:50Z</time>
      </trkpt>
      <trkpt lat="40.205733" lon="-5.028200">
        <ele>1464.0</ele>
        <time>2015-05-10T12:49:52Z</time>
      </trkpt>
      <trkpt lat="40.205633" lon="-5.028400">
        <ele>1464.0</ele>
        <time>2015-05-10T12:49:54Z</time>
      </trkpt>
      <trkpt lat="40.205533" lon="-5.028583">
        <ele>1462.0</ele>
        <time>2015-05-10T12:49:56Z</time>
      </trkpt>
      <trkpt lat="40.205433" lon="-5.028767">
        <ele>1460.0</ele>
        <time>2015-05-10T12:49:58Z</time>
      </trkpt>
      <trkpt lat="40.205333" lon="-5.028950">
        <ele>1459.0</ele>
        <time>2015-05-10T12:50:00Z</time>
      </trkpt>
      <trkpt lat="40.205233" lon="-5.029117">
        <ele>1457.0</ele>
        <time>2015-05-10T12:50:02Z</time>
      </trkpt>
      <trkpt lat="40.205117" lon="-5.029283">
        <ele>1454.0</ele>
        <time>2015-05-10T12:50:04Z</time>
      </trkpt>
      <trkpt lat="40.205017" lon="-5.029483">
        <ele>1453.0</ele>
        <time>2015-05-10T12:50:06Z</time>
      </trkpt>
      <trkpt lat="40.204917" lon="-5.029667">
        <ele>1453.0</ele>
        <time>2015-05-10T12:50:08Z</time>
      </trkpt>
      <trkpt lat="40.204833" lon="-5.029850">
        <ele>1452.0</ele>
        <time>2015-05-10T12:50:10Z</time>
      </trkpt>
      <trkpt lat="40.204750" lon="-5.030033">
        <ele>1450.0</ele>
        <time>2015-05-10T12:50:12Z</time>
      </trkpt>
      <trkpt lat="40.204650" lon="-5.030217">
        <ele>1448.0</ele>
        <time>2015-05-10T12:50:14Z</time>
      </trkpt>
      <trkpt lat="40.204550" lon="-5.030400">
        <ele>1446.0</ele>
        <time>2015-05-10T12:50:16Z</time>
      </trkpt>
      <trkpt lat="40.204467" lon="-5.030600">
        <ele>1444.0</ele>
        <time>2015-05-10T12:50:18Z</time>
      </trkpt>
      <trkpt lat="40.204367" lon="-5.030783">
        <ele>1443.0</ele>
        <time>2015-05-10T12:50:20Z</time>
      </trkpt>
      <trkpt lat="40.204267" lon="-5.030950">
        <ele>1441.0</ele>
        <time>2015-05-10T12:50:22Z</time>
      </trkpt>
      <trkpt lat="40.204150" lon="-5.031117">
        <ele>1440.0</ele>
        <time>2015-05-10T12:50:24Z</time>
      </trkpt>
      <trkpt lat="40.204050" lon="-5.031283">
        <ele>1438.0</ele>
        <time>2015-05-10T12:50:26Z</time>
      </trkpt>
      <trkpt lat="40.203950" lon="-5.031433">
        <ele>1437.0</ele>
        <time>2015-05-10T12:50:28Z</time>
      </trkpt>
      <trkpt lat="40.203867" lon="-5.031600">
        <ele>1434.0</ele>
        <time>2015-05-10T12:50:30Z</time>
      </trkpt>
      <trkpt lat="40.203750" lon="-5.031767">
        <ele>1429.0</ele>
        <time>2015-05-10T12:50:32Z</time>
      </trkpt>
      <trkpt lat="40.203633" lon="-5.031917">
        <ele>1428.0</ele>
        <time>2015-05-10T12:50:34Z</time>
      </trkpt>
      <trkpt lat="40.203533" lon="-5.032083">
        <ele>1426.0</ele>
        <time>2015-05-10T12:50:36Z</time>
      </trkpt>
      <trkpt lat="40.203417" lon="-5.032283">
        <ele>1422.0</ele>
        <time>2015-05-10T12:50:38Z</time>
      </trkpt>
      <trkpt lat="40.203317" lon="-5.032483">
        <ele>1420.0</ele>
        <time>2015-05-10T12:50:40Z</time>
      </trkpt>
      <trkpt lat="40.203217" lon="-5.032683">
        <ele>1418.0</ele>
        <time>2015-05-10T12:50:42Z</time>
      </trkpt>
      <trkpt lat="40.203117" lon="-5.032883">
        <ele>1416.0</ele>
        <time>2015-05-10T12:50:44Z</time>
      </trkpt>
      <trkpt lat="40.203017" lon="-5.033083">
        <ele>1415.0</ele>
        <time>2015-05-10T12:50:46Z</time>
      </trkpt>
      <trkpt lat="40.202917" lon="-5.033250">
        <ele>1413.0</ele>
        <time>2015-05-10T12:50:48Z</time>
      </trkpt>
      <trkpt lat="40.202800" lon="-5.033433">
        <ele>1412.0</ele>
        <time>2015-05-10T12:50:50Z</time>
      </trkpt>
      <trkpt lat="40.202700" lon="-5.033600">
        <ele>1411.0</ele>
        <time>2015-05-10T12:50:52Z</time>
      </trkpt>
      <trkpt lat="40.202583" lon="-5.033767">
        <ele>1410.0</ele>
        <time>2015-05-10T12:50:54Z</time>
      </trkpt>
      <trkpt lat="40.202483" lon="-5.033950">
        <ele>1408.0</ele>
        <time>2015-05-10T12:50:56Z</time>
      </trkpt>
      <trkpt lat="40.202400" lon="-5.034167">
        <ele>1406.0</ele>
        <time>2015-05-10T12:50:58Z</time>
      </trkpt>
      <trkpt lat="40.202300" lon="-5.034350">
        <ele>1405.0</ele>
        <time>2015-05-10T12:51:00Z</time>
      </trkpt>
      <trkpt lat="40.202200" lon="-5.034550">
        <ele>1402.0</ele>
        <time>2015-05-10T12:51:02Z</time>
      </trkpt>
      <trkpt lat="40.202100" lon="-5.034733">
        <ele>1400.0</ele>
        <time>2015-05-10T12:51:04Z</time>
      </trkpt>
      <trkpt lat="40.202000" lon="-5.034900">
        <ele>1398.0</ele>
        <time>2015-05-10T12:51:06Z</time>
      </trkpt>
      <trkpt lat="40.201900" lon="-5.035067">
        <ele>1393.0</ele>
        <time>2015-05-10T12:51:08Z</time>
      </trkpt>
      <trkpt lat="40.201783" lon="-5.035233">
        <ele>1390.0</ele>
        <time>2015-05-10T12:51:10Z</time>
      </trkpt>
      <trkpt lat="40.201650" lon="-5.035400">
        <ele>1386.0</ele>
        <time>2015-05-10T12:51:12Z</time>
      </trkpt>
      <trkpt lat="40.201517" lon="-5.035533">
        <ele>1382.0</ele>
        <time>2015-05-10T12:51:14Z</time>
      </trkpt>
      <trkpt lat="40.201400" lon="-5.035667">
        <ele>1379.0</ele>
        <time>2015-05-10T12:51:16Z</time>
      </trkpt>
      <trkpt lat="40.201267" lon="-5.035800">
        <ele>1374.0</ele>
        <time>2015-05-10T12:51:18Z</time>
      </trkpt>
      <trkpt lat="40.201133" lon="-5.035917">
        <ele>1369.0</ele>
        <time>2015-05-10T12:51:20Z</time>
      </trkpt>
      <trkpt lat="40.201000" lon="-5.036017">
        <ele>1365.0</ele>
        <time>2015-05-10T12:51:22Z</time>
      </trkpt>
      <trkpt lat="40.200867" lon="-5.036117">
        <ele>1359.0</ele>
        <time>2015-05-10T12:51:24Z</time>
      </trkpt>
      <trkpt lat="40.200733" lon="-5.036250">
        <ele>1353.0</ele>
        <time>2015-05-10T12:51:26Z</time>
      </trkpt>
      <trkpt lat="40.200617" lon="-5.036383">
        <ele>1347.0</ele>
        <time>2015-05-10T12:51:28Z</time>
      </trkpt>
      <trkpt lat="40.200467" lon="-5.036517">
        <ele>1341.0</ele>
        <time>2015-05-10T12:51:30Z</time>
      </trkpt>
      <trkpt lat="40.200333" lon="-5.036667">
        <ele>1335.0</ele>
        <time>2015-05-10T12:51:32Z</time>
      </trkpt>
      <trkpt lat="40.200200" lon="-5.036767">
        <ele>1330.0</ele>
        <time>2015-05-10T12:51:34Z</time>
      </trkpt>
      <trkpt lat="40.200067" lon="-5.036867">
        <ele>1323.0</ele>
        <time>2015-05-10T12:51:36Z</time>
      </trkpt>
      <trkpt lat="40.199933" lon="-5.036983">
        <ele>1314.0</ele>
        <time>2015-05-10T12:51:38Z</time>
      </trkpt>
      <trkpt lat="40.199767" lon="-5.037083">
        <ele>1308.0</ele>
        <time>2015-05-10T12:51:40Z</time>
      </trkpt>
      <trkpt lat="40.199633" lon="-5.037183">
        <ele>1303.0</ele>
        <time>2015-05-10T12:51:42Z</time>
      </trkpt>
      <trkpt lat="40.199517" lon="-5.037267">
        <ele>1296.0</ele>
        <time>2015-05-10T12:51:44Z</time>
      </trkpt>
      <trkpt lat="40.199367" lon="-5.037317">
        <ele>1289.0</ele>
        <time>2015-05-10T12:51:46Z</time>
      </trkpt>
      <trkpt lat="40.199200" lon="-5.037350">
        <ele>1284.0</ele>
        <time>2015-05-10T12:51:48Z</time>
      </trkpt>
      <trkpt lat="40.199067" lon="-5.037417">
        <ele>1279.0</ele>
        <time>2015-05-10T12:51:50Z</time>
      </trkpt>
      <trkpt lat="40.198933" lon="-5.037533">
        <ele>1274.0</ele>
        <time>2015-05-10T12:51:52Z</time>
      </trkpt>
      <trkpt lat="40.198817" lon="-5.037667">
        <ele>1267.0</ele>
        <time>2015-05-10T12:51:54Z</time>
      </trkpt>
      <trkpt lat="40.198683" lon="-5.037800">
        <ele>1262.0</ele>
        <time>2015-05-10T12:51:56Z</time>
      </trkpt>
      <trkpt lat="40.198567" lon="-5.037933">
        <ele>1256.0</ele>
        <time>2015-05-10T12:51:58Z</time>
      </trkpt>
      <trkpt lat="40.198417" lon="-5.038083">
        <ele>1248.0</ele>
        <time>2015-05-10T12:52:00Z</time>
      </trkpt>
      <trkpt lat="40.198267" lon="-5.038200">
        <ele>1242.0</ele>
        <time>2015-05-10T12:52:02Z</time>
      </trkpt>
      <trkpt lat="40.198117" lon="-5.038333">
        <ele>1236.0</ele>
        <time>2015-05-10T12:52:04Z</time>
      </trkpt>
      <trkpt lat="40.197967" lon="-5.038483">
        <ele>1230.0</ele>
        <time>2015-05-10T12:52:06Z</time>
      </trkpt>
      <trkpt lat="40.197833" lon="-5.038633">
        <ele>1225.0</ele>
        <time>2015-05-10T12:52:08Z</time>
      </trkpt>
      <trkpt lat="40.197700" lon="-5.038783">
        <ele>1219.0</ele>
        <time>2015-05-10T12:52:10Z</time>
      </trkpt>
      <trkpt lat="40.197567" lon="-5.038933">
        <ele>1212.0</ele>
        <time>2015-05-10T12:52:12Z</time>
      </trkpt>
      <trkpt lat="40.197400" lon="-5.039083">
        <ele>1206.0</ele>
        <time>2015-05-10T12:52:14Z</time>
      </trkpt>
      <trkpt lat="40.197250" lon="-5.039217">
        <ele>1202.0</ele>
        <time>2015-05-10T12:52:16Z</time>
      </trkpt>
      <trkpt lat="40.197117" lon="-5.039333">
        <ele>1196.0</ele>
        <time>2015-05-10T12:52:18Z</time>
      </trkpt>
      <trkpt lat="40.196967" lon="-5.039483">
        <ele>1189.0</ele>
        <time>2015-05-10T12:52:20Z</time>
      </trkpt>
      <trkpt lat="40.196817" lon="-5.039667">
        <ele>1183.0</ele>
        <time>2015-05-10T12:52:22Z</time>
      </trkpt>
      <trkpt lat="40.196683" lon="-5.039817">
        <ele>1178.0</ele>
        <time>2015-05-10T12:52:24Z</time>
      </trkpt>
      <trkpt lat="40.196533" lon="-5.039983">
        <ele>1173.0</ele>
        <time>2015-05-10T12:52:26Z</time>
      </trkpt>
      <trkpt lat="40.196383" lon="-5.040150">
        <ele>1168.0</ele>
        <time>2015-05-10T12:52:28Z</time>
      </trkpt>
      <trkpt lat="40.196250" lon="-5.040333">
        <ele>1164.0</ele>
        <time>2015-05-10T12:52:30Z</time>
      </trkpt>
      <trkpt lat="40.196117" lon="-5.040500">
        <ele>1160.0</ele>
        <time>2015-05-10T12:52:32Z</time>
      </trkpt>
      <trkpt lat="40.195983" lon="-5.040650">
        <ele>1154.0</ele>
        <time>2015-05-10T12:52:34Z</time>
      </trkpt>
      <trkpt lat="40.195833" lon="-5.040833">
        <ele>1149.0</ele>
        <time>2015-05-10T12:52:36Z</time>
      </trkpt>
      <trkpt lat="40.195700" lon="-5.041017">
        <ele>1145.0</ele>
        <time>2015-05-10T12:52:38Z</time>
      </trkpt>
      <trkpt lat="40.195567" lon="-5.041200">
        <ele>1141.0</ele>
        <time>2015-05-10T12:52:40Z</time>
      </trkpt>
      <trkpt lat="40.195450" lon="-5.041383">
        <ele>1136.0</ele>
        <time>2015-05-10T12:52:42Z</time>
      </trkpt>
      <trkpt lat="40.195300" lon="-5.041583">
        <ele>1131.0</ele>
        <time>2015-05-10T12:52:44Z</time>
      </trkpt>
      <trkpt lat="40.195167" lon="-5.041767">
        <ele>1126.0</ele>
        <time>2015-05-10T12:52:46Z</time>
      </trkpt>
      <trkpt lat="40.195017" lon="-5.041967">
        <ele>1120.0</ele>
        <time>2015-05-10T12:52:48Z</time>
      </trkpt>
      <trkpt lat="40.194867" lon="-5.042167">
        <ele>1115.0</ele>
        <time>2015-05-10T12:52:50Z</time>
      </trkpt>
      <trkpt lat="40.194733" lon="-5.042367">
        <ele>1112.0</ele>
        <time>2015-05-10T12:52:52Z</time>
      </trkpt>
      <trkpt lat="40.194600" lon="-5.042567">
        <ele>1107.0</ele>
        <time>2015-05-10T12:52:54Z</time>
      </trkpt>
      <trkpt lat="40.194450" lon="-5.042750">
        <ele>1103.0</ele>
        <time>2015-05-10T12:52:56Z</time>
      </trkpt>
      <trkpt lat="40.194317" lon="-5.042950">
        <ele>1099.0</ele>
        <time>2015-05-10T12:52:58Z</time>
      </trkpt>
      <trkpt lat="40.194167" lon="-5.043133">
        <ele>1097.0</ele>
        <time>2015-05-10T12:53:00Z</time>
      </trkpt>
      <trkpt lat="40.194017" lon="-5.043300">
        <ele>1098.0</ele>
        <time>2015-05-10T12:53:02Z</time>
      </trkpt>
      <trkpt lat="40.193900" lon="-5.043450">
        <ele>1097.0</ele>
        <time>2015-05-10T12:53:04Z</time>
      </trkpt>
      <trkpt lat="40.193750" lon="-5.043617">
        <ele>1093.0</ele>
        <time>2015-05-10T12:53:06Z</time>
      </trkpt>
      <trkpt lat="40.193600" lon="-5.043800">
        <ele>1094.0</ele>
        <time>2015-05-10T12:53:08Z</time>
      </trkpt>
      <trkpt lat="40.193467" lon="-5.043967">
        <ele>1097.0</ele>
        <time>2015-05-10T12:53:10Z</time>
      </trkpt>
      <trkpt lat="40.193350" lon="-5.044133">
        <ele>1095.0</ele>
        <time>2015-05-10T12:53:12Z</time>
      </trkpt>
      <trkpt lat="40.193217" lon="-5.044317">
        <ele>1092.0</ele>
        <time>2015-05-10T12:53:14Z</time>
      </trkpt>
      <trkpt lat="40.193100" lon="-5.044500">
        <ele>1087.0</ele>
        <time>2015-05-10T12:53:16Z</time>
      </trkpt>
      <trkpt lat="40.192950" lon="-5.044700">
        <ele>1083.0</ele>
        <time>2015-05-10T12:53:18Z</time>
      </trkpt>
      <trkpt lat="40.192800" lon="-5.044917">
        <ele>1083.0</ele>
        <time>2015-05-10T12:53:20Z</time>
      </trkpt>
      <trkpt lat="40.192683" lon="-5.045150">
        <ele>1083.0</ele>
        <time>2015-05-10T12:53:22Z</time>
      </trkpt>
      <trkpt lat="40.192567" lon="-5.045383">
        <ele>1082.0</ele>
        <time>2015-05-10T12:53:24Z</time>
      </trkpt>
      <trkpt lat="40.192467" lon="-5.045667">
        <ele>1081.0</ele>
        <time>2015-05-10T12:53:26Z</time>
      </trkpt>
      <trkpt lat="40.192367" lon="-5.045933">
        <ele>1079.0</ele>
        <time>2015-05-10T12:53:28Z</time>
      </trkpt>
      <trkpt lat="40.192267" lon="-5.046183">
        <ele>1077.0</ele>
        <time>2015-05-10T12:53:30Z</time>
      </trkpt>
      <trkpt lat="40.192133" lon="-5.046417">
        <ele>1074.0</ele>
        <time>2015-05-10T12:53:32Z</time>
      </trkpt>
      <trkpt lat="40.191983" lon="-5.046583">
        <ele>1072.0</ele>
        <time>2015-05-10T12:53:34Z</time>
      </trkpt>
      <trkpt lat="40.191817" lon="-5.046717">
        <ele>1069.0</ele>
        <time>2015-05-10T12:53:36Z</time>
      </trkpt>
      <trkpt lat="40.191667" lon="-5.046900">
        <ele>1066.0</ele>
        <time>2015-05-10T12:53:38Z</time>
      </trkpt>
      <trkpt lat="40.191533" lon="-5.047100">
        <ele>1064.0</ele>
        <time>2015-05-10T12:53:40Z</time>
      </trkpt>
      <trkpt lat="40.191350" lon="-5.047250">
        <ele>1061.0</ele>
        <time>2015-05-10T12:53:42Z</time>
      </trkpt>
      <trkpt lat="40.191167" lon="-5.047417">
        <ele>1060.0</ele>
        <time>2015-05-10T12:53:44Z</time>
      </trkpt>
      <trkpt lat="40.191000" lon="-5.047600">
        <ele>1059.0</ele>
        <time>2015-05-10T12:53:46Z</time>
      </trkpt>
      <trkpt lat="40.190850" lon="-5.047750">
        <ele>1055.0</ele>
        <time>2015-05-10T12:53:48Z</time>
      </trkpt>
      <trkpt lat="40.190650" lon="-5.047917">
        <ele>1052.0</ele>
        <time>2015-05-10T12:53:50Z</time>
      </trkpt>
      <trkpt lat="40.190467" lon="-5.048117">
        <ele>1050.0</ele>
        <time>2015-05-10T12:53:52Z</time>
      </trkpt>
      <trkpt lat="40.190317" lon="-5.048300">
        <ele>1049.0</ele>
        <time>2015-05-10T12:53:54Z</time>
      </trkpt>
      <trkpt lat="40.190167" lon="-5.048467">
        <ele>1046.0</ele>
        <time>2015-05-10T12:53:56Z</time>
      </trkpt>
      <trkpt lat="40.189983" lon="-5.048633">
        <ele>1044.0</ele>
        <time>2015-05-10T12:53:58Z</time>
      </trkpt>
      <trkpt lat="40.189833" lon="-5.048767">
        <ele>1044.0</ele>
        <time>2015-05-10T12:54:00Z</time>
      </trkpt>
      <trkpt lat="40.189667" lon="-5.048900">
        <ele>1041.0</ele>
        <time>2015-05-10T12:54:02Z</time>
      </trkpt>
      <trkpt lat="40.189500" lon="-5.049033">
        <ele>1037.0</ele>
        <time>2015-05-10T12:54:04Z</time>
      </trkpt>
      <trkpt lat="40.189300" lon="-5.049167">
        <ele>1036.0</ele>
        <time>2015-05-10T12:54:06Z</time>
      </trkpt>
      <trkpt lat="40.189133" lon="-5.049300">
        <ele>1036.0</ele>
        <time>2015-05-10T12:54:08Z</time>
      </trkpt>
      <trkpt lat="40.188967" lon="-5.049450">
        <ele>1034.0</ele>
        <time>2015-05-10T12:54:10Z</time>
      </trkpt>
      <trkpt lat="40.188800" lon="-5.049617">
        <ele>1033.0</ele>
        <time>2015-05-10T12:54:12Z</time>
      </trkpt>
      <trkpt lat="40.188650" lon="-5.049783">
        <ele>1032.0</ele>
        <time>2015-05-10T12:54:14Z</time>
      </trkpt>
      <trkpt lat="40.188500" lon="-5.049950">
        <ele>1028.0</ele>
        <time>2015-05-10T12:54:16Z</time>
      </trkpt>
      <trkpt lat="40.188317" lon="-5.050117">
        <ele>1023.0</ele>
        <time>2015-05-10T12:54:18Z</time>
      </trkpt>
      <trkpt lat="40.188133" lon="-5.050300">
        <ele>1021.0</ele>
        <time>2015-05-10T12:54:20Z</time>
      </trkpt>
      <trkpt lat="40.187967" lon="-5.050433">
        <ele>1020.0</ele>
        <time>2015-05-10T12:54:22Z</time>
      </trkpt>
      <trkpt lat="40.187783" lon="-5.050533">
        <ele>1018.0</ele>
        <time>2015-05-10T12:54:24Z</time>
      </trkpt>
      <trkpt lat="40.187617" lon="-5.050650">
        <ele>1018.0</ele>
        <time>2015-05-10T12:54:26Z</time>
      </trkpt>
      <trkpt lat="40.187450" lon="-5.050783">
        <ele>1018.0</ele>
        <time>2015-05-10T12:54:28Z</time>
      </trkpt>
      <trkpt lat="40.187267" lon="-5.050933">
        <ele>1016.0</ele>
        <time>2015-05-10T12:54:30Z</time>
      </trkpt>
      <trkpt lat="40.187100" lon="-5.051133">
        <ele>1016.0</ele>
        <time>2015-05-10T12:54:32Z</time>
      </trkpt>
      <trkpt lat="40.186950" lon="-5.051283">
        <ele>1016.0</ele>
        <time>2015-05-10T12:54:34Z</time>
      </trkpt>
      <trkpt lat="40.186783" lon="-5.051383">
        <ele>1015.0</ele>
        <time>2015-05-10T12:54:36Z</time>
      </trkpt>
      <trkpt lat="40.186617" lon="-5.051533">
        <ele>1013.0</ele>
        <time>2015-05-10T12:54:38Z</time>
      </trkpt>
      <trkpt lat="40.186450" lon="-5.051700">
        <ele>1012.0</ele>
        <time>2015-05-10T12:54:40Z</time>
      </trkpt>
      <trkpt lat="40.186300" lon="-5.051900">
        <ele>1011.0</ele>
        <time>2015-05-10T12:54:42Z</time>
      </trkpt>
      <trkpt lat="40.186183" lon="-5.052150">
        <ele>1009.0</ele>
        <time>2015-05-10T12:54:44Z</time>
      </trkpt>
      <trkpt lat="40.186033" lon="-5.052367">
        <ele>1008.0</ele>
        <time>2015-05-10T12:54:46Z</time>
      </trkpt>
      <trkpt lat="40.185867" lon="-5.052500">
        <ele>1005.0</ele>
        <time>2015-05-10T12:54:48Z</time>
      </trkpt>
      <trkpt lat="40.185700" lon="-5.052617">
        <ele>1003.0</ele>
        <time>2015-05-10T12:54:50Z</time>
      </trkpt>
      <trkpt lat="40.185517" lon="-5.052750">
        <ele>1002.0</ele>
        <time>2015-05-10T12:54:52Z</time>
      </trkpt>
      <trkpt lat="40.185350" lon="-5.052883">
        <ele>1001.0</ele>
        <time>2015-05-10T12:54:54Z</time>
      </trkpt>
      <trkpt lat="40.185200" lon="-5.053050">
        <ele>1000.0</ele>
        <time>2015-05-10T12:54:56Z</time>
      </trkpt>
      <trkpt lat="40.185050" lon="-5.053250">
        <ele>999.0</ele>
        <time>2015-05-10T12:54:58Z</time>
      </trkpt>
      <trkpt lat="40.184900" lon="-5.053433">
        <ele>997.0</ele>
        <time>2015-05-10T12:55:00Z</time>
      </trkpt>
      <trkpt lat="40.184767" lon="-5.053617">
        <ele>995.0</ele>
        <time>2015-05-10T12:55:02Z</time>
      </trkpt>
      <trkpt lat="40.184617" lon="-5.053800">
        <ele>990.0</ele>
        <time>2015-05-10T12:55:04Z</time>
      </trkpt>
      <trkpt lat="40.184450" lon="-5.054000">
        <ele>986.0</ele>
        <time>2015-05-10T12:55:06Z</time>
      </trkpt>
      <trkpt lat="40.184300" lon="-5.054200">
        <ele>984.0</ele>
        <time>2015-05-10T12:55:08Z</time>
      </trkpt>
      <trkpt lat="40.184150" lon="-5.054367">
        <ele>981.0</ele>
        <time>2015-05-10T12:55:10Z</time>
      </trkpt>
      <trkpt lat="40.183983" lon="-5.054567">
        <ele>976.0</ele>
        <time>2015-05-10T12:55:12Z</time>
      </trkpt>
      <trkpt lat="40.183833" lon="-5.054783">
        <ele>972.0</ele>
        <time>2015-05-10T12:55:14Z</time>
      </trkpt>
      <trkpt lat="40.183700" lon="-5.055017">
        <ele>967.0</ele>
        <time>2015-05-10T12:55:16Z</time>
      </trkpt>
      <trkpt lat="40.183583" lon="-5.055267">
        <ele>962.0</ele>
        <time>2015-05-10T12:55:18Z</time>
      </trkpt>
      <trkpt lat="40.183450" lon="-5.055533">
        <ele>957.0</ele>
        <time>2015-05-10T12:55:20Z</time>
      </trkpt>
      <trkpt lat="40.183350" lon="-5.055817">
        <ele>953.0</ele>
        <time>2015-05-10T12:55:22Z</time>
      </trkpt>
      <trkpt lat="40.183250" lon="-5.056083">
        <ele>950.0</ele>
        <time>2015-05-10T12:55:24Z</time>
      </trkpt>
      <trkpt lat="40.183133" lon="-5.056333">
        <ele>945.0</ele>
        <time>2015-05-10T12:55:26Z</time>
      </trkpt>
      <trkpt lat="40.183000" lon="-5.056583">
        <ele>942.0</ele>
        <time>2015-05-10T12:55:28Z</time>
      </trkpt>
      <trkpt lat="40.182867" lon="-5.056817">
        <ele>937.0</ele>
        <time>2015-05-10T12:55:30Z</time>
      </trkpt>
      <trkpt lat="40.182717" lon="-5.057067">
        <ele>933.0</ele>
        <time>2015-05-10T12:55:32Z</time>
      </trkpt>
      <trkpt lat="40.182583" lon="-5.057300">
        <ele>929.0</ele>
        <time>2015-05-10T12:55:34Z</time>
      </trkpt>
      <trkpt lat="40.182450" lon="-5.057517">
        <ele>925.0</ele>
        <time>2015-05-10T12:55:36Z</time>
      </trkpt>
      <trkpt lat="40.182317" lon="-5.057750">
        <ele>921.0</ele>
        <time>2015-05-10T12:55:38Z</time>
      </trkpt>
      <trkpt lat="40.182167" lon="-5.057967">
        <ele>917.0</ele>
        <time>2015-05-10T12:55:40Z</time>
      </trkpt>
      <trkpt lat="40.182017" lon="-5.058150">
        <ele>913.0</ele>
        <time>2015-05-10T12:55:42Z</time>
      </trkpt>
      <trkpt lat="40.181850" lon="-5.058283">
        <ele>909.0</ele>
        <time>2015-05-10T12:55:44Z</time>
      </trkpt>
      <trkpt lat="40.181667" lon="-5.058383">
        <ele>907.0</ele>
        <time>2015-05-10T12:55:46Z</time>
      </trkpt>
      <trkpt lat="40.181517" lon="-5.058450">
        <ele>907.0</ele>
        <time>2015-05-10T12:55:48Z</time>
      </trkpt>
      <trkpt lat="40.181350" lon="-5.058483">
        <ele>904.0</ele>
        <time>2015-05-10T12:55:50Z</time>
      </trkpt>
      <trkpt lat="40.181183" lon="-5.058467">
        <ele>902.0</ele>
        <time>2015-05-10T12:55:52Z</time>
      </trkpt>
      <trkpt lat="40.181000" lon="-5.058483">
        <ele>900.0</ele>
        <time>2015-05-10T12:55:54Z</time>
      </trkpt>
      <trkpt lat="40.180817" lon="-5.058567">
        <ele>899.0</ele>
        <time>2015-05-10T12:55:56Z</time>
      </trkpt>
      <trkpt lat="40.180650" lon="-5.058633">
        <ele>898.0</ele>
        <time>2015-05-10T12:55:58Z</time>
      </trkpt>
      <trkpt lat="40.180467" lon="-5.058717">
        <ele>895.0</ele>
        <time>2015-05-10T12:56:00Z</time>
      </trkpt>
      <trkpt lat="40.180300" lon="-5.058817">
        <ele>893.0</ele>
        <time>2015-05-10T12:56:02Z</time>
      </trkpt>
      <trkpt lat="40.180133" lon="-5.058983">
        <ele>891.0</ele>
        <time>2015-05-10T12:56:04Z</time>
      </trkpt>
      <trkpt lat="40.179933" lon="-5.059117">
        <ele>891.0</ele>
        <time>2015-05-10T12:56:06Z</time>
      </trkpt>
      <trkpt lat="40.179800" lon="-5.059217">
        <ele>890.0</ele>
        <time>2015-05-10T12:56:08Z</time>
      </trkpt>
      <trkpt lat="40.179633" lon="-5.059300">
        <ele>885.0</ele>
        <time>2015-05-10T12:56:10Z</time>
      </trkpt>
      <trkpt lat="40.179433" lon="-5.059400">
        <ele>879.0</ele>
        <time>2015-05-10T12:56:12Z</time>
      </trkpt>
      <trkpt lat="40.179267" lon="-5.059533">
        <ele>876.0</ele>
        <time>2015-05-10T12:56:14Z</time>
      </trkpt>
      <trkpt lat="40.179117" lon="-5.059683">
        <ele>871.0</ele>
        <time>2015-05-10T12:56:16Z</time>
      </trkpt>
      <trkpt lat="40.178967" lon="-5.059867">
        <ele>866.0</ele>
        <time>2015-05-10T12:56:18Z</time>
      </trkpt>
      <trkpt lat="40.178833" lon="-5.060033">
        <ele>861.0</ele>
        <time>2015-05-10T12:56:20Z</time>
      </trkpt>
      <trkpt lat="40.178667" lon="-5.060233">
        <ele>856.0</ele>
        <time>2015-05-10T12:56:22Z</time>
      </trkpt>
      <trkpt lat="40.178517" lon="-5.060417">
        <ele>854.0</ele>
        <time>2015-05-10T12:56:24Z</time>
      </trkpt>
      <trkpt lat="40.178367" lon="-5.060583">
        <ele>853.0</ele>
        <time>2015-05-10T12:56:26Z</time>
      </trkpt>
      <trkpt lat="40.178233" lon="-5.060800">
        <ele>850.0</ele>
        <time>2015-05-10T12:56:28Z</time>
      </trkpt>
      <trkpt lat="40.178117" lon="-5.061050">
        <ele>848.0</ele>
        <time>2015-05-10T12:56:30Z</time>
      </trkpt>
      <trkpt lat="40.178033" lon="-5.061317">
        <ele>847.0</ele>
        <time>2015-05-10T12:56:32Z</time>
      </trkpt>
      <trkpt lat="40.177933" lon="-5.061567">
        <ele>844.0</ele>
        <time>2015-05-10T12:56:34Z</time>
      </trkpt>
      <trkpt lat="40.177867" lon="-5.061833">
        <ele>839.0</ele>
        <time>2015-05-10T12:56:36Z</time>
      </trkpt>
      <trkpt lat="40.177800" lon="-5.062117">
        <ele>832.0</ele>
        <time>2015-05-10T12:56:38Z</time>
      </trkpt>
      <trkpt lat="40.177700" lon="-5.062417">
        <ele>828.0</ele>
        <time>2015-05-10T12:56:40Z</time>
      </trkpt>
      <trkpt lat="40.177617" lon="-5.062667">
        <ele>823.0</ele>
        <time>2015-05-10T12:56:42Z</time>
      </trkpt>
      <trkpt lat="40.177533" lon="-5.062967">
        <ele>817.0</ele>
        <time>2015-05-10T12:56:44Z</time>
      </trkpt>
      <trkpt lat="40.177417" lon="-5.063267">
        <ele>813.0</ele>
        <time>2015-05-10T12:56:46Z</time>
      </trkpt>
      <trkpt lat="40.177317" lon="-5.063533">
        <ele>809.0</ele>
        <time>2015-05-10T12:56:48Z</time>
      </trkpt>
      <trkpt lat="40.177200" lon="-5.063817">
        <ele>803.0</ele>
        <time>2015-05-10T12:56:50Z</time>
      </trkpt>
      <trkpt lat="40.177117" lon="-5.064117">
        <ele>798.0</ele>
        <time>2015-05-10T12:56:52Z</time>
      </trkpt>
      <trkpt lat="40.177017" lon="-5.064400">
        <ele>794.0</ele>
        <time>2015-05-10T12:56:54Z</time>
      </trkpt>
      <trkpt lat="40.176933" lon="-5.064700">
        <ele>789.0</ele>
        <time>2015-05-10T12:56:56Z</time>
      </trkpt>
      <trkpt lat="40.176850" lon="-5.065000">
        <ele>785.0</ele>
        <time>2015-05-10T12:56:58Z</time>
      </trkpt>
      <trkpt lat="40.176767" lon="-5.065300">
        <ele>782.0</ele>
        <time>2015-05-10T12:57:00Z</time>
      </trkpt>
      <trkpt lat="40.176700" lon="-5.065583">
        <ele>778.0</ele>
        <time>2015-05-10T12:57:02Z</time>
      </trkpt>
      <trkpt lat="40.176633" lon="-5.065883">
        <ele>773.0</ele>
        <time>2015-05-10T12:57:04Z</time>
      </trkpt>
      <trkpt lat="40.176550" lon="-5.066183">
        <ele>769.0</ele>
        <time>2015-05-10T12:57:06Z</time>
      </trkpt>
      <trkpt lat="40.176483" lon="-5.066467">
        <ele>765.0</ele>
        <time>2015-05-10T12:57:08Z</time>
      </trkpt>
      <trkpt lat="40.176433" lon="-5.066750">
        <ele>761.0</ele>
        <time>2015-05-10T12:57:10Z</time>
      </trkpt>
      <trkpt lat="40.176400" lon="-5.067067">
        <ele>757.0</ele>
        <time>2015-05-10T12:57:12Z</time>
      </trkpt>
      <trkpt lat="40.176367" lon="-5.067367">
        <ele>754.0</ele>
        <time>2015-05-10T12:57:14Z</time>
      </trkpt>
      <trkpt lat="40.176333" lon="-5.067650">
        <ele>752.0</ele>
        <time>2015-05-10T12:57:16Z</time>
      </trkpt>
      <trkpt lat="40.176317" lon="-5.067950">
        <ele>749.0</ele>
        <time>2015-05-10T12:57:18Z</time>
      </trkpt>
      <trkpt lat="40.176317" lon="-5.068250">
        <ele>747.0</ele>
        <time>2015-05-10T12:57:20Z</time>
      </trkpt>
      <trkpt lat="40.176317" lon="-5.068533">
        <ele>745.0</ele>
        <time>2015-05-10T12:57:22Z</time>
      </trkpt>
      <trkpt lat="40.176300" lon="-5.068833">
        <ele>743.0</ele>
        <time>2015-05-10T12:57:24Z</time>
      </trkpt>
      <trkpt lat="40.176317" lon="-5.069133">
        <ele>740.0</ele>
        <time>2015-05-10T12:57:26Z</time>
      </trkpt>
      <trkpt lat="40.176333" lon="-5.069450">
        <ele>738.0</ele>
        <time>2015-05-10T12:57:28Z</time>
      </trkpt>
      <trkpt lat="40.176350" lon="-5.069733">
        <ele>736.0</ele>
        <time>2015-05-10T12:57:30Z</time>
      </trkpt>
      <trkpt lat="40.176383" lon="-5.070033">
        <ele>734.0</ele>
        <time>2015-05-10T12:57:32Z</time>
      </trkpt>
      <trkpt lat="40.176400" lon="-5.070333">
        <ele>731.0</ele>
        <time>2015-05-10T12:57:34Z</time>
      </trkpt>
      <trkpt lat="40.176400" lon="-5.070650">
        <ele>731.0</ele>
        <time>2015-05-10T12:57:36Z</time>
      </trkpt>
      <trkpt lat="40.176400" lon="-5.070933">
        <ele>730.0</ele>
        <time>2015-05-10T12:57:38Z</time>
      </trkpt>
      <trkpt lat="40.176417" lon="-5.071233">
        <ele>729.0</ele>
        <time>2015-05-10T12:57:40Z</time>
      </trkpt>
      <trkpt lat="40.176417" lon="-5.071533">
        <ele>725.0</ele>
        <time>2015-05-10T12:57:42Z</time>
      </trkpt>
      <trkpt lat="40.176417" lon="-5.071833">
        <ele>721.0</ele>
        <time>2015-05-10T12:57:44Z</time>
      </trkpt>
      <trkpt lat="40.176467" lon="-5.072117">
        <ele>718.0</ele>
        <time>2015-05-10T12:57:46Z</time>
      </trkpt>
      <trkpt lat="40.176533" lon="-5.072433">
        <ele>714.0</ele>
        <time>2015-05-10T12:57:48Z</time>
      </trkpt>
      <trkpt lat="40.176583" lon="-5.072733">
        <ele>711.0</ele>
        <time>2015-05-10T12:57:50Z</time>
      </trkpt>
      <trkpt lat="40.176633" lon="-5.073033">
        <ele>708.0</ele>
        <time>2015-05-10T12:57:52Z</time>
      </trkpt>
      <trkpt lat="40.176700" lon="-5.073333">
        <ele>705.0</ele>
        <time>2015-05-10T12:57:54Z</time>
      </trkpt>
      <trkpt lat="40.176767" lon="-5.073617">
        <ele>703.0</ele>
        <time>2015-05-10T12:57:56Z</time>
      </trkpt>
      <trkpt lat="40.176850" lon="-5.073883">
        <ele>700.0</ele>
        <time>2015-05-10T12:57:58Z</time>
      </trkpt>
      <trkpt lat="40.176933" lon="-5.074167">
        <ele>697.0</ele>
        <time>2015-05-10T12:58:00Z</time>
      </trkpt>
      <trkpt lat="40.177017" lon="-5.074467">
        <ele>694.0</ele>
        <time>2015-05-10T12:58:02Z</time>
      </trkpt>
      <trkpt lat="40.177117" lon="-5.074750">
        <ele>694.0</ele>
        <time>2015-05-10T12:58:04Z</time>
      </trkpt>
      <trkpt lat="40.177183" lon="-5.075017">
        <ele>696.0</ele>
        <time>2015-05-10T12:58:06Z</time>
      </trkpt>
      <trkpt lat="40.177200" lon="-5.075267">
        <ele>698.0</ele>
        <time>2015-05-10T12:58:08Z</time>
      </trkpt>
      <trkpt lat="40.177200" lon="-5.075550">
        <ele>698.0</ele>
        <time>2015-05-10T12:58:10Z</time>
      </trkpt>
      <trkpt lat="40.177183" lon="-5.075833">
        <ele>698.0</ele>
        <time>2015-05-10T12:58:12Z</time>
      </trkpt>
      <trkpt lat="40.177217" lon="-5.076083">
        <ele>698.0</ele>
        <time>2015-05-10T12:58:14Z</time>
      </trkpt>
      <trkpt lat="40.177283" lon="-5.076300">
        <ele>696.0</ele>
        <time>2015-05-10T12:58:16Z</time>
      </trkpt>
      <trkpt lat="40.177383" lon="-5.076550">
        <ele>691.0</ele>
        <time>2015-05-10T12:58:18Z</time>
      </trkpt>
      <trkpt lat="40.177467" lon="-5.076783">
        <ele>690.0</ele>
        <time>2015-05-10T12:58:20Z</time>
      </trkpt>
      <trkpt lat="40.177550" lon="-5.076983">
        <ele>689.0</ele>
        <time>2015-05-10T12:58:22Z</time>
      </trkpt>
      <trkpt lat="40.177667" lon="-5.077183">
        <ele>687.0</ele>
        <time>2015-05-10T12:58:24Z</time>
      </trkpt>
      <trkpt lat="40.177783" lon="-5.077400">
        <ele>686.0</ele>
        <time>2015-05-10T12:58:26Z</time>
      </trkpt>
      <trkpt lat="40.177883" lon="-5.077600">
        <ele>685.0</ele>
        <time>2015-05-10T12:58:28Z</time>
      </trkpt>
      <trkpt lat="40.177983" lon="-5.077817">
        <ele>681.0</ele>
        <time>2015-05-10T12:58:30Z</time>
      </trkpt>
      <trkpt lat="40.178100" lon="-5.078033">
        <ele>677.0</ele>
        <time>2015-05-10T12:58:32Z</time>
      </trkpt>
      <trkpt lat="40.178200" lon="-5.078233">
        <ele>674.0</ele>
        <time>2015-05-10T12:58:34Z</time>
      </trkpt>
      <trkpt lat="40.178317" lon="-5.078450">
        <ele>669.0</ele>
        <time>2015-05-10T12:58:36Z</time>
      </trkpt>
      <trkpt lat="40.178467" lon="-5.078667">
        <ele>667.0</ele>
        <time>2015-05-10T12:58:38Z</time>
      </trkpt>
      <trkpt lat="40.178583" lon="-5.078833">
        <ele>666.0</ele>
        <time>2015-05-10T12:58:40Z</time>
      </trkpt>
      <trkpt lat="40.178733" lon="-5.079000">
        <ele>660.0</ele>
        <time>2015-05-10T12:58:42Z</time>
      </trkpt>
      <trkpt lat="40.178950" lon="-5.079150">
        <ele>659.0</ele>
        <time>2015-05-10T12:58:44Z</time>
      </trkpt>
      <trkpt lat="40.179133" lon="-5.079283">
        <ele>662.0</ele>
        <time>2015-05-10T12:58:46Z</time>
      </trkpt>
      <trkpt lat="40.179267" lon="-5.079417">
        <ele>665.0</ele>
        <time>2015-05-10T12:58:48Z</time>
      </trkpt>
      <trkpt lat="40.179433" lon="-5.079517">
        <ele>665.0</ele>
        <time>2015-05-10T12:58:50Z</time>
      </trkpt>
      <trkpt lat="40.179650" lon="-5.079583">
        <ele>665.0</ele>
        <time>2015-05-10T12:58:52Z</time>
      </trkpt>
      <trkpt lat="40.179817" lon="-5.079617">
        <ele>668.0</ele>
        <time>2015-05-10T12:58:54Z</time>
      </trkpt>
      <trkpt lat="40.179967" lon="-5.079617">
        <ele>667.0</ele>
        <time>2015-05-10T12:58:56Z</time>
      </trkpt>
      <trkpt lat="40.180117" lon="-5.079567">
        <ele>662.0</ele>
        <time>2015-05-10T12:58:58Z</time>
      </trkpt>
      <trkpt lat="40.180283" lon="-5.079483">
        <ele>658.0</ele>
        <time>2015-05-10T12:59:00Z</time>
      </trkpt>
      <trkpt lat="40.180450" lon="-5.079400">
        <ele>654.0</ele>
        <time>2015-05-10T12:59:02Z</time>
      </trkpt>
      <trkpt lat="40.180633" lon="-5.079333">
        <ele>647.0</ele>
        <time>2015-05-10T12:59:04Z</time>
      </trkpt>
      <trkpt lat="40.180833" lon="-5.079267">
        <ele>639.0</ele>
        <time>2015-05-10T12:59:06Z</time>
      </trkpt>
      <trkpt lat="40.181033" lon="-5.079200">
        <ele>635.0</ele>
        <time>2015-05-10T12:59:08Z</time>
      </trkpt>
      <trkpt lat="40.181200" lon="-5.079133">
        <ele>631.0</ele>
        <time>2015-05-10T12:59:10Z</time>
      </trkpt>
      <trkpt lat="40.181383" lon="-5.079017">
        <ele>624.0</ele>
        <time>2015-05-10T12:59:12Z</time>
      </trkpt>
      <trkpt lat="40.181583" lon="-5.078917">
        <ele>620.0</ele>
        <time>2015-05-10T12:59:14Z</time>
      </trkpt>
      <trkpt lat="40.181750" lon="-5.078850">
        <ele>616.0</ele>
        <time>2015-05-10T12:59:16Z</time>
      </trkpt>
      <trkpt lat="40.181917" lon="-5.078767">
        <ele>611.0</ele>
        <time>2015-05-10T12:59:18Z</time>
      </trkpt>
      <trkpt lat="40.182100" lon="-5.078683">
        <ele>606.0</ele>
        <time>2015-05-10T12:59:20Z</time>
      </trkpt>
      <trkpt lat="40.182283" lon="-5.078633">
        <ele>602.0</ele>
        <time>2015-05-10T12:59:22Z</time>
      </trkpt>
      <trkpt lat="40.182467" lon="-5.078567">
        <ele>597.0</ele>
        <time>2015-05-10T12:59:24Z</time>
      </trkpt>
      <trkpt lat="40.182667" lon="-5.078500">
        <ele>593.0</ele>
        <time>2015-05-10T12:59:26Z</time>
      </trkpt>
      <trkpt lat="40.182867" lon="-5.078433">
        <ele>590.0</ele>
        <time>2015-05-10T12:59:28Z</time>
      </trkpt>
      <trkpt lat="40.183033" lon="-5.078367">
        <ele>587.0</ele>
        <time>2015-05-10T12:59:30Z</time>
      </trkpt>
      <trkpt lat="40.183167" lon="-5.078233">
        <ele>581.0</ele>
        <time>2015-05-10T12:59:32Z</time>
      </trkpt>
      <trkpt lat="40.183350" lon="-5.078100">
        <ele>574.0</ele>
        <time>2015-05-10T12:59:34Z</time>
      </trkpt>
      <trkpt lat="40.183517" lon="-5.077983">
        <ele>570.0</ele>
        <time>2015-05-10T12:59:36Z</time>
      </trkpt>
      <trkpt lat="40.183667" lon="-5.077867">
        <ele>567.0</ele>
        <time>2015-05-10T12:59:38Z</time>
      </trkpt>
      <trkpt lat="40.183800" lon="-5.077733">
        <ele>561.0</ele>
        <time>2015-05-10T12:59:40Z</time>
      </trkpt>
      <trkpt lat="40.183967" lon="-5.077583">
        <ele>554.0</ele>
        <time>2015-05-10T12:59:42Z</time>
      </trkpt>
      <trkpt lat="40.184150" lon="-5.077467">
        <ele>549.0</ele>
        <time>2015-05-10T12:59:44Z</time>
      </trkpt>
      <trkpt lat="40.184317" lon="-5.077383">
        <ele>546.0</ele>
        <time>2015-05-10T12:59:46Z</time>
      </trkpt>
      <trkpt lat="40.184517" lon="-5.077317">
        <ele>542.0</ele>
        <time>2015-05-10T12:59:48Z</time>
      </trkpt>
      <trkpt lat="40.184683" lon="-5.077250">
        <ele>539.0</ele>
        <time>2015-05-10T12:59:50Z</time>
      </trkpt>
      <trkpt lat="40.184850" lon="-5.077200">
        <ele>538.0</ele>
        <time>2015-05-10T12:59:52Z</time>
      </trkpt>
      <trkpt lat="40.185033" lon="-5.077167">
        <ele>537.0</ele>
        <time>2015-05-10T12:59:54Z</time>
      </trkpt>
      <trkpt lat="40.185200" lon="-5.077117">
        <ele>535.0</ele>
        <time>2015-05-10T12:59:56Z</time>
      </trkpt>
      <trkpt lat="40.185367" lon="-5.077117">
        <ele>533.0</ele>
        <time>2015-05-10T12:59:58Z</time>
      </trkpt>
      <trkpt lat="40.185550" lon="-5.077133">
        <ele>534.0</ele>
        <time>2015-05-10T13:00:00Z</time>
      </trkpt>
      <trkpt lat="40.185700" lon="-5.077183">
        <ele>537.0</ele>
        <time>2015-05-10T13:00:02Z</time>
      </trkpt>
      <trkpt lat="40.185817" lon="-5.077283">
        <ele>540.0</ele>
        <time>2015-05-10T13:00:04Z</time>
      </trkpt>
      <trkpt lat="40.185917" lon="-5.077467">
        <ele>539.0</ele>
        <time>2015-05-10T13:00:06Z</time>
      </trkpt>
      <trkpt lat="40.185917" lon="-5.077717">
        <ele>540.0</ele>
        <time>2015-05-10T13:00:08Z</time>
      </trkpt>
      <trkpt lat="40.185850" lon="-5.077917">
        <ele>542.0</ele>
        <time>2015-05-10T13:00:10Z</time>
      </trkpt>
      <trkpt lat="40.185733" lon="-5.078050">
        <ele>546.0</ele>
        <time>2015-05-10T13:00:12Z</time>
      </trkpt>
      <trkpt lat="40.185600" lon="-5.078067">
        <ele>547.0</ele>
        <time>2015-05-10T13:00:14Z</time>
      </trkpt>
      <trkpt lat="40.185467" lon="-5.077967">
        <ele>545.0</ele>
        <time>2015-05-10T13:00:16Z</time>
      </trkpt>
      <trkpt lat="40.185417" lon="-5.077783">
        <ele>542.0</ele>
        <time>2015-05-10T13:00:18Z</time>
      </trkpt>
      <trkpt lat="40.185417" lon="-5.077600">
        <ele>542.0</ele>
        <time>2015-05-10T13:00:20Z</time>
      </trkpt>
      <trkpt lat="40.185450" lon="-5.077417">
        <ele>542.0</ele>
        <time>2015-05-10T13:00:22Z</time>
      </trkpt>
      <trkpt lat="40.185500" lon="-5.077233">
        <ele>541.0</ele>
        <time>2015-05-10T13:00:24Z</time>
      </trkpt>
      <trkpt lat="40.185600" lon="-5.077000">
        <ele>542.0</ele>
        <time>2015-05-10T13:00:26Z</time>
      </trkpt>
      <trkpt lat="40.185650" lon="-5.076783">
        <ele>545.0</ele>
        <time>2015-05-10T13:00:28Z</time>
      </trkpt>
      <trkpt lat="40.185617" lon="-5.076583">
        <ele>546.0</ele>
        <time>2015-05-10T13:00:30Z</time>
      </trkpt>
      <trkpt lat="40.185533" lon="-5.076400">
        <ele>547.0</ele>
        <time>2015-05-10T13:00:32Z</time>
      </trkpt>
      <trkpt lat="40.185400" lon="-5.076300">
        <ele>549.0</ele>
        <time>2015-05-10T13:00:34Z</time>
      </trkpt>
      <trkpt lat="40.185250" lon="-5.076267">
        <ele>551.0</ele>
        <time>2015-05-10T13:00:36Z</time>
      </trkpt>
      <trkpt lat="40.185083" lon="-5.076283">
        <ele>552.0</ele>
        <time>2015-05-10T13:00:38Z</time>
      </trkpt>
      <trkpt lat="40.184950" lon="-5.076417">
        <ele>554.0</ele>
        <time>2015-05-10T13:00:40Z</time>
      </trkpt>
      <trkpt lat="40.184900" lon="-5.076633">
        <ele>555.0</ele>
        <time>2015-05-10T13:00:42Z</time>
      </trkpt>
      <trkpt lat="40.184917" lon="-5.076900">
        <ele>555.0</ele>
        <time>2015-05-10T13:00:44Z</time>
      </trkpt>
      <trkpt lat="40.185017" lon="-5.077133">
        <ele>556.0</ele>
        <time>2015-05-10T13:00:46Z</time>
      </trkpt>
      <trkpt lat="40.185167" lon="-5.077283">
        <ele>556.0</ele>
        <time>2015-05-10T13:00:48Z</time>
      </trkpt>
      <trkpt lat="40.185333" lon="-5.077317">
        <ele>555.0</ele>
        <time>2015-05-10T13:00:50Z</time>
      </trkpt>
      <trkpt lat="40.185483" lon="-5.077267">
        <ele>554.0</ele>
        <time>2015-05-10T13:00:52Z</time>
      </trkpt>
      <trkpt lat="40.185600" lon="-5.077117">
        <ele>555.0</ele>
        <time>2015-05-10T13:00:54Z</time>
      </trkpt>
      <trkpt lat="40.185650" lon="-5.076917">
        <ele>558.0</ele>
        <time>2015-05-10T13:00:56Z</time>
      </trkpt>
      <trkpt lat="40.185633" lon="-5.076733">
        <ele>560.0</ele>
        <time>2015-05-10T13:00:58Z</time>
      </trkpt>
      <trkpt lat="40.185600" lon="-5.076567">
        <ele>558.0</ele>
        <time>2015-05-10T13:01:00Z</time>
      </trkpt>
      <trkpt lat="40.185483" lon="-5.076417">
        <ele>558.0</ele>
        <time>2015-05-10T13:01:02Z</time>
      </trkpt>
      <trkpt lat="40.185350" lon="-5.076383">
        <ele>561.0</ele>
        <time>2015-05-10T13:01:04Z</time>
      </trkpt>
      <trkpt lat="40.185233" lon="-5.076450">
        <ele>561.0</ele>
        <time>2015-05-10T13:01:06Z</time>
      </trkpt>
      <trkpt lat="40.185100" lon="-5.076617">
        <ele>558.0</ele>
        <time>2015-05-10T13:01:08Z</time>
      </trkpt>
      <trkpt lat="40.184983" lon="-5.076850">
        <ele>556.0</ele>
        <time>2015-05-10T13:01:10Z</time>
      </trkpt>
      <trkpt lat="40.184917" lon="-5.077150">
        <ele>555.0</ele>
        <time>2015-05-10T13:01:12Z</time>
      </trkpt>
      <trkpt lat="40.184983" lon="-5.077483">
        <ele>555.0</ele>
        <time>2015-05-10T13:01:14Z</time>
      </trkpt>
      <trkpt lat="40.185117" lon="-5.077717">
        <ele>558.0</ele>
        <time>2015-05-10T13:01:16Z</time>
      </trkpt>
      <trkpt lat="40.185267" lon="-5.077850">
        <ele>560.0</ele>
        <time>2015-05-10T13:01:18Z</time>
      </trkpt>
      <trkpt lat="40.185467" lon="-5.077950">
        <ele>556.0</ele>
        <time>2015-05-10T13:01:20Z</time>
      </trkpt>
      <trkpt lat="40.185683" lon="-5.077933">
        <ele>555.0</ele>
        <time>2015-05-10T13:01:22Z</time>
      </trkpt>
      <trkpt lat="40.185850" lon="-5.077883">
        <ele>557.0</ele>
        <time>2015-05-10T13:01:24Z</time>
      </trkpt>
      <trkpt lat="40.185983" lon="-5.077750">
        <ele>554.0</ele>
        <time>2015-05-10T13:01:26Z</time>
      </trkpt>
      <trkpt lat="40.186083" lon="-5.077517">
        <ele>553.0</ele>
        <time>2015-05-10T13:01:28Z</time>
      </trkpt>
      <trkpt lat="40.186117" lon="-5.077300">
        <ele>555.0</ele>
        <time>2015-05-10T13:01:30Z</time>
      </trkpt>
      <trkpt lat="40.186083" lon="-5.077117">
        <ele>556.0</ele>
        <time>2015-05-10T13:01:32Z</time>
      </trkpt>
      <trkpt lat="40.186000" lon="-5.076967">
        <ele>557.0</ele>
        <time>2015-05-10T13:01:34Z</time>
      </trkpt>
      <trkpt lat="40.185867" lon="-5.076867">
        <ele>558.0</ele>
        <time>2015-05-10T13:01:36Z</time>
      </trkpt>
      <trkpt lat="40.185717" lon="-5.076833">
        <ele>560.0</ele>
        <time>2015-05-10T13:01:38Z</time>
      </trkpt>
      <trkpt lat="40.185567" lon="-5.076817">
        <ele>561.0</ele>
        <time>2015-05-10T13:01:40Z</time>
      </trkpt>
      <trkpt lat="40.185450" lon="-5.076900">
        <ele>561.0</ele>
        <time>2015-05-10T13:01:42Z</time>
      </trkpt>
      <trkpt lat="40.185317" lon="-5.076983">
        <ele>558.0</ele>
        <time>2015-05-10T13:01:44Z</time>
      </trkpt>
      <trkpt lat="40.185183" lon="-5.076933">
        <ele>556.0</ele>
        <time>2015-05-10T13:01:46Z</time>
      </trkpt>
      <trkpt lat="40.185083" lon="-5.076867">
        <ele>563.0</ele>
        <time>2015-05-10T13:01:48Z</time>
      </trkpt>
      <trkpt lat="40.185017" lon="-5.076833">
        <ele>565.0</ele>
        <time>2015-05-10T13:01:50Z</time>
      </trkpt>
      <trkpt lat="40.184950" lon="-5.076700">
        <ele>562.0</ele>
        <time>2015-05-10T13:01:52Z</time>
      </trkpt>
      <trkpt lat="40.185000" lon="-5.076550">
        <ele>560.0</ele>
        <time>2015-05-10T13:01:54Z</time>
      </trkpt>
      <trkpt lat="40.185100" lon="-5.076417">
        <ele>558.0</ele>
        <time>2015-05-10T13:01:56Z</time>
      </trkpt>
      <trkpt lat="40.185217" lon="-5.076317">
        <ele>557.0</ele>
        <time>2015-05-10T13:01:58Z</time>
      </trkpt>
      <trkpt lat="40.185367" lon="-5.076267">
        <ele>555.0</ele>
        <time>2015-05-10T13:02:00Z</time>
      </trkpt>
      <trkpt lat="40.185533" lon="-5.076267">
        <ele>555.0</ele>
        <time>2015-05-10T13:02:02Z</time>
      </trkpt>
      <trkpt lat="40.185683" lon="-5.076367">
        <ele>557.0</ele>
        <time>2015-05-10T13:02:04Z</time>
      </trkpt>
      <trkpt lat="40.185800" lon="-5.076533">
        <ele>558.0</ele>
        <time>2015-05-10T13:02:06Z</time>
      </trkpt>
      <trkpt lat="40.185900" lon="-5.076767">
        <ele>558.0</ele>
        <time>2015-05-10T13:02:08Z</time>
      </trkpt>
      <trkpt lat="40.185917" lon="-5.077017">
        <ele>558.0</ele>
        <time>2015-05-10T13:02:10Z</time>
      </trkpt>
      <trkpt lat="40.185900" lon="-5.077233">
        <ele>559.0</ele>
        <time>2015-05-10T13:02:12Z</time>
      </trkpt>
      <trkpt lat="40.185817" lon="-5.077383">
        <ele>557.0</ele>
        <time>2015-05-10T13:02:14Z</time>
      </trkpt>
      <trkpt lat="40.185683" lon="-5.077467">
        <ele>555.0</ele>
        <time>2015-05-10T13:02:16Z</time>
      </trkpt>
      <trkpt lat="40.185567" lon="-5.077517">
        <ele>558.0</ele>
        <time>2015-05-10T13:02:18Z</time>
      </trkpt>
      <trkpt lat="40.185483" lon="-5.077567">
        <ele>558.0</ele>
        <time>2015-05-10T13:02:20Z</time>
      </trkpt>
      <trkpt lat="40.185333" lon="-5.077533">
        <ele>554.0</ele>
        <time>2015-05-10T13:02:22Z</time>
      </trkpt>
      <trkpt lat="40.185200" lon="-5.077417">
        <ele>553.0</ele>
        <time>2015-05-10T13:02:24Z</time>
      </trkpt>
      <trkpt lat="40.185133" lon="-5.077267">
        <ele>555.0</ele>
        <time>2015-05-10T13:02:26Z</time>
      </trkpt>
      <trkpt lat="40.185083" lon="-5.077100">
        <ele>555.0</ele>
        <time>2015-05-10T13:02:28Z</time>
      </trkpt>
      <trkpt lat="40.185067" lon="-5.076883">
        <ele>555.0</ele>
        <time>2015-05-10T13:02:30Z</time>
      </trkpt>
      <trkpt lat="40.185117" lon="-5.076683">
        <ele>557.0</ele>
        <time>2015-05-10T13:02:32Z</time>
      </trkpt>
      <trkpt lat="40.185233" lon="-5.076533">
        <ele>555.0</ele>
        <time>2015-05-10T13:02:34Z</time>
      </trkpt>
      <trkpt lat="40.185333" lon="-5.076417">
        <ele>553.0</ele>
        <time>2015-05-10T13:02:36Z</time>
      </trkpt>
      <trkpt lat="40.185483" lon="-5.076367">
        <ele>550.0</ele>
        <time>2015-05-10T13:02:38Z</time>
      </trkpt>
      <trkpt lat="40.185650" lon="-5.076383">
        <ele>547.0</ele>
        <time>2015-05-10T13:02:40Z</time>
      </trkpt>
      <trkpt lat="40.185800" lon="-5.076417">
        <ele>545.0</ele>
        <time>2015-05-10T13:02:42Z</time>
      </trkpt>
      <trkpt lat="40.185967" lon="-5.076550">
        <ele>542.0</ele>
        <time>2015-05-10T13:02:44Z</time>
      </trkpt>
      <trkpt lat="40.186133" lon="-5.076683">
        <ele>540.0</ele>
        <time>2015-05-10T13:02:46Z</time>
      </trkpt>
      <trkpt lat="40.186300" lon="-5.076717">
        <ele>539.0</ele>
        <time>2015-05-10T13:02:48Z</time>
      </trkpt>
      <trkpt lat="40.186433" lon="-5.076667">
        <ele>537.0</ele>
        <time>2015-05-10T13:02:50Z</time>
      </trkpt>
      <trkpt lat="40.186550" lon="-5.076583">
        <ele>535.0</ele>
        <time>2015-05-10T13:02:52Z</time>
      </trkpt>
      <trkpt lat="40.186617" lon="-5.076483">
        <ele>531.0</ele>
        <time>2015-05-10T13:02:54Z</time>
      </trkpt>
      <trkpt lat="40.186667" lon="-5.076300">
        <ele>530.0</ele>
        <time>2015-05-10T13:02:56Z</time>
      </trkpt>
      <trkpt lat="40.186650" lon="-5.076117">
        <ele>531.0</ele>
        <time>2015-05-10T13:02:58Z</time>
      </trkpt>
      <trkpt lat="40.186583" lon="-5.075983">
        <ele>530.0</ele>
        <time>2015-05-10T13:03:00Z</time>
      </trkpt>
      <trkpt lat="40.186500" lon="-5.075833">
        <ele>528.0</ele>
        <time>2015-05-10T13:03:02Z</time>
      </trkpt>
      <trkpt lat="40.186417" lon="-5.075700">
        <ele>529.0</ele>
        <time>2015-05-10T13:03:04Z</time>
      </trkpt>
      <trkpt lat="40.186350" lon="-5.075567">
        <ele>531.0</ele>
        <time>2015-05-10T13:03:06Z</time>
      </trkpt>
      <trkpt lat="40.186250" lon="-5.075433">
        <ele>531.0</ele>
        <time>2015-05-10T13:03:08Z</time>
      </trkpt>
      <trkpt lat="40.186083" lon="-5.075350">
        <ele>531.0</ele>
        <time>2015-05-10T13:03:10Z</time>
      </trkpt>
      <trkpt lat="40.185950" lon="-5.075350">
        <ele>533.0</ele>
        <time>2015-05-10T13:03:12Z</time>
      </trkpt>
      <trkpt lat="40.185817" lon="-5.075400">
        <ele>532.0</ele>
        <time>2015-05-10T13:03:14Z</time>
      </trkpt>
      <trkpt lat="40.185633" lon="-5.075533">
        <ele>530.0</ele>
        <time>2015-05-10T13:03:16Z</time>
      </trkpt>
      <trkpt lat="40.185500" lon="-5.075717">
        <ele>532.0</ele>
        <time>2015-05-10T13:03:18Z</time>
      </trkpt>
      <trkpt lat="40.185450" lon="-5.075933">
        <ele>531.0</ele>
        <time>2015-05-10T13:03:20Z</time>
      </trkpt>
      <trkpt lat="40.185433" lon="-5.076233">
        <ele>527.0</ele>
        <time>2015-05-10T13:03:22Z</time>
      </trkpt>
      <trkpt lat="40.185483" lon="-5.076550">
        <ele>528.0</ele>
        <time>2015-05-10T13:03:24Z</time>
      </trkpt>
      <trkpt lat="40.185583" lon="-5.076767">
        <ele>527.0</ele>
        <time>2015-05-10T13:03:26Z</time>
      </trkpt>
      <trkpt lat="40.185717" lon="-5.076967">
        <ele>527.0</ele>
        <time>2015-05-10T13:03:28Z</time>
      </trkpt>
      <trkpt lat="40.185850" lon="-5.077150">
        <ele>526.0</ele>
        <time>2015-05-10T13:03:30Z</time>
      </trkpt>
      <trkpt lat="40.186000" lon="-5.077300">
        <ele>524.0</ele>
        <time>2015-05-10T13:03:32Z</time>
      </trkpt>
      <trkpt lat="40.186150" lon="-5.077433">
        <ele>524.0</ele>
        <time>2015-05-10T13:03:34Z</time>
      </trkpt>
      <trkpt lat="40.186300" lon="-5.077533">
        <ele>523.0</ele>
        <time>2015-05-10T13:03:36Z</time>
      </trkpt>
      <trkpt lat="40.186467" lon="-5.077617">
        <ele>523.0</ele>
        <time>2015-05-10T13:03:38Z</time>
      </trkpt>
      <trkpt lat="40.186600" lon="-5.077650">
        <ele>524.0</ele>
        <time>2015-05-10T13:03:40Z</time>
      </trkpt>
      <trkpt lat="40.186733" lon="-5.077667">
        <ele>520.0</ele>
        <time>2015-05-10T13:03:42Z</time>
      </trkpt>
      <trkpt lat="40.186900" lon="-5.077533">
        <ele>514.0</ele>
        <time>2015-05-10T13:03:44Z</time>
      </trkpt>
      <trkpt lat="40.187000" lon="-5.077333">
        <ele>515.0</ele>
        <time>2015-05-10T13:03:46Z</time>
      </trkpt>
      <trkpt lat="40.187033" lon="-5.077200">
        <ele>518.0</ele>
        <time>2015-05-10T13:03:48Z</time>
      </trkpt>
      <trkpt lat="40.187050" lon="-5.077050">
        <ele>515.0</ele>
        <time>2015-05-10T13:03:50Z</time>
      </trkpt>
      <trkpt lat="40.187033" lon="-5.076800">
        <ele>512.0</ele>
        <time>2015-05-10T13:03:52Z</time>
      </trkpt>
      <trkpt lat="40.186967" lon="-5.076617">
        <ele>515.0</ele>
        <time>2015-05-10T13:03:54Z</time>
      </trkpt>
      <trkpt lat="40.186850" lon="-5.076533">
        <ele>516.0</ele>
        <time>2015-05-10T13:03:56Z</time>
      </trkpt>
      <trkpt lat="40.186683" lon="-5.076517">
        <ele>517.0</ele>
        <time>2015-05-10T13:03:58Z</time>
      </trkpt>
      <trkpt lat="40.186533" lon="-5.076617">
        <ele>517.0</ele>
        <time>2015-05-10T13:04:00Z</time>
      </trkpt>
      <trkpt lat="40.186400" lon="-5.076817">
        <ele>519.0</ele>
        <time>2015-05-10T13:04:02Z</time>
      </trkpt>
      <trkpt lat="40.186367" lon="-5.077017">
        <ele>522.0</ele>
        <time>2015-05-10T13:04:04Z</time>
      </trkpt>
      <trkpt lat="40.186350" lon="-5.077250">
        <ele>520.0</ele>
        <time>2015-05-10T13:04:06Z</time>
      </trkpt>
      <trkpt lat="40.186383" lon="-5.077533">
        <ele>519.0</ele>
        <time>2015-05-10T13:04:08Z</time>
      </trkpt>
      <trkpt lat="40.186467" lon="-5.077767">
        <ele>521.0</ele>
        <time>2015-05-10T13:04:10Z</time>
      </trkpt>
      <trkpt lat="40.186583" lon="-5.077900">
        <ele>522.0</ele>
        <time>2015-05-10T13:04:12Z</time>
      </trkpt>
      <trkpt lat="40.186733" lon="-5.077983">
        <ele>520.0</ele>
        <time>2015-05-10T13:04:14Z</time>
      </trkpt>
      <trkpt lat="40.186917" lon="-5.077950">
        <ele>518.0</ele>
        <time>2015-05-10T13:04:16Z</time>
      </trkpt>
      <trkpt lat="40.187083" lon="-5.077850">
        <ele>519.0</ele>
        <time>2015-05-10T13:04:18Z</time>
      </trkpt>
      <trkpt lat="40.187200" lon="-5.077733">
        <ele>518.0</ele>
        <time>2015-05-10T13:04:20Z</time>
      </trkpt>
      <trkpt lat="40.187300" lon="-5.077533">
        <ele>517.0</ele>
        <time>2015-05-10T13:04:22Z</time>
      </trkpt>
      <trkpt lat="40.187317" lon="-5.077300">
        <ele>519.0</ele>
        <time>2015-05-10T13:04:24Z</time>
      </trkpt>
      <trkpt lat="40.187317" lon="-5.077117">
        <ele>520.0</ele>
        <time>2015-05-10T13:04:26Z</time>
      </trkpt>
      <trkpt lat="40.187267" lon="-5.076967">
        <ele>520.0</ele>
        <time>2015-05-10T13:04:28Z</time>
      </trkpt>
      <trkpt lat="40.187150" lon="-5.076900">
        <ele>517.0</ele>
        <time>2015-05-10T13:04:30Z</time>
      </trkpt>
      <trkpt lat="40.187067" lon="-5.076867">
        <ele>514.0</ele>
        <time>2015-05-10T13:04:32Z</time>
      </trkpt>
      <trkpt lat="40.187000" lon="-5.076750">
        <ele>508.0</ele>
        <time>2015-05-10T13:04:34Z</time>
      </trkpt>
      <trkpt lat="40.186933" lon="-5.076583">
        <ele>504.0</ele>
        <time>2015-05-10T13:04:36Z</time>
      </trkpt>
      <trkpt lat="40.186933" lon="-5.076433">
        <ele>502.0</ele>
        <time>2015-05-10T13:04:38Z</time>
      </trkpt>
      <trkpt lat="40.187033" lon="-5.076317">
        <ele>496.0</ele>
        <time>2015-05-10T13:04:40Z</time>
      </trkpt>
      <trkpt lat="40.187233" lon="-5.076300">
        <ele>490.0</ele>
        <time>2015-05-10T13:04:42Z</time>
      </trkpt>
      <trkpt lat="40.187417" lon="-5.076433">
        <ele>488.0</ele>
        <time>2015-05-10T13:04:44Z</time>
      </trkpt>
      <trkpt lat="40.187567" lon="-5.076583">
        <ele>485.0</ele>
        <time>2015-05-10T13:04:46Z</time>
      </trkpt>
      <trkpt lat="40.187733" lon="-5.076700">
        <ele>480.0</ele>
        <time>2015-05-10T13:04:48Z</time>
      </trkpt>
      <trkpt lat="40.187917" lon="-5.076717">
        <ele>473.0</ele>
        <time>2015-05-10T13:04:50Z</time>
      </trkpt>
      <trkpt lat="40.188033" lon="-5.076617">
        <ele>468.0</ele>
        <time>2015-05-10T13:04:52Z</time>
      </trkpt>
      <trkpt lat="40.188033" lon="-5.076450">
        <ele>462.0</ele>
        <time>2015-05-10T13:04:54Z</time>
      </trkpt>
      <trkpt lat="40.187950" lon="-5.076300">
        <ele>458.0</ele>
        <time>2015-05-10T13:04:56Z</time>
      </trkpt>
      <trkpt lat="40.187900" lon="-5.076183">
        <ele>456.0</ele>
        <time>2015-05-10T13:04:58Z</time>
      </trkpt>
      <trkpt lat="40.187950" lon="-5.076033">
        <ele>450.0</ele>
        <time>2015-05-10T13:05:00Z</time>
      </trkpt>
      <trkpt lat="40.188100" lon="-5.075917">
        <ele>445.0</ele>
        <time>2015-05-10T13:05:02Z</time>
      </trkpt>
      <trkpt lat="40.188283" lon="-5.075867">
        <ele>443.0</ele>
        <time>2015-05-10T13:05:04Z</time>
      </trkpt>
      <trkpt lat="40.188400" lon="-5.075750">
        <ele>440.0</ele>
        <time>2015-05-10T13:05:06Z</time>
      </trkpt>
      <trkpt lat="40.188433" lon="-5.075550">
        <ele>436.0</ele>
        <time>2015-05-10T13:05:08Z</time>
      </trkpt>
      <trkpt lat="40.188500" lon="-5.075367">
        <ele>434.0</ele>
        <time>2015-05-10T13:05:10Z</time>
      </trkpt>
      <trkpt lat="40.188600" lon="-5.075200">
        <ele>432.0</ele>
        <time>2015-05-10T13:05:12Z</time>
      </trkpt>
      <trkpt lat="40.188633" lon="-5.075100">
        <ele>431.0</ele>
        <time>2015-05-10T13:05:14Z</time>
      </trkpt>
      <trkpt lat="40.188667" lon="-5.075083">
        <ele>430.0</ele>
        <time>2015-05-10T13:05:16Z</time>
      </trkpt>
      <trkpt lat="40.188667" lon="-5.075083">
        <ele>430.0</ele>
        <time>2015-05-10T13:05:18Z</time>
      </trkpt>
      <trkpt lat="40.188683" lon="-5.075083">
        <ele>430.0</ele>
        <time>2015-05-10T13:05:20Z</time>
      </trkpt>
      <trkpt lat="40.188683" lon="-5.075067">
        <ele>429.0</ele>
        <time>2015-05-10T13:05:22Z</time>
      </trkpt>
      <trkpt lat="40.188683" lon="-5.075067">
        <ele>429.0</ele>
        <time>2015-05-10T13:05:24Z</time>
      </trkpt>
      <trkpt lat="40.188683" lon="-5.075067">
        <ele>430.0</ele>
        <time>2015-05-10T13:05:26Z</time>
      </trkpt>
      <trkpt lat="40.188683" lon="-5.075067">
        <ele>429.0</ele>
        <time>2015-05-10T13:05:28Z</time>
      </trkpt>
      <trkpt lat="40.188683" lon="-5.075067">
        <ele>430.0</ele>
        <time>2015-05-10T13:05:30Z</time>
      </trkpt>
      <trkpt lat="40.188683" lon="-5.075067">
        <ele>430.0</ele>
        <time>2015-05-10T13:05:32Z</time>
      </trkpt>
      <trkpt lat="40.188683" lon="-5.075067">
        <ele>430.0</ele>
        <time>2015-05-10T13:05:34Z</time>
      </trkpt>
      <trkpt lat="40.188683" lon="-5.075067">
        <ele>430.0</ele>
        <time>2015-05-10T13:05:36Z</time>
      </trkpt>
      <trkpt lat="40.188683" lon="-5.075067">
        <ele>429.0</ele>
        <time>2015-05-10T13:05:38Z</time>
      </trkpt>
      <trkpt lat="40.188683" lon="-5.075067">
        <ele>429.0</ele>
        <time>2015-05-10T13:05:40Z</time>
      </trkpt>
      <trkpt lat="40.188683" lon="-5.075050">
        <ele>429.0</ele>
        <time>2015-05-10T13:05:42Z</time>
      </trkpt>
      <trkpt lat="40.188683" lon="-5.075067">
        <ele>429.0</ele>
        <time>2015-05-10T13:05:44Z</time>
      </trkpt>
      <trkpt lat="40.188683" lon="-5.075067">
        <ele>429.0</ele>
        <time>2015-05-10T13:05:46Z</time>
      </trkpt>
      <trkpt lat="40.188683" lon="-5.075067">
        <ele>428.0</ele>
        <time>2015-05-10T13:05:48Z</time>
      </trkpt>
      <trkpt lat="40.188683" lon="-5.075067">
        <ele>428.0</ele>
        <time>2015-05-10T13:05:50Z</time>
      </trkpt>
      <trkpt lat="40.188683" lon="-5.075067">
        <ele>428.0</ele>
        <time>2015-05-10T13:05:52Z</time>
      </trkpt>
    </trkseg>
  </trk>
</gpx>
